<?xml version="1.0" encoding="UTF-8" standalone="no" ?>
<gpx xmlns="http://www.topografix.com/GPX/1/1" creator="www.cicloide.com" version="1.1" xmlns:xsi="http://www.w3.org/2001/XMLSchema-instance" xsi:schemaLocation="http://www.topografix.com/GPX/1/1 http://www.topografix.com/GPX/1/1/gpx.xsd">
  <trk>
    <name>www.cicloide.com 18669</name>
    <desc>www.cicloide.com 18669</desc>
    <trkseg>
      <trkpt lat="41.543999000" lon="1.887061000">
        <ele>84.70</ele>
        <time>2014-06-29T08:08:06Z</time>
      </trkpt>
      <trkpt lat="41.543897000" lon="1.886956000">
        <ele>84.50</ele>
        <time>2014-06-29T08:08:13Z</time>
      </trkpt>
      <trkpt lat="41.543904000" lon="1.886715000">
        <ele>84.30</ele>
        <time>2014-06-29T08:08:18Z</time>
      </trkpt>
      <trkpt lat="41.544200000" lon="1.886096000">
        <ele>83.50</ele>
        <time>2014-06-29T08:08:36Z</time>
      </trkpt>
      <trkpt lat="41.544515000" lon="1.885675000">
        <ele>83.20</ele>
        <time>2014-06-29T08:08:53Z</time>
      </trkpt>
      <trkpt lat="41.544971000" lon="1.885116000">
        <ele>80.20</ele>
        <time>2014-06-29T08:09:11Z</time>
      </trkpt>
      <trkpt lat="41.545224000" lon="1.884789000">
        <ele>78.10</ele>
        <time>2014-06-29T08:09:18Z</time>
      </trkpt>
      <trkpt lat="41.545613000" lon="1.884318000">
        <ele>77.60</ele>
        <time>2014-06-29T08:09:28Z</time>
      </trkpt>
      <trkpt lat="41.545634000" lon="1.883903000">
        <ele>77.50</ele>
        <time>2014-06-29T08:09:37Z</time>
      </trkpt>
      <trkpt lat="41.545590000" lon="1.883875000">
        <ele>77.50</ele>
        <time>2014-06-29T08:09:38Z</time>
      </trkpt>
      <trkpt lat="41.545034000" lon="1.883630000">
        <ele>75.40</ele>
        <time>2014-06-29T08:09:48Z</time>
      </trkpt>
      <trkpt lat="41.544811000" lon="1.883469000">
        <ele>76.50</ele>
        <time>2014-06-29T08:09:53Z</time>
      </trkpt>
      <trkpt lat="41.544652000" lon="1.883172000">
        <ele>78.00</ele>
        <time>2014-06-29T08:10:00Z</time>
      </trkpt>
      <trkpt lat="41.544708000" lon="1.882858000">
        <ele>78.50</ele>
        <time>2014-06-29T08:10:06Z</time>
      </trkpt>
      <trkpt lat="41.544754000" lon="1.882757000">
        <ele>78.10</ele>
        <time>2014-06-29T08:10:08Z</time>
      </trkpt>
      <trkpt lat="41.544786000" lon="1.882360000">
        <ele>76.40</ele>
        <time>2014-06-29T08:10:14Z</time>
      </trkpt>
      <trkpt lat="41.544637000" lon="1.881971000">
        <ele>75.90</ele>
        <time>2014-06-29T08:10:20Z</time>
      </trkpt>
      <trkpt lat="41.544064000" lon="1.881871000">
        <ele>74.50</ele>
        <time>2014-06-29T08:10:30Z</time>
      </trkpt>
      <trkpt lat="41.543671000" lon="1.882016000">
        <ele>73.80</ele>
        <time>2014-06-29T08:10:37Z</time>
      </trkpt>
      <trkpt lat="41.543271000" lon="1.881744000">
        <ele>70.10</ele>
        <time>2014-06-29T08:10:43Z</time>
      </trkpt>
      <trkpt lat="41.542942000" lon="1.881528000">
        <ele>66.50</ele>
        <time>2014-06-29T08:10:47Z</time>
      </trkpt>
      <trkpt lat="41.542351000" lon="1.881159000">
        <ele>64.10</ele>
        <time>2014-06-29T08:10:54Z</time>
      </trkpt>
      <trkpt lat="41.542015000" lon="1.880942000">
        <ele>66.20</ele>
        <time>2014-06-29T08:10:59Z</time>
      </trkpt>
      <trkpt lat="41.541175000" lon="1.880437000">
        <ele>66.40</ele>
        <time>2014-06-29T08:11:14Z</time>
      </trkpt>
      <trkpt lat="41.541134000" lon="1.880110000">
        <ele>65.20</ele>
        <time>2014-06-29T08:11:19Z</time>
      </trkpt>
      <trkpt lat="41.541509000" lon="1.878705000">
        <ele>67.00</ele>
        <time>2014-06-29T08:11:40Z</time>
      </trkpt>
      <trkpt lat="41.541992000" lon="1.877922000">
        <ele>67.20</ele>
        <time>2014-06-29T08:11:54Z</time>
      </trkpt>
      <trkpt lat="41.542104000" lon="1.877615000">
        <ele>67.10</ele>
        <time>2014-06-29T08:11:59Z</time>
      </trkpt>
      <trkpt lat="41.542290000" lon="1.876352000">
        <ele>70.30</ele>
        <time>2014-06-29T08:12:21Z</time>
      </trkpt>
      <trkpt lat="41.542413000" lon="1.875509000">
        <ele>72.40</ele>
        <time>2014-06-29T08:12:37Z</time>
      </trkpt>
      <trkpt lat="41.542656000" lon="1.874121000">
        <ele>73.40</ele>
        <time>2014-06-29T08:13:06Z</time>
      </trkpt>
      <trkpt lat="41.543026000" lon="1.873061000">
        <ele>74.10</ele>
        <time>2014-06-29T08:13:27Z</time>
      </trkpt>
      <trkpt lat="41.543575000" lon="1.872426000">
        <ele>71.00</ele>
        <time>2014-06-29T08:13:41Z</time>
      </trkpt>
      <trkpt lat="41.543702000" lon="1.872290000">
        <ele>70.50</ele>
        <time>2014-06-29T08:13:44Z</time>
      </trkpt>
      <trkpt lat="41.544493000" lon="1.872079000">
        <ele>69.10</ele>
        <time>2014-06-29T08:13:58Z</time>
      </trkpt>
      <trkpt lat="41.544610000" lon="1.872064000">
        <ele>69.10</ele>
        <time>2014-06-29T08:14:00Z</time>
      </trkpt>
      <trkpt lat="41.544839000" lon="1.872144000">
        <ele>69.60</ele>
        <time>2014-06-29T08:14:04Z</time>
      </trkpt>
      <trkpt lat="41.544949000" lon="1.872200000">
        <ele>69.80</ele>
        <time>2014-06-29T08:14:06Z</time>
      </trkpt>
      <trkpt lat="41.545327000" lon="1.872252000">
        <ele>69.30</ele>
        <time>2014-06-29T08:14:13Z</time>
      </trkpt>
      <trkpt lat="41.545998000" lon="1.871871000">
        <ele>70.30</ele>
        <time>2014-06-29T08:14:27Z</time>
      </trkpt>
      <trkpt lat="41.546252000" lon="1.871828000">
        <ele>69.80</ele>
        <time>2014-06-29T08:14:32Z</time>
      </trkpt>
      <trkpt lat="41.547103000" lon="1.871994000">
        <ele>69.20</ele>
        <time>2014-06-29T08:14:48Z</time>
      </trkpt>
      <trkpt lat="41.547465000" lon="1.871906000">
        <ele>69.20</ele>
        <time>2014-06-29T08:14:55Z</time>
      </trkpt>
      <trkpt lat="41.547988000" lon="1.871299000">
        <ele>71.70</ele>
        <time>2014-06-29T08:15:09Z</time>
      </trkpt>
      <trkpt lat="41.548359000" lon="1.870844000">
        <ele>74.70</ele>
        <time>2014-06-29T08:15:22Z</time>
      </trkpt>
      <trkpt lat="41.548808000" lon="1.870314000">
        <ele>77.80</ele>
        <time>2014-06-29T08:15:39Z</time>
      </trkpt>
      <trkpt lat="41.548856000" lon="1.870258000">
        <ele>78.60</ele>
        <time>2014-06-29T08:15:41Z</time>
      </trkpt>
      <trkpt lat="41.549222000" lon="1.869725000">
        <ele>81.70</ele>
        <time>2014-06-29T08:15:58Z</time>
      </trkpt>
      <trkpt lat="41.549446000" lon="1.869266000">
        <ele>84.80</ele>
        <time>2014-06-29T08:16:12Z</time>
      </trkpt>
      <trkpt lat="41.549742000" lon="1.868652000">
        <ele>88.10</ele>
        <time>2014-06-29T08:16:30Z</time>
      </trkpt>
      <trkpt lat="41.549936000" lon="1.868166000">
        <ele>91.20</ele>
        <time>2014-06-29T08:16:44Z</time>
      </trkpt>
      <trkpt lat="41.550386000" lon="1.867781000">
        <ele>92.70</ele>
        <time>2014-06-29T08:17:02Z</time>
      </trkpt>
      <trkpt lat="41.550627000" lon="1.867645000">
        <ele>92.70</ele>
        <time>2014-06-29T08:17:11Z</time>
      </trkpt>
      <trkpt lat="41.550737000" lon="1.867617000">
        <ele>92.30</ele>
        <time>2014-06-29T08:17:14Z</time>
      </trkpt>
      <trkpt lat="41.551096000" lon="1.867276000">
        <ele>95.70</ele>
        <time>2014-06-29T08:17:31Z</time>
      </trkpt>
      <trkpt lat="41.551466000" lon="1.866874000">
        <ele>98.70</ele>
        <time>2014-06-29T08:17:51Z</time>
      </trkpt>
      <trkpt lat="41.551833000" lon="1.866474000">
        <ele>101.50</ele>
        <time>2014-06-29T08:18:11Z</time>
      </trkpt>
      <trkpt lat="41.552042000" lon="1.865930000">
        <ele>104.00</ele>
        <time>2014-06-29T08:18:30Z</time>
      </trkpt>
      <trkpt lat="41.552337000" lon="1.865412000">
        <ele>107.10</ele>
        <time>2014-06-29T08:18:51Z</time>
      </trkpt>
      <trkpt lat="41.552698000" lon="1.864977000">
        <ele>110.20</ele>
        <time>2014-06-29T08:19:12Z</time>
      </trkpt>
      <trkpt lat="41.552959000" lon="1.864608000">
        <ele>112.40</ele>
        <time>2014-06-29T08:19:30Z</time>
      </trkpt>
      <trkpt lat="41.553098000" lon="1.864188000">
        <ele>114.50</ele>
        <time>2014-06-29T08:19:45Z</time>
      </trkpt>
      <trkpt lat="41.553149000" lon="1.863739000">
        <ele>116.80</ele>
        <time>2014-06-29T08:20:00Z</time>
      </trkpt>
      <trkpt lat="41.553246000" lon="1.863144000">
        <ele>119.10</ele>
        <time>2014-06-29T08:20:20Z</time>
      </trkpt>
      <trkpt lat="41.553340000" lon="1.862582000">
        <ele>121.30</ele>
        <time>2014-06-29T08:20:39Z</time>
      </trkpt>
      <trkpt lat="41.553435000" lon="1.862135000">
        <ele>124.10</ele>
        <time>2014-06-29T08:20:55Z</time>
      </trkpt>
      <trkpt lat="41.553490000" lon="1.861672000">
        <ele>126.30</ele>
        <time>2014-06-29T08:21:11Z</time>
      </trkpt>
      <trkpt lat="41.553518000" lon="1.861267000">
        <ele>129.30</ele>
        <time>2014-06-29T08:21:25Z</time>
      </trkpt>
      <trkpt lat="41.553515000" lon="1.861213000">
        <ele>129.50</ele>
        <time>2014-06-29T08:21:27Z</time>
      </trkpt>
      <trkpt lat="41.553568000" lon="1.861117000">
        <ele>131.10</ele>
        <time>2014-06-29T08:21:32Z</time>
      </trkpt>
      <trkpt lat="41.553646000" lon="1.861126000">
        <ele>132.10</ele>
        <time>2014-06-29T08:21:36Z</time>
      </trkpt>
      <trkpt lat="41.553716000" lon="1.861014000">
        <ele>133.50</ele>
        <time>2014-06-29T08:21:42Z</time>
      </trkpt>
      <trkpt lat="41.553716000" lon="1.860932000">
        <ele>133.80</ele>
        <time>2014-06-29T08:21:45Z</time>
      </trkpt>
      <trkpt lat="41.553742000" lon="1.860822000">
        <ele>134.90</ele>
        <time>2014-06-29T08:21:50Z</time>
      </trkpt>
      <trkpt lat="41.553766000" lon="1.860789000">
        <ele>135.70</ele>
        <time>2014-06-29T08:21:52Z</time>
      </trkpt>
      <trkpt lat="41.553849000" lon="1.860840000">
        <ele>137.10</ele>
        <time>2014-06-29T08:21:59Z</time>
      </trkpt>
      <trkpt lat="41.553872000" lon="1.861327000">
        <ele>140.80</ele>
        <time>2014-06-29T08:22:18Z</time>
      </trkpt>
      <trkpt lat="41.553883000" lon="1.861761000">
        <ele>143.10</ele>
        <time>2014-06-29T08:22:34Z</time>
      </trkpt>
      <trkpt lat="41.553897000" lon="1.862067000">
        <ele>145.20</ele>
        <time>2014-06-29T08:22:47Z</time>
      </trkpt>
      <trkpt lat="41.553888000" lon="1.862146000">
        <ele>145.80</ele>
        <time>2014-06-29T08:22:50Z</time>
      </trkpt>
      <trkpt lat="41.553894000" lon="1.862287000">
        <ele>147.40</ele>
        <time>2014-06-29T08:22:55Z</time>
      </trkpt>
      <trkpt lat="41.553958000" lon="1.862378000">
        <ele>149.40</ele>
        <time>2014-06-29T08:23:00Z</time>
      </trkpt>
      <trkpt lat="41.554098000" lon="1.862135000">
        <ele>153.30</ele>
        <time>2014-06-29T08:23:14Z</time>
      </trkpt>
      <trkpt lat="41.554135000" lon="1.862012000">
        <ele>154.70</ele>
        <time>2014-06-29T08:23:20Z</time>
      </trkpt>
      <trkpt lat="41.554198000" lon="1.862089000">
        <ele>156.30</ele>
        <time>2014-06-29T08:23:26Z</time>
      </trkpt>
      <trkpt lat="41.554180000" lon="1.862565000">
        <ele>158.70</ele>
        <time>2014-06-29T08:23:46Z</time>
      </trkpt>
      <trkpt lat="41.554260000" lon="1.862626000">
        <ele>159.00</ele>
        <time>2014-06-29T08:23:50Z</time>
      </trkpt>
      <trkpt lat="41.554323000" lon="1.862531000">
        <ele>160.30</ele>
        <time>2014-06-29T08:23:56Z</time>
      </trkpt>
      <trkpt lat="41.554350000" lon="1.861962000">
        <ele>163.80</ele>
        <time>2014-06-29T08:24:17Z</time>
      </trkpt>
      <trkpt lat="41.554397000" lon="1.861482000">
        <ele>166.10</ele>
        <time>2014-06-29T08:24:35Z</time>
      </trkpt>
      <trkpt lat="41.554496000" lon="1.861003000">
        <ele>169.40</ele>
        <time>2014-06-29T08:24:54Z</time>
      </trkpt>
      <trkpt lat="41.554531000" lon="1.860974000">
        <ele>170.60</ele>
        <time>2014-06-29T08:24:58Z</time>
      </trkpt>
      <trkpt lat="41.554559000" lon="1.861062000">
        <ele>171.40</ele>
        <time>2014-06-29T08:25:03Z</time>
      </trkpt>
      <trkpt lat="41.554654000" lon="1.861586000">
        <ele>174.70</ele>
        <time>2014-06-29T08:25:24Z</time>
      </trkpt>
      <trkpt lat="41.554735000" lon="1.861993000">
        <ele>177.50</ele>
        <time>2014-06-29T08:25:41Z</time>
      </trkpt>
      <trkpt lat="41.554712000" lon="1.862504000">
        <ele>180.60</ele>
        <time>2014-06-29T08:26:00Z</time>
      </trkpt>
      <trkpt lat="41.554690000" lon="1.862637000">
        <ele>181.50</ele>
        <time>2014-06-29T08:26:05Z</time>
      </trkpt>
      <trkpt lat="41.554783000" lon="1.862658000">
        <ele>183.50</ele>
        <time>2014-06-29T08:26:13Z</time>
      </trkpt>
      <trkpt lat="41.554924000" lon="1.862163000">
        <ele>186.50</ele>
        <time>2014-06-29T08:26:33Z</time>
      </trkpt>
      <trkpt lat="41.555022000" lon="1.861761000">
        <ele>188.30</ele>
        <time>2014-06-29T08:26:49Z</time>
      </trkpt>
      <trkpt lat="41.555007000" lon="1.861310000">
        <ele>190.40</ele>
        <time>2014-06-29T08:27:05Z</time>
      </trkpt>
      <trkpt lat="41.555068000" lon="1.860863000">
        <ele>192.60</ele>
        <time>2014-06-29T08:27:21Z</time>
      </trkpt>
      <trkpt lat="41.555125000" lon="1.860557000">
        <ele>195.70</ele>
        <time>2014-06-29T08:27:33Z</time>
      </trkpt>
      <trkpt lat="41.555232000" lon="1.860309000">
        <ele>198.70</ele>
        <time>2014-06-29T08:27:45Z</time>
      </trkpt>
      <trkpt lat="41.555283000" lon="1.860380000">
        <ele>200.40</ele>
        <time>2014-06-29T08:27:50Z</time>
      </trkpt>
      <trkpt lat="41.555288000" lon="1.860890000">
        <ele>203.70</ele>
        <time>2014-06-29T08:28:10Z</time>
      </trkpt>
      <trkpt lat="41.555481000" lon="1.861188000">
        <ele>206.00</ele>
        <time>2014-06-29T08:28:25Z</time>
      </trkpt>
      <trkpt lat="41.555584000" lon="1.861118000">
        <ele>208.00</ele>
        <time>2014-06-29T08:28:33Z</time>
      </trkpt>
      <trkpt lat="41.555660000" lon="1.860962000">
        <ele>210.70</ele>
        <time>2014-06-29T08:28:42Z</time>
      </trkpt>
      <trkpt lat="41.555731000" lon="1.860740000">
        <ele>214.10</ele>
        <time>2014-06-29T08:28:55Z</time>
      </trkpt>
      <trkpt lat="41.555867000" lon="1.860495000">
        <ele>217.20</ele>
        <time>2014-06-29T08:29:10Z</time>
      </trkpt>
      <trkpt lat="41.556022000" lon="1.860259000">
        <ele>220.20</ele>
        <time>2014-06-29T08:29:24Z</time>
      </trkpt>
      <trkpt lat="41.556056000" lon="1.860160000">
        <ele>221.60</ele>
        <time>2014-06-29T08:29:29Z</time>
      </trkpt>
      <trkpt lat="41.556055000" lon="1.860057000">
        <ele>222.60</ele>
        <time>2014-06-29T08:29:34Z</time>
      </trkpt>
      <trkpt lat="41.556055000" lon="1.860019000">
        <ele>223.10</ele>
        <time>2014-06-29T08:29:36Z</time>
      </trkpt>
      <trkpt lat="41.555935000" lon="1.859832000">
        <ele>226.90</ele>
        <time>2014-06-29T08:29:47Z</time>
      </trkpt>
      <trkpt lat="41.555956000" lon="1.859547000">
        <ele>229.10</ele>
        <time>2014-06-29T08:29:59Z</time>
      </trkpt>
      <trkpt lat="41.556077000" lon="1.859162000">
        <ele>232.10</ele>
        <time>2014-06-29T08:30:16Z</time>
      </trkpt>
      <trkpt lat="41.556214000" lon="1.858761000">
        <ele>232.20</ele>
        <time>2014-06-29T08:30:31Z</time>
      </trkpt>
      <trkpt lat="41.556268000" lon="1.858310000">
        <ele>230.80</ele>
        <time>2014-06-29T08:30:44Z</time>
      </trkpt>
      <trkpt lat="41.556288000" lon="1.858262000">
        <ele>230.20</ele>
        <time>2014-06-29T08:30:45Z</time>
      </trkpt>
      <trkpt lat="41.556313000" lon="1.858143000">
        <ele>229.60</ele>
        <time>2014-06-29T08:30:47Z</time>
      </trkpt>
      <trkpt lat="41.556323000" lon="1.858078000">
        <ele>229.20</ele>
        <time>2014-06-29T08:30:48Z</time>
      </trkpt>
      <trkpt lat="41.556413000" lon="1.857804000">
        <ele>226.90</ele>
        <time>2014-06-29T08:30:52Z</time>
      </trkpt>
      <trkpt lat="41.556490000" lon="1.857658000">
        <ele>222.80</ele>
        <time>2014-06-29T08:30:54Z</time>
      </trkpt>
      <trkpt lat="41.556673000" lon="1.857468000">
        <ele>218.20</ele>
        <time>2014-06-29T08:30:57Z</time>
      </trkpt>
      <trkpt lat="41.556747000" lon="1.857400000">
        <ele>216.90</ele>
        <time>2014-06-29T08:30:58Z</time>
      </trkpt>
      <trkpt lat="41.557018000" lon="1.856903000">
        <ele>213.80</ele>
        <time>2014-06-29T08:31:03Z</time>
      </trkpt>
      <trkpt lat="41.557127000" lon="1.856701000">
        <ele>212.50</ele>
        <time>2014-06-29T08:31:05Z</time>
      </trkpt>
      <trkpt lat="41.557455000" lon="1.856468000">
        <ele>209.90</ele>
        <time>2014-06-29T08:31:10Z</time>
      </trkpt>
      <trkpt lat="41.557521000" lon="1.856460000">
        <ele>209.10</ele>
        <time>2014-06-29T08:31:11Z</time>
      </trkpt>
      <trkpt lat="41.557672000" lon="1.856273000">
        <ele>211.30</ele>
        <time>2014-06-29T08:31:16Z</time>
      </trkpt>
      <trkpt lat="41.557614000" lon="1.856195000">
        <ele>213.60</ele>
        <time>2014-06-29T08:31:20Z</time>
      </trkpt>
      <trkpt lat="41.557503000" lon="1.856104000">
        <ele>215.80</ele>
        <time>2014-06-29T08:31:26Z</time>
      </trkpt>
      <trkpt lat="41.557231000" lon="1.855961000">
        <ele>219.10</ele>
        <time>2014-06-29T08:31:40Z</time>
      </trkpt>
      <trkpt lat="41.556886000" lon="1.855982000">
        <ele>222.30</ele>
        <time>2014-06-29T08:31:56Z</time>
      </trkpt>
      <trkpt lat="41.556637000" lon="1.856128000">
        <ele>225.40</ele>
        <time>2014-06-29T08:32:09Z</time>
      </trkpt>
      <trkpt lat="41.556460000" lon="1.856274000">
        <ele>227.20</ele>
        <time>2014-06-29T08:32:19Z</time>
      </trkpt>
      <trkpt lat="41.556125000" lon="1.856344000">
        <ele>230.10</ele>
        <time>2014-06-29T08:32:35Z</time>
      </trkpt>
      <trkpt lat="41.556041000" lon="1.856147000">
        <ele>231.20</ele>
        <time>2014-06-29T08:32:44Z</time>
      </trkpt>
      <trkpt lat="41.556160000" lon="1.855645000">
        <ele>233.70</ele>
        <time>2014-06-29T08:33:03Z</time>
      </trkpt>
      <trkpt lat="41.556440000" lon="1.855099000">
        <ele>236.00</ele>
        <time>2014-06-29T08:33:24Z</time>
      </trkpt>
      <trkpt lat="41.556642000" lon="1.854592000">
        <ele>237.20</ele>
        <time>2014-06-29T08:33:41Z</time>
      </trkpt>
      <trkpt lat="41.556912000" lon="1.854410000">
        <ele>239.20</ele>
        <time>2014-06-29T08:33:55Z</time>
      </trkpt>
      <trkpt lat="41.556926000" lon="1.854392000">
        <ele>239.30</ele>
        <time>2014-06-29T08:33:56Z</time>
      </trkpt>
      <trkpt lat="41.556882000" lon="1.854075000">
        <ele>239.20</ele>
        <time>2014-06-29T08:34:06Z</time>
      </trkpt>
      <trkpt lat="41.556816000" lon="1.854092000">
        <ele>239.70</ele>
        <time>2014-06-29T08:34:08Z</time>
      </trkpt>
      <trkpt lat="41.556410000" lon="1.854019000">
        <ele>242.30</ele>
        <time>2014-06-29T08:34:23Z</time>
      </trkpt>
      <trkpt lat="41.556074000" lon="1.854267000">
        <ele>243.60</ele>
        <time>2014-06-29T08:34:37Z</time>
      </trkpt>
      <trkpt lat="41.555981000" lon="1.854241000">
        <ele>244.10</ele>
        <time>2014-06-29T08:34:41Z</time>
      </trkpt>
      <trkpt lat="41.555889000" lon="1.853961000">
        <ele>247.30</ele>
        <time>2014-06-29T08:34:52Z</time>
      </trkpt>
      <trkpt lat="41.555881000" lon="1.853907000">
        <ele>247.70</ele>
        <time>2014-06-29T08:34:54Z</time>
      </trkpt>
      <trkpt lat="41.555959000" lon="1.853583000">
        <ele>249.00</ele>
        <time>2014-06-29T08:35:05Z</time>
      </trkpt>
      <trkpt lat="41.555899000" lon="1.853190000">
        <ele>251.30</ele>
        <time>2014-06-29T08:35:19Z</time>
      </trkpt>
      <trkpt lat="41.555760000" lon="1.853163000">
        <ele>252.00</ele>
        <time>2014-06-29T08:35:26Z</time>
      </trkpt>
      <trkpt lat="41.555473000" lon="1.853131000">
        <ele>252.30</ele>
        <time>2014-06-29T08:35:40Z</time>
      </trkpt>
      <trkpt lat="41.555296000" lon="1.853109000">
        <ele>251.60</ele>
        <time>2014-06-29T08:35:51Z</time>
      </trkpt>
      <trkpt lat="41.555069000" lon="1.853155000">
        <ele>251.50</ele>
        <time>2014-06-29T08:36:06Z</time>
      </trkpt>
      <trkpt lat="41.554994000" lon="1.853145000">
        <ele>250.80</ele>
        <time>2014-06-29T08:36:12Z</time>
      </trkpt>
      <trkpt lat="41.554575000" lon="1.853222000">
        <ele>249.40</ele>
        <time>2014-06-29T08:36:28Z</time>
      </trkpt>
      <trkpt lat="41.554059000" lon="1.853225000">
        <ele>247.40</ele>
        <time>2014-06-29T08:36:46Z</time>
      </trkpt>
      <trkpt lat="41.553824000" lon="1.853081000">
        <ele>245.60</ele>
        <time>2014-06-29T08:36:55Z</time>
      </trkpt>
      <trkpt lat="41.553782000" lon="1.852965000">
        <ele>244.50</ele>
        <time>2014-06-29T08:36:57Z</time>
      </trkpt>
      <trkpt lat="41.553773000" lon="1.852805000">
        <ele>243.50</ele>
        <time>2014-06-29T08:36:59Z</time>
      </trkpt>
      <trkpt lat="41.553880000" lon="1.852417000">
        <ele>241.70</ele>
        <time>2014-06-29T08:37:04Z</time>
      </trkpt>
      <trkpt lat="41.554000000" lon="1.852195000">
        <ele>241.60</ele>
        <time>2014-06-29T08:37:08Z</time>
      </trkpt>
      <trkpt lat="41.554067000" lon="1.852044000">
        <ele>241.00</ele>
        <time>2014-06-29T08:37:11Z</time>
      </trkpt>
      <trkpt lat="41.554133000" lon="1.851688000">
        <ele>241.10</ele>
        <time>2014-06-29T08:37:17Z</time>
      </trkpt>
      <trkpt lat="41.554183000" lon="1.851487000">
        <ele>239.90</ele>
        <time>2014-06-29T08:37:20Z</time>
      </trkpt>
      <trkpt lat="41.554037000" lon="1.850964000">
        <ele>239.10</ele>
        <time>2014-06-29T08:37:28Z</time>
      </trkpt>
      <trkpt lat="41.554017000" lon="1.850905000">
        <ele>239.60</ele>
        <time>2014-06-29T08:37:29Z</time>
      </trkpt>
      <trkpt lat="41.553808000" lon="1.850906000">
        <ele>239.40</ele>
        <time>2014-06-29T08:37:35Z</time>
      </trkpt>
      <trkpt lat="41.553492000" lon="1.851037000">
        <ele>239.20</ele>
        <time>2014-06-29T08:37:45Z</time>
      </trkpt>
      <trkpt lat="41.553371000" lon="1.850941000">
        <ele>238.60</ele>
        <time>2014-06-29T08:37:49Z</time>
      </trkpt>
      <trkpt lat="41.553341000" lon="1.850836000">
        <ele>237.80</ele>
        <time>2014-06-29T08:37:52Z</time>
      </trkpt>
      <trkpt lat="41.553313000" lon="1.850677000">
        <ele>234.40</ele>
        <time>2014-06-29T08:37:57Z</time>
      </trkpt>
      <trkpt lat="41.553272000" lon="1.850490000">
        <ele>231.90</ele>
        <time>2014-06-29T08:38:00Z</time>
      </trkpt>
      <trkpt lat="41.553251000" lon="1.850326000">
        <ele>233.40</ele>
        <time>2014-06-29T08:38:02Z</time>
      </trkpt>
      <trkpt lat="41.553286000" lon="1.849776000">
        <ele>234.10</ele>
        <time>2014-06-29T08:38:15Z</time>
      </trkpt>
      <trkpt lat="41.553342000" lon="1.849336000">
        <ele>234.20</ele>
        <time>2014-06-29T08:38:30Z</time>
      </trkpt>
      <trkpt lat="41.553380000" lon="1.849320000">
        <ele>235.30</ele>
        <time>2014-06-29T08:38:33Z</time>
      </trkpt>
      <trkpt lat="41.553376000" lon="1.849283000">
        <ele>235.90</ele>
        <time>2014-06-29T08:38:37Z</time>
      </trkpt>
      <trkpt lat="41.553324000" lon="1.849330000">
        <ele>235.40</ele>
        <time>2014-06-29T08:38:47Z</time>
      </trkpt>
      <trkpt lat="41.553255000" lon="1.849374000">
        <ele>236.00</ele>
        <time>2014-06-29T08:40:37Z</time>
      </trkpt>
      <trkpt lat="41.553261000" lon="1.849378000">
        <ele>235.30</ele>
        <time>2014-06-29T08:42:24Z</time>
      </trkpt>
      <trkpt lat="41.553260000" lon="1.849388000">
        <ele>236.60</ele>
        <time>2014-06-29T08:43:23Z</time>
      </trkpt>
      <trkpt lat="41.553286000" lon="1.849427000">
        <ele>236.50</ele>
        <time>2014-06-29T08:43:27Z</time>
      </trkpt>
      <trkpt lat="41.553300000" lon="1.849533000">
        <ele>236.70</ele>
        <time>2014-06-29T08:43:32Z</time>
      </trkpt>
      <trkpt lat="41.553362000" lon="1.849574000">
        <ele>237.00</ele>
        <time>2014-06-29T08:43:37Z</time>
      </trkpt>
      <trkpt lat="41.553421000" lon="1.849572000">
        <ele>237.30</ele>
        <time>2014-06-29T08:43:40Z</time>
      </trkpt>
      <trkpt lat="41.553542000" lon="1.849531000">
        <ele>237.70</ele>
        <time>2014-06-29T08:43:46Z</time>
      </trkpt>
      <trkpt lat="41.553742000" lon="1.849699000">
        <ele>240.00</ele>
        <time>2014-06-29T08:43:57Z</time>
      </trkpt>
      <trkpt lat="41.553782000" lon="1.849758000">
        <ele>241.20</ele>
        <time>2014-06-29T08:44:00Z</time>
      </trkpt>
      <trkpt lat="41.553845000" lon="1.849882000">
        <ele>243.00</ele>
        <time>2014-06-29T08:44:06Z</time>
      </trkpt>
      <trkpt lat="41.553945000" lon="1.850213000">
        <ele>246.30</ele>
        <time>2014-06-29T08:44:20Z</time>
      </trkpt>
      <trkpt lat="41.554003000" lon="1.850481000">
        <ele>245.60</ele>
        <time>2014-06-29T08:44:28Z</time>
      </trkpt>
      <trkpt lat="41.554032000" lon="1.850584000">
        <ele>244.60</ele>
        <time>2014-06-29T08:44:32Z</time>
      </trkpt>
      <trkpt lat="41.554031000" lon="1.850696000">
        <ele>243.30</ele>
        <time>2014-06-29T08:44:36Z</time>
      </trkpt>
      <trkpt lat="41.554005000" lon="1.850809000">
        <ele>241.60</ele>
        <time>2014-06-29T08:44:38Z</time>
      </trkpt>
      <trkpt lat="41.554117000" lon="1.851209000">
        <ele>240.70</ele>
        <time>2014-06-29T08:44:45Z</time>
      </trkpt>
      <trkpt lat="41.554191000" lon="1.851356000">
        <ele>241.70</ele>
        <time>2014-06-29T08:44:48Z</time>
      </trkpt>
      <trkpt lat="41.554187000" lon="1.851527000">
        <ele>242.50</ele>
        <time>2014-06-29T08:44:52Z</time>
      </trkpt>
      <trkpt lat="41.554106000" lon="1.851965000">
        <ele>244.30</ele>
        <time>2014-06-29T08:45:05Z</time>
      </trkpt>
      <trkpt lat="41.554088000" lon="1.851999000">
        <ele>243.90</ele>
        <time>2014-06-29T08:45:10Z</time>
      </trkpt>
      <trkpt lat="41.554066000" lon="1.852068000">
        <ele>243.90</ele>
        <time>2014-06-29T08:45:13Z</time>
      </trkpt>
      <trkpt lat="41.554099000" lon="1.852063000">
        <ele>244.60</ele>
        <time>2014-06-29T08:45:17Z</time>
      </trkpt>
      <trkpt lat="41.554103000" lon="1.851989000">
        <ele>244.00</ele>
        <time>2014-06-29T08:45:21Z</time>
      </trkpt>
      <trkpt lat="41.554211000" lon="1.851449000">
        <ele>242.10</ele>
        <time>2014-06-29T08:45:33Z</time>
      </trkpt>
      <trkpt lat="41.554088000" lon="1.851069000">
        <ele>240.90</ele>
        <time>2014-06-29T08:45:40Z</time>
      </trkpt>
      <trkpt lat="41.554037000" lon="1.850911000">
        <ele>241.10</ele>
        <time>2014-06-29T08:45:43Z</time>
      </trkpt>
      <trkpt lat="41.553810000" lon="1.850915000">
        <ele>241.10</ele>
        <time>2014-06-29T08:45:50Z</time>
      </trkpt>
      <trkpt lat="41.553665000" lon="1.851028000">
        <ele>241.40</ele>
        <time>2014-06-29T08:45:54Z</time>
      </trkpt>
      <trkpt lat="41.553526000" lon="1.851018000">
        <ele>241.80</ele>
        <time>2014-06-29T08:45:57Z</time>
      </trkpt>
      <trkpt lat="41.553376000" lon="1.850950000">
        <ele>240.50</ele>
        <time>2014-06-29T08:46:01Z</time>
      </trkpt>
      <trkpt lat="41.553340000" lon="1.850723000">
        <ele>238.90</ele>
        <time>2014-06-29T08:46:08Z</time>
      </trkpt>
      <trkpt lat="41.553282000" lon="1.850560000">
        <ele>234.80</ele>
        <time>2014-06-29T08:46:11Z</time>
      </trkpt>
      <trkpt lat="41.553249000" lon="1.850294000">
        <ele>234.00</ele>
        <time>2014-06-29T08:46:15Z</time>
      </trkpt>
      <trkpt lat="41.553338000" lon="1.849459000">
        <ele>235.20</ele>
        <time>2014-06-29T08:46:30Z</time>
      </trkpt>
      <trkpt lat="41.553496000" lon="1.849307000">
        <ele>237.10</ele>
        <time>2014-06-29T08:46:35Z</time>
      </trkpt>
      <trkpt lat="41.553668000" lon="1.849323000">
        <ele>236.30</ele>
        <time>2014-06-29T08:46:39Z</time>
      </trkpt>
      <trkpt lat="41.553851000" lon="1.849239000">
        <ele>237.20</ele>
        <time>2014-06-29T08:46:44Z</time>
      </trkpt>
      <trkpt lat="41.554001000" lon="1.849081000">
        <ele>238.10</ele>
        <time>2014-06-29T08:46:49Z</time>
      </trkpt>
      <trkpt lat="41.554495000" lon="1.848443000">
        <ele>242.30</ele>
        <time>2014-06-29T08:47:08Z</time>
      </trkpt>
      <trkpt lat="41.554513000" lon="1.848402000">
        <ele>242.10</ele>
        <time>2014-06-29T08:47:09Z</time>
      </trkpt>
      <trkpt lat="41.554397000" lon="1.848030000">
        <ele>240.60</ele>
        <time>2014-06-29T08:47:18Z</time>
      </trkpt>
      <trkpt lat="41.554310000" lon="1.847791000">
        <ele>241.60</ele>
        <time>2014-06-29T08:47:23Z</time>
      </trkpt>
      <trkpt lat="41.554061000" lon="1.847072000">
        <ele>240.90</ele>
        <time>2014-06-29T08:47:37Z</time>
      </trkpt>
      <trkpt lat="41.553965000" lon="1.846885000">
        <ele>241.10</ele>
        <time>2014-06-29T08:47:41Z</time>
      </trkpt>
      <trkpt lat="41.553664000" lon="1.846570000">
        <ele>241.90</ele>
        <time>2014-06-29T08:47:51Z</time>
      </trkpt>
      <trkpt lat="41.553656000" lon="1.845918000">
        <ele>241.90</ele>
        <time>2014-06-29T08:48:05Z</time>
      </trkpt>
      <trkpt lat="41.553726000" lon="1.845192000">
        <ele>245.00</ele>
        <time>2014-06-29T08:48:24Z</time>
      </trkpt>
      <trkpt lat="41.553859000" lon="1.844303000">
        <ele>248.10</ele>
        <time>2014-06-29T08:48:47Z</time>
      </trkpt>
      <trkpt lat="41.553989000" lon="1.843532000">
        <ele>249.30</ele>
        <time>2014-06-29T08:49:07Z</time>
      </trkpt>
      <trkpt lat="41.554108000" lon="1.843009000">
        <ele>251.60</ele>
        <time>2014-06-29T08:49:21Z</time>
      </trkpt>
      <trkpt lat="41.554233000" lon="1.842662000">
        <ele>252.10</ele>
        <time>2014-06-29T08:49:31Z</time>
      </trkpt>
      <trkpt lat="41.554225000" lon="1.842521000">
        <ele>252.20</ele>
        <time>2014-06-29T08:49:35Z</time>
      </trkpt>
      <trkpt lat="41.554256000" lon="1.842344000">
        <ele>252.10</ele>
        <time>2014-06-29T08:49:39Z</time>
      </trkpt>
      <trkpt lat="41.554444000" lon="1.841865000">
        <ele>255.10</ele>
        <time>2014-06-29T08:49:53Z</time>
      </trkpt>
      <trkpt lat="41.554753000" lon="1.841128000">
        <ele>256.80</ele>
        <time>2014-06-29T08:50:14Z</time>
      </trkpt>
      <trkpt lat="41.555028000" lon="1.840375000">
        <ele>259.80</ele>
        <time>2014-06-29T08:50:35Z</time>
      </trkpt>
      <trkpt lat="41.555097000" lon="1.839814000">
        <ele>261.40</ele>
        <time>2014-06-29T08:50:50Z</time>
      </trkpt>
      <trkpt lat="41.554819000" lon="1.839452000">
        <ele>261.70</ele>
        <time>2014-06-29T08:51:02Z</time>
      </trkpt>
      <trkpt lat="41.554646000" lon="1.839378000">
        <ele>260.90</ele>
        <time>2014-06-29T08:51:07Z</time>
      </trkpt>
      <trkpt lat="41.554500000" lon="1.839430000">
        <ele>259.50</ele>
        <time>2014-06-29T08:51:10Z</time>
      </trkpt>
      <trkpt lat="41.554404000" lon="1.839553000">
        <ele>257.30</ele>
        <time>2014-06-29T08:51:12Z</time>
      </trkpt>
      <trkpt lat="41.554193000" lon="1.839909000">
        <ele>253.60</ele>
        <time>2014-06-29T08:51:16Z</time>
      </trkpt>
      <trkpt lat="41.553967000" lon="1.840310000">
        <ele>251.80</ele>
        <time>2014-06-29T08:51:20Z</time>
      </trkpt>
      <trkpt lat="41.553848000" lon="1.840477000">
        <ele>251.30</ele>
        <time>2014-06-29T08:51:22Z</time>
      </trkpt>
      <trkpt lat="41.553763000" lon="1.840808000">
        <ele>249.10</ele>
        <time>2014-06-29T08:51:26Z</time>
      </trkpt>
      <trkpt lat="41.553769000" lon="1.840998000">
        <ele>248.80</ele>
        <time>2014-06-29T08:51:28Z</time>
      </trkpt>
      <trkpt lat="41.553451000" lon="1.841629000">
        <ele>251.10</ele>
        <time>2014-06-29T08:51:38Z</time>
      </trkpt>
      <trkpt lat="41.553284000" lon="1.841947000">
        <ele>250.50</ele>
        <time>2014-06-29T08:51:44Z</time>
      </trkpt>
      <trkpt lat="41.552968000" lon="1.842447000">
        <ele>250.20</ele>
        <time>2014-06-29T08:51:54Z</time>
      </trkpt>
      <trkpt lat="41.552776000" lon="1.842435000">
        <ele>251.90</ele>
        <time>2014-06-29T08:52:00Z</time>
      </trkpt>
      <trkpt lat="41.552451000" lon="1.842085000">
        <ele>251.60</ele>
        <time>2014-06-29T08:52:12Z</time>
      </trkpt>
      <trkpt lat="41.552463000" lon="1.841913000">
        <ele>252.50</ele>
        <time>2014-06-29T08:52:17Z</time>
      </trkpt>
      <trkpt lat="41.552810000" lon="1.841338000">
        <ele>255.00</ele>
        <time>2014-06-29T08:52:34Z</time>
      </trkpt>
      <trkpt lat="41.552981000" lon="1.841091000">
        <ele>251.90</ele>
        <time>2014-06-29T08:52:41Z</time>
      </trkpt>
      <trkpt lat="41.553481000" lon="1.840274000">
        <ele>253.40</ele>
        <time>2014-06-29T08:53:01Z</time>
      </trkpt>
      <trkpt lat="41.553655000" lon="1.839939000">
        <ele>255.20</ele>
        <time>2014-06-29T08:53:10Z</time>
      </trkpt>
      <trkpt lat="41.553697000" lon="1.839878000">
        <ele>254.00</ele>
        <time>2014-06-29T08:53:12Z</time>
      </trkpt>
      <trkpt lat="41.553889000" lon="1.839273000">
        <ele>257.30</ele>
        <time>2014-06-29T08:53:27Z</time>
      </trkpt>
      <trkpt lat="41.553940000" lon="1.838436000">
        <ele>259.00</ele>
        <time>2014-06-29T08:53:44Z</time>
      </trkpt>
      <trkpt lat="41.554083000" lon="1.837939000">
        <ele>261.70</ele>
        <time>2014-06-29T08:53:57Z</time>
      </trkpt>
      <trkpt lat="41.554131000" lon="1.837710000">
        <ele>263.10</ele>
        <time>2014-06-29T08:54:03Z</time>
      </trkpt>
      <trkpt lat="41.554174000" lon="1.836983000">
        <ele>265.90</ele>
        <time>2014-06-29T08:54:21Z</time>
      </trkpt>
      <trkpt lat="41.554272000" lon="1.836497000">
        <ele>267.50</ele>
        <time>2014-06-29T08:54:34Z</time>
      </trkpt>
      <trkpt lat="41.554373000" lon="1.836060000">
        <ele>269.60</ele>
        <time>2014-06-29T08:54:46Z</time>
      </trkpt>
      <trkpt lat="41.554515000" lon="1.835963000">
        <ele>270.70</ele>
        <time>2014-06-29T08:54:52Z</time>
      </trkpt>
      <trkpt lat="41.554666000" lon="1.835573000">
        <ele>272.40</ele>
        <time>2014-06-29T08:55:04Z</time>
      </trkpt>
      <trkpt lat="41.554864000" lon="1.835103000">
        <ele>273.10</ele>
        <time>2014-06-29T08:55:18Z</time>
      </trkpt>
      <trkpt lat="41.554991000" lon="1.834814000">
        <ele>274.40</ele>
        <time>2014-06-29T08:55:27Z</time>
      </trkpt>
      <trkpt lat="41.555086000" lon="1.834306000">
        <ele>275.60</ele>
        <time>2014-06-29T08:55:41Z</time>
      </trkpt>
      <trkpt lat="41.555140000" lon="1.833969000">
        <ele>277.10</ele>
        <time>2014-06-29T08:55:51Z</time>
      </trkpt>
      <trkpt lat="41.555164000" lon="1.833852000">
        <ele>277.80</ele>
        <time>2014-06-29T08:55:54Z</time>
      </trkpt>
      <trkpt lat="41.555154000" lon="1.833670000">
        <ele>277.90</ele>
        <time>2014-06-29T08:55:59Z</time>
      </trkpt>
      <trkpt lat="41.555278000" lon="1.833540000">
        <ele>278.70</ele>
        <time>2014-06-29T08:56:05Z</time>
      </trkpt>
      <trkpt lat="41.555351000" lon="1.833361000">
        <ele>279.60</ele>
        <time>2014-06-29T08:56:11Z</time>
      </trkpt>
      <trkpt lat="41.555662000" lon="1.833056000">
        <ele>280.80</ele>
        <time>2014-06-29T08:56:25Z</time>
      </trkpt>
      <trkpt lat="41.555931000" lon="1.832548000">
        <ele>282.60</ele>
        <time>2014-06-29T08:56:41Z</time>
      </trkpt>
      <trkpt lat="41.556217000" lon="1.831943000">
        <ele>285.10</ele>
        <time>2014-06-29T08:57:01Z</time>
      </trkpt>
      <trkpt lat="41.556394000" lon="1.831515000">
        <ele>286.80</ele>
        <time>2014-06-29T08:57:15Z</time>
      </trkpt>
      <trkpt lat="41.556463000" lon="1.831069000">
        <ele>287.70</ele>
        <time>2014-06-29T08:57:28Z</time>
      </trkpt>
      <trkpt lat="41.556658000" lon="1.830530000">
        <ele>288.90</ele>
        <time>2014-06-29T08:57:44Z</time>
      </trkpt>
      <trkpt lat="41.556979000" lon="1.829742000">
        <ele>291.80</ele>
        <time>2014-06-29T08:58:07Z</time>
      </trkpt>
      <trkpt lat="41.557186000" lon="1.829235000">
        <ele>293.10</ele>
        <time>2014-06-29T08:58:22Z</time>
      </trkpt>
      <trkpt lat="41.557295000" lon="1.828552000">
        <ele>295.50</ele>
        <time>2014-06-29T08:58:41Z</time>
      </trkpt>
      <trkpt lat="41.557529000" lon="1.827834000">
        <ele>297.10</ele>
        <time>2014-06-29T08:59:01Z</time>
      </trkpt>
      <trkpt lat="41.557731000" lon="1.827262000">
        <ele>298.40</ele>
        <time>2014-06-29T08:59:17Z</time>
      </trkpt>
      <trkpt lat="41.557965000" lon="1.826601000">
        <ele>301.50</ele>
        <time>2014-06-29T08:59:36Z</time>
      </trkpt>
      <trkpt lat="41.558213000" lon="1.825964000">
        <ele>304.20</ele>
        <time>2014-06-29T08:59:55Z</time>
      </trkpt>
      <trkpt lat="41.558459000" lon="1.825189000">
        <ele>306.30</ele>
        <time>2014-06-29T09:00:17Z</time>
      </trkpt>
      <trkpt lat="41.558383000" lon="1.824644000">
        <ele>307.70</ele>
        <time>2014-06-29T09:00:32Z</time>
      </trkpt>
      <trkpt lat="41.558258000" lon="1.823938000">
        <ele>310.40</ele>
        <time>2014-06-29T09:00:52Z</time>
      </trkpt>
      <trkpt lat="41.558144000" lon="1.823223000">
        <ele>313.00</ele>
        <time>2014-06-29T09:01:12Z</time>
      </trkpt>
      <trkpt lat="41.558035000" lon="1.822615000">
        <ele>316.00</ele>
        <time>2014-06-29T09:01:30Z</time>
      </trkpt>
      <trkpt lat="41.558184000" lon="1.822370000">
        <ele>317.50</ele>
        <time>2014-06-29T09:01:42Z</time>
      </trkpt>
      <trkpt lat="41.558639000" lon="1.821951000">
        <ele>317.60</ele>
        <time>2014-06-29T09:01:58Z</time>
      </trkpt>
      <trkpt lat="41.558979000" lon="1.821393000">
        <ele>317.40</ele>
        <time>2014-06-29T09:02:12Z</time>
      </trkpt>
      <trkpt lat="41.559367000" lon="1.820380000">
        <ele>319.20</ele>
        <time>2014-06-29T09:02:35Z</time>
      </trkpt>
      <trkpt lat="41.559660000" lon="1.819445000">
        <ele>319.00</ele>
        <time>2014-06-29T09:02:55Z</time>
      </trkpt>
      <trkpt lat="41.559996000" lon="1.818498000">
        <ele>319.10</ele>
        <time>2014-06-29T09:03:17Z</time>
      </trkpt>
      <trkpt lat="41.560139000" lon="1.817821000">
        <ele>318.00</ele>
        <time>2014-06-29T09:03:30Z</time>
      </trkpt>
      <trkpt lat="41.560158000" lon="1.817458000">
        <ele>318.60</ele>
        <time>2014-06-29T09:03:37Z</time>
      </trkpt>
      <trkpt lat="41.560262000" lon="1.817408000">
        <ele>319.70</ele>
        <time>2014-06-29T09:03:41Z</time>
      </trkpt>
      <trkpt lat="41.560505000" lon="1.817467000">
        <ele>321.10</ele>
        <time>2014-06-29T09:03:49Z</time>
      </trkpt>
      <trkpt lat="41.560563000" lon="1.817368000">
        <ele>321.60</ele>
        <time>2014-06-29T09:03:53Z</time>
      </trkpt>
      <trkpt lat="41.560623000" lon="1.816600000">
        <ele>324.80</ele>
        <time>2014-06-29T09:04:15Z</time>
      </trkpt>
      <trkpt lat="41.560708000" lon="1.815972000">
        <ele>328.00</ele>
        <time>2014-06-29T09:04:33Z</time>
      </trkpt>
      <trkpt lat="41.560840000" lon="1.815369000">
        <ele>329.80</ele>
        <time>2014-06-29T09:04:51Z</time>
      </trkpt>
      <trkpt lat="41.560988000" lon="1.814679000">
        <ele>333.10</ele>
        <time>2014-06-29T09:05:11Z</time>
      </trkpt>
      <trkpt lat="41.561081000" lon="1.813961000">
        <ele>336.00</ele>
        <time>2014-06-29T09:05:32Z</time>
      </trkpt>
      <trkpt lat="41.561292000" lon="1.813648000">
        <ele>338.90</ele>
        <time>2014-06-29T09:05:45Z</time>
      </trkpt>
      <trkpt lat="41.561398000" lon="1.813548000">
        <ele>339.30</ele>
        <time>2014-06-29T09:05:50Z</time>
      </trkpt>
      <trkpt lat="41.561480000" lon="1.813608000">
        <ele>339.30</ele>
        <time>2014-06-29T09:05:54Z</time>
      </trkpt>
      <trkpt lat="41.561579000" lon="1.813575000">
        <ele>340.00</ele>
        <time>2014-06-29T09:06:00Z</time>
      </trkpt>
      <trkpt lat="41.561940000" lon="1.813549000">
        <ele>342.10</ele>
        <time>2014-06-29T09:06:15Z</time>
      </trkpt>
      <trkpt lat="41.562406000" lon="1.813482000">
        <ele>342.80</ele>
        <time>2014-06-29T09:06:34Z</time>
      </trkpt>
      <trkpt lat="41.562598000" lon="1.813318000">
        <ele>345.30</ele>
        <time>2014-06-29T09:06:45Z</time>
      </trkpt>
      <trkpt lat="41.562650000" lon="1.813314000">
        <ele>346.00</ele>
        <time>2014-06-29T09:06:50Z</time>
      </trkpt>
      <trkpt lat="41.562714000" lon="1.813219000">
        <ele>345.60</ele>
        <time>2014-06-29T09:06:56Z</time>
      </trkpt>
      <trkpt lat="41.562982000" lon="1.813014000">
        <ele>348.10</ele>
        <time>2014-06-29T09:07:12Z</time>
      </trkpt>
      <trkpt lat="41.563081000" lon="1.812910000">
        <ele>347.60</ele>
        <time>2014-06-29T09:07:18Z</time>
      </trkpt>
      <trkpt lat="41.563075000" lon="1.812859000">
        <ele>349.10</ele>
        <time>2014-06-29T09:07:21Z</time>
      </trkpt>
      <trkpt lat="41.563034000" lon="1.812872000">
        <ele>349.00</ele>
        <time>2014-06-29T09:07:39Z</time>
      </trkpt>
      <trkpt lat="41.563039000" lon="1.812873000">
        <ele>352.10</ele>
        <time>2014-06-29T09:17:15Z</time>
      </trkpt>
      <trkpt lat="41.563040000" lon="1.812871000">
        <ele>352.10</ele>
        <time>2014-06-29T09:19:11Z</time>
      </trkpt>
      <trkpt lat="41.563115000" lon="1.812879000">
        <ele>351.80</ele>
        <time>2014-06-29T09:19:17Z</time>
      </trkpt>
      <trkpt lat="41.563546000" lon="1.812483000">
        <ele>355.10</ele>
        <time>2014-06-29T09:19:38Z</time>
      </trkpt>
      <trkpt lat="41.564127000" lon="1.811902000">
        <ele>358.10</ele>
        <time>2014-06-29T09:20:07Z</time>
      </trkpt>
      <trkpt lat="41.564523000" lon="1.811451000">
        <ele>361.20</ele>
        <time>2014-06-29T09:20:27Z</time>
      </trkpt>
      <trkpt lat="41.564971000" lon="1.810895000">
        <ele>364.30</ele>
        <time>2014-06-29T09:20:50Z</time>
      </trkpt>
      <trkpt lat="41.565334000" lon="1.810419000">
        <ele>367.00</ele>
        <time>2014-06-29T09:21:09Z</time>
      </trkpt>
      <trkpt lat="41.565680000" lon="1.809974000">
        <ele>369.30</ele>
        <time>2014-06-29T09:21:27Z</time>
      </trkpt>
      <trkpt lat="41.566117000" lon="1.809462000">
        <ele>370.90</ele>
        <time>2014-06-29T09:21:48Z</time>
      </trkpt>
      <trkpt lat="41.566414000" lon="1.808978000">
        <ele>372.40</ele>
        <time>2014-06-29T09:22:06Z</time>
      </trkpt>
      <trkpt lat="41.566433000" lon="1.808823000">
        <ele>372.70</ele>
        <time>2014-06-29T09:22:11Z</time>
      </trkpt>
      <trkpt lat="41.566396000" lon="1.808755000">
        <ele>372.80</ele>
        <time>2014-06-29T09:22:15Z</time>
      </trkpt>
      <trkpt lat="41.566359000" lon="1.808652000">
        <ele>371.80</ele>
        <time>2014-06-29T09:22:26Z</time>
      </trkpt>
      <trkpt lat="41.566321000" lon="1.808561000">
        <ele>370.10</ele>
        <time>2014-06-29T09:22:28Z</time>
      </trkpt>
      <trkpt lat="41.566387000" lon="1.808244000">
        <ele>366.70</ele>
        <time>2014-06-29T09:22:33Z</time>
      </trkpt>
      <trkpt lat="41.566484000" lon="1.808198000">
        <ele>366.30</ele>
        <time>2014-06-29T09:22:35Z</time>
      </trkpt>
      <trkpt lat="41.566660000" lon="1.808206000">
        <ele>368.10</ele>
        <time>2014-06-29T09:22:39Z</time>
      </trkpt>
      <trkpt lat="41.566989000" lon="1.808203000">
        <ele>370.40</ele>
        <time>2014-06-29T09:22:51Z</time>
      </trkpt>
      <trkpt lat="41.567132000" lon="1.808132000">
        <ele>371.40</ele>
        <time>2014-06-29T09:23:01Z</time>
      </trkpt>
      <trkpt lat="41.567682000" lon="1.808264000">
        <ele>374.80</ele>
        <time>2014-06-29T09:23:10Z</time>
      </trkpt>
      <trkpt lat="41.567732000" lon="1.808226000">
        <ele>375.60</ele>
        <time>2014-06-29T09:23:12Z</time>
      </trkpt>
      <trkpt lat="41.567844000" lon="1.808198000">
        <ele>377.50</ele>
        <time>2014-06-29T09:23:16Z</time>
      </trkpt>
      <trkpt lat="41.567932000" lon="1.808214000">
        <ele>377.90</ele>
        <time>2014-06-29T09:23:19Z</time>
      </trkpt>
      <trkpt lat="41.568047000" lon="1.808171000">
        <ele>377.70</ele>
        <time>2014-06-29T09:23:22Z</time>
      </trkpt>
      <trkpt lat="41.568098000" lon="1.808101000">
        <ele>378.60</ele>
        <time>2014-06-29T09:23:25Z</time>
      </trkpt>
      <trkpt lat="41.568481000" lon="1.807773000">
        <ele>380.60</ele>
        <time>2014-06-29T09:23:41Z</time>
      </trkpt>
      <trkpt lat="41.568823000" lon="1.807367000">
        <ele>383.60</ele>
        <time>2014-06-29T09:23:58Z</time>
      </trkpt>
      <trkpt lat="41.569114000" lon="1.807263000">
        <ele>385.40</ele>
        <time>2014-06-29T09:24:11Z</time>
      </trkpt>
      <trkpt lat="41.569224000" lon="1.807385000">
        <ele>385.70</ele>
        <time>2014-06-29T09:24:16Z</time>
      </trkpt>
      <trkpt lat="41.569565000" lon="1.807712000">
        <ele>387.50</ele>
        <time>2014-06-29T09:24:31Z</time>
      </trkpt>
      <trkpt lat="41.569888000" lon="1.808110000">
        <ele>389.10</ele>
        <time>2014-06-29T09:24:46Z</time>
      </trkpt>
      <trkpt lat="41.569945000" lon="1.808060000">
        <ele>388.60</ele>
        <time>2014-06-29T09:24:50Z</time>
      </trkpt>
      <trkpt lat="41.569947000" lon="1.807966000">
        <ele>387.50</ele>
        <time>2014-06-29T09:24:52Z</time>
      </trkpt>
      <trkpt lat="41.569873000" lon="1.807437000">
        <ele>388.40</ele>
        <time>2014-06-29T09:25:03Z</time>
      </trkpt>
      <trkpt lat="41.569693000" lon="1.806894000">
        <ele>389.30</ele>
        <time>2014-06-29T09:25:16Z</time>
      </trkpt>
      <trkpt lat="41.569551000" lon="1.806660000">
        <ele>390.30</ele>
        <time>2014-06-29T09:25:24Z</time>
      </trkpt>
      <trkpt lat="41.569462000" lon="1.806518000">
        <ele>390.90</ele>
        <time>2014-06-29T09:25:29Z</time>
      </trkpt>
      <trkpt lat="41.569340000" lon="1.806507000">
        <ele>389.50</ele>
        <time>2014-06-29T09:25:34Z</time>
      </trkpt>
      <trkpt lat="41.569309000" lon="1.806540000">
        <ele>389.60</ele>
        <time>2014-06-29T09:25:48Z</time>
      </trkpt>
      <trkpt lat="41.569328000" lon="1.806488000">
        <ele>389.40</ele>
        <time>2014-06-29T09:25:52Z</time>
      </trkpt>
      <trkpt lat="41.569366000" lon="1.806447000">
        <ele>389.60</ele>
        <time>2014-06-29T09:25:54Z</time>
      </trkpt>
      <trkpt lat="41.569424000" lon="1.806397000">
        <ele>391.00</ele>
        <time>2014-06-29T09:25:59Z</time>
      </trkpt>
      <trkpt lat="41.569443000" lon="1.806412000">
        <ele>391.20</ele>
        <time>2014-06-29T09:26:01Z</time>
      </trkpt>
      <trkpt lat="41.569506000" lon="1.806429000">
        <ele>391.30</ele>
        <time>2014-06-29T09:26:05Z</time>
      </trkpt>
      <trkpt lat="41.569646000" lon="1.806429000">
        <ele>391.80</ele>
        <time>2014-06-29T09:26:12Z</time>
      </trkpt>
      <trkpt lat="41.569699000" lon="1.806467000">
        <ele>391.50</ele>
        <time>2014-06-29T09:26:15Z</time>
      </trkpt>
      <trkpt lat="41.569756000" lon="1.806570000">
        <ele>391.20</ele>
        <time>2014-06-29T09:26:20Z</time>
      </trkpt>
      <trkpt lat="41.569949000" lon="1.806501000">
        <ele>391.70</ele>
        <time>2014-06-29T09:26:30Z</time>
      </trkpt>
      <trkpt lat="41.570218000" lon="1.806328000">
        <ele>393.00</ele>
        <time>2014-06-29T09:26:40Z</time>
      </trkpt>
      <trkpt lat="41.570530000" lon="1.806125000">
        <ele>394.70</ele>
        <time>2014-06-29T09:26:53Z</time>
      </trkpt>
      <trkpt lat="41.570757000" lon="1.805986000">
        <ele>396.50</ele>
        <time>2014-06-29T09:27:02Z</time>
      </trkpt>
      <trkpt lat="41.570810000" lon="1.805816000">
        <ele>397.40</ele>
        <time>2014-06-29T09:27:08Z</time>
      </trkpt>
      <trkpt lat="41.570776000" lon="1.805762000">
        <ele>397.40</ele>
        <time>2014-06-29T09:27:10Z</time>
      </trkpt>
      <trkpt lat="41.570761000" lon="1.805659000">
        <ele>397.60</ele>
        <time>2014-06-29T09:27:13Z</time>
      </trkpt>
      <trkpt lat="41.570706000" lon="1.805529000">
        <ele>397.50</ele>
        <time>2014-06-29T09:27:17Z</time>
      </trkpt>
      <trkpt lat="41.570691000" lon="1.805448000">
        <ele>397.70</ele>
        <time>2014-06-29T09:27:19Z</time>
      </trkpt>
      <trkpt lat="41.570742000" lon="1.805287000">
        <ele>398.50</ele>
        <time>2014-06-29T09:27:24Z</time>
      </trkpt>
      <trkpt lat="41.570787000" lon="1.805014000">
        <ele>399.50</ele>
        <time>2014-06-29T09:27:33Z</time>
      </trkpt>
      <trkpt lat="41.570829000" lon="1.804900000">
        <ele>400.30</ele>
        <time>2014-06-29T09:27:37Z</time>
      </trkpt>
      <trkpt lat="41.570852000" lon="1.804739000">
        <ele>400.70</ele>
        <time>2014-06-29T09:27:43Z</time>
      </trkpt>
      <trkpt lat="41.570932000" lon="1.804585000">
        <ele>401.30</ele>
        <time>2014-06-29T09:27:49Z</time>
      </trkpt>
      <trkpt lat="41.570994000" lon="1.804520000">
        <ele>402.30</ele>
        <time>2014-06-29T09:27:52Z</time>
      </trkpt>
      <trkpt lat="41.571081000" lon="1.804259000">
        <ele>403.40</ele>
        <time>2014-06-29T09:28:01Z</time>
      </trkpt>
      <trkpt lat="41.571239000" lon="1.804106000">
        <ele>404.50</ele>
        <time>2014-06-29T09:28:09Z</time>
      </trkpt>
      <trkpt lat="41.571533000" lon="1.803799000">
        <ele>405.20</ele>
        <time>2014-06-29T09:28:22Z</time>
      </trkpt>
      <trkpt lat="41.571691000" lon="1.803578000">
        <ele>406.00</ele>
        <time>2014-06-29T09:28:29Z</time>
      </trkpt>
      <trkpt lat="41.571919000" lon="1.803355000">
        <ele>408.30</ele>
        <time>2014-06-29T09:28:39Z</time>
      </trkpt>
      <trkpt lat="41.572168000" lon="1.803089000">
        <ele>410.60</ele>
        <time>2014-06-29T09:28:52Z</time>
      </trkpt>
      <trkpt lat="41.572446000" lon="1.802766000">
        <ele>412.90</ele>
        <time>2014-06-29T09:29:08Z</time>
      </trkpt>
      <trkpt lat="41.572639000" lon="1.802497000">
        <ele>414.00</ele>
        <time>2014-06-29T09:29:20Z</time>
      </trkpt>
      <trkpt lat="41.572958000" lon="1.802143000">
        <ele>415.90</ele>
        <time>2014-06-29T09:29:37Z</time>
      </trkpt>
      <trkpt lat="41.573207000" lon="1.801863000">
        <ele>417.40</ele>
        <time>2014-06-29T09:29:49Z</time>
      </trkpt>
      <trkpt lat="41.573551000" lon="1.801526000">
        <ele>419.00</ele>
        <time>2014-06-29T09:30:06Z</time>
      </trkpt>
      <trkpt lat="41.573897000" lon="1.801192000">
        <ele>421.40</ele>
        <time>2014-06-29T09:30:23Z</time>
      </trkpt>
      <trkpt lat="41.574142000" lon="1.801097000">
        <ele>422.40</ele>
        <time>2014-06-29T09:30:33Z</time>
      </trkpt>
      <trkpt lat="41.574213000" lon="1.800666000">
        <ele>422.40</ele>
        <time>2014-06-29T09:30:45Z</time>
      </trkpt>
      <trkpt lat="41.574179000" lon="1.799959000">
        <ele>425.30</ele>
        <time>2014-06-29T09:31:04Z</time>
      </trkpt>
      <trkpt lat="41.574339000" lon="1.799409000">
        <ele>426.70</ele>
        <time>2014-06-29T09:31:19Z</time>
      </trkpt>
      <trkpt lat="41.574500000" lon="1.798711000">
        <ele>428.50</ele>
        <time>2014-06-29T09:31:37Z</time>
      </trkpt>
      <trkpt lat="41.574744000" lon="1.797705000">
        <ele>427.60</ele>
        <time>2014-06-29T09:32:00Z</time>
      </trkpt>
      <trkpt lat="41.574948000" lon="1.796922000">
        <ele>426.80</ele>
        <time>2014-06-29T09:32:17Z</time>
      </trkpt>
      <trkpt lat="41.575000000" lon="1.796711000">
        <ele>426.30</ele>
        <time>2014-06-29T09:32:22Z</time>
      </trkpt>
      <trkpt lat="41.575098000" lon="1.796169000">
        <ele>426.10</ele>
        <time>2014-06-29T09:32:34Z</time>
      </trkpt>
      <trkpt lat="41.575161000" lon="1.795488000">
        <ele>426.70</ele>
        <time>2014-06-29T09:32:49Z</time>
      </trkpt>
      <trkpt lat="41.575188000" lon="1.795054000">
        <ele>429.40</ele>
        <time>2014-06-29T09:33:00Z</time>
      </trkpt>
      <trkpt lat="41.575166000" lon="1.794515000">
        <ele>430.80</ele>
        <time>2014-06-29T09:33:14Z</time>
      </trkpt>
      <trkpt lat="41.575170000" lon="1.794401000">
        <ele>432.20</ele>
        <time>2014-06-29T09:33:18Z</time>
      </trkpt>
      <trkpt lat="41.575078000" lon="1.794203000">
        <ele>435.20</ele>
        <time>2014-06-29T09:33:25Z</time>
      </trkpt>
      <trkpt lat="41.575016000" lon="1.793662000">
        <ele>436.70</ele>
        <time>2014-06-29T09:33:42Z</time>
      </trkpt>
      <trkpt lat="41.575063000" lon="1.793195000">
        <ele>437.90</ele>
        <time>2014-06-29T09:33:55Z</time>
      </trkpt>
      <trkpt lat="41.575190000" lon="1.792680000">
        <ele>440.30</ele>
        <time>2014-06-29T09:34:10Z</time>
      </trkpt>
      <trkpt lat="41.575246000" lon="1.792417000">
        <ele>439.60</ele>
        <time>2014-06-29T09:34:16Z</time>
      </trkpt>
      <trkpt lat="41.575290000" lon="1.791929000">
        <ele>435.40</ele>
        <time>2014-06-29T09:34:25Z</time>
      </trkpt>
      <trkpt lat="41.575332000" lon="1.791815000">
        <ele>432.30</ele>
        <time>2014-06-29T09:34:28Z</time>
      </trkpt>
      <trkpt lat="41.575367000" lon="1.791738000">
        <ele>431.40</ele>
        <time>2014-06-29T09:34:32Z</time>
      </trkpt>
      <trkpt lat="41.575350000" lon="1.791635000">
        <ele>431.60</ele>
        <time>2014-06-29T09:34:44Z</time>
      </trkpt>
      <trkpt lat="41.575282000" lon="1.791697000">
        <ele>432.10</ele>
        <time>2014-06-29T09:35:47Z</time>
      </trkpt>
      <trkpt lat="41.575279000" lon="1.791696000">
        <ele>432.50</ele>
        <time>2014-06-29T09:37:24Z</time>
      </trkpt>
      <trkpt lat="41.574987000" lon="1.791708000">
        <ele>432.60</ele>
        <time>2014-06-29T09:37:38Z</time>
      </trkpt>
      <trkpt lat="41.574826000" lon="1.791614000">
        <ele>431.70</ele>
        <time>2014-06-29T09:37:49Z</time>
      </trkpt>
      <trkpt lat="41.574585000" lon="1.791465000">
        <ele>429.30</ele>
        <time>2014-06-29T09:37:57Z</time>
      </trkpt>
      <trkpt lat="41.574277000" lon="1.791365000">
        <ele>426.20</ele>
        <time>2014-06-29T09:38:04Z</time>
      </trkpt>
      <trkpt lat="41.574253000" lon="1.791361000">
        <ele>426.40</ele>
        <time>2014-06-29T09:38:05Z</time>
      </trkpt>
      <trkpt lat="41.574205000" lon="1.791286000">
        <ele>425.30</ele>
        <time>2014-06-29T09:38:09Z</time>
      </trkpt>
      <trkpt lat="41.574048000" lon="1.791075000">
        <ele>424.60</ele>
        <time>2014-06-29T09:38:21Z</time>
      </trkpt>
      <trkpt lat="41.573977000" lon="1.790857000">
        <ele>420.90</ele>
        <time>2014-06-29T09:38:25Z</time>
      </trkpt>
      <trkpt lat="41.573957000" lon="1.790804000">
        <ele>420.70</ele>
        <time>2014-06-29T09:38:26Z</time>
      </trkpt>
      <trkpt lat="41.573737000" lon="1.790680000">
        <ele>420.70</ele>
        <time>2014-06-29T09:38:35Z</time>
      </trkpt>
      <trkpt lat="41.573518000" lon="1.790673000">
        <ele>423.70</ele>
        <time>2014-06-29T09:38:43Z</time>
      </trkpt>
      <trkpt lat="41.573362000" lon="1.790544000">
        <ele>426.80</ele>
        <time>2014-06-29T09:38:50Z</time>
      </trkpt>
      <trkpt lat="41.573326000" lon="1.790506000">
        <ele>427.60</ele>
        <time>2014-06-29T09:38:52Z</time>
      </trkpt>
      <trkpt lat="41.573289000" lon="1.790474000">
        <ele>428.70</ele>
        <time>2014-06-29T09:38:54Z</time>
      </trkpt>
      <trkpt lat="41.573192000" lon="1.790398000">
        <ele>431.40</ele>
        <time>2014-06-29T09:38:59Z</time>
      </trkpt>
      <trkpt lat="41.573174000" lon="1.790385000">
        <ele>431.80</ele>
        <time>2014-06-29T09:39:00Z</time>
      </trkpt>
      <trkpt lat="41.573299000" lon="1.790094000">
        <ele>432.20</ele>
        <time>2014-06-29T09:39:13Z</time>
      </trkpt>
      <trkpt lat="41.573695000" lon="1.789503000">
        <ele>435.30</ele>
        <time>2014-06-29T09:39:35Z</time>
      </trkpt>
      <trkpt lat="41.574101000" lon="1.788866000">
        <ele>438.00</ele>
        <time>2014-06-29T09:39:57Z</time>
      </trkpt>
      <trkpt lat="41.574410000" lon="1.788349000">
        <ele>441.10</ele>
        <time>2014-06-29T09:40:14Z</time>
      </trkpt>
      <trkpt lat="41.574707000" lon="1.787802000">
        <ele>444.20</ele>
        <time>2014-06-29T09:40:31Z</time>
      </trkpt>
      <trkpt lat="41.574922000" lon="1.787148000">
        <ele>447.20</ele>
        <time>2014-06-29T09:40:49Z</time>
      </trkpt>
      <trkpt lat="41.575098000" lon="1.786016000">
        <ele>449.60</ele>
        <time>2014-06-29T09:41:15Z</time>
      </trkpt>
      <trkpt lat="41.575284000" lon="1.785063000">
        <ele>452.80</ele>
        <time>2014-06-29T09:41:37Z</time>
      </trkpt>
      <trkpt lat="41.575558000" lon="1.784579000">
        <ele>455.80</ele>
        <time>2014-06-29T09:41:51Z</time>
      </trkpt>
      <trkpt lat="41.575823000" lon="1.784034000">
        <ele>459.00</ele>
        <time>2014-06-29T09:42:06Z</time>
      </trkpt>
      <trkpt lat="41.576179000" lon="1.783336000">
        <ele>461.10</ele>
        <time>2014-06-29T09:42:25Z</time>
      </trkpt>
      <trkpt lat="41.576467000" lon="1.782860000">
        <ele>464.20</ele>
        <time>2014-06-29T09:42:40Z</time>
      </trkpt>
      <trkpt lat="41.576961000" lon="1.782194000">
        <ele>466.50</ele>
        <time>2014-06-29T09:43:02Z</time>
      </trkpt>
      <trkpt lat="41.577484000" lon="1.781635000">
        <ele>469.70</ele>
        <time>2014-06-29T09:43:23Z</time>
      </trkpt>
      <trkpt lat="41.577585000" lon="1.781525000">
        <ele>471.00</ele>
        <time>2014-06-29T09:43:27Z</time>
      </trkpt>
      <trkpt lat="41.578004000" lon="1.781050000">
        <ele>474.00</ele>
        <time>2014-06-29T09:43:45Z</time>
      </trkpt>
      <trkpt lat="41.578514000" lon="1.780700000">
        <ele>476.30</ele>
        <time>2014-06-29T09:44:03Z</time>
      </trkpt>
      <trkpt lat="41.578571000" lon="1.780686000">
        <ele>475.90</ele>
        <time>2014-06-29T09:44:05Z</time>
      </trkpt>
      <trkpt lat="41.578989000" lon="1.780511000">
        <ele>477.60</ele>
        <time>2014-06-29T09:44:18Z</time>
      </trkpt>
      <trkpt lat="41.579423000" lon="1.780433000">
        <ele>479.00</ele>
        <time>2014-06-29T09:44:30Z</time>
      </trkpt>
      <trkpt lat="41.579841000" lon="1.780269000">
        <ele>480.90</ele>
        <time>2014-06-29T09:44:43Z</time>
      </trkpt>
      <trkpt lat="41.580179000" lon="1.780134000">
        <ele>484.20</ele>
        <time>2014-06-29T09:44:55Z</time>
      </trkpt>
      <trkpt lat="41.580666000" lon="1.779984000">
        <ele>486.70</ele>
        <time>2014-06-29T09:45:12Z</time>
      </trkpt>
      <trkpt lat="41.581249000" lon="1.779922000">
        <ele>489.80</ele>
        <time>2014-06-29T09:45:29Z</time>
      </trkpt>
      <trkpt lat="41.581275000" lon="1.779915000">
        <ele>490.10</ele>
        <time>2014-06-29T09:45:30Z</time>
      </trkpt>
      <trkpt lat="41.581709000" lon="1.779636000">
        <ele>493.10</ele>
        <time>2014-06-29T09:45:47Z</time>
      </trkpt>
      <trkpt lat="41.582030000" lon="1.779371000">
        <ele>495.80</ele>
        <time>2014-06-29T09:46:00Z</time>
      </trkpt>
      <trkpt lat="41.582432000" lon="1.779058000">
        <ele>498.50</ele>
        <time>2014-06-29T09:46:18Z</time>
      </trkpt>
      <trkpt lat="41.582905000" lon="1.778691000">
        <ele>501.60</ele>
        <time>2014-06-29T09:46:39Z</time>
      </trkpt>
      <trkpt lat="41.583427000" lon="1.778279000">
        <ele>503.90</ele>
        <time>2014-06-29T09:47:02Z</time>
      </trkpt>
      <trkpt lat="41.583721000" lon="1.778104000">
        <ele>507.00</ele>
        <time>2014-06-29T09:47:14Z</time>
      </trkpt>
      <trkpt lat="41.584202000" lon="1.777941000">
        <ele>510.10</ele>
        <time>2014-06-29T09:47:32Z</time>
      </trkpt>
      <trkpt lat="41.584707000" lon="1.777566000">
        <ele>512.40</ele>
        <time>2014-06-29T09:47:55Z</time>
      </trkpt>
      <trkpt lat="41.585126000" lon="1.777182000">
        <ele>514.70</ele>
        <time>2014-06-29T09:48:14Z</time>
      </trkpt>
      <trkpt lat="41.585553000" lon="1.776787000">
        <ele>518.20</ele>
        <time>2014-06-29T09:48:33Z</time>
      </trkpt>
      <trkpt lat="41.585574000" lon="1.776768000">
        <ele>518.40</ele>
        <time>2014-06-29T09:48:34Z</time>
      </trkpt>
      <trkpt lat="41.586075000" lon="1.776307000">
        <ele>521.70</ele>
        <time>2014-06-29T09:48:58Z</time>
      </trkpt>
      <trkpt lat="41.586352000" lon="1.776059000">
        <ele>525.10</ele>
        <time>2014-06-29T09:49:11Z</time>
      </trkpt>
      <trkpt lat="41.586564000" lon="1.775828000">
        <ele>528.20</ele>
        <time>2014-06-29T09:49:22Z</time>
      </trkpt>
      <trkpt lat="41.586793000" lon="1.775438000">
        <ele>530.40</ele>
        <time>2014-06-29T09:49:38Z</time>
      </trkpt>
      <trkpt lat="41.587056000" lon="1.775063000">
        <ele>532.10</ele>
        <time>2014-06-29T09:49:54Z</time>
      </trkpt>
      <trkpt lat="41.587211000" lon="1.774666000">
        <ele>534.30</ele>
        <time>2014-06-29T09:50:06Z</time>
      </trkpt>
      <trkpt lat="41.587545000" lon="1.774366000">
        <ele>537.60</ele>
        <time>2014-06-29T09:50:24Z</time>
      </trkpt>
      <trkpt lat="41.587577000" lon="1.774332000">
        <ele>538.20</ele>
        <time>2014-06-29T09:50:26Z</time>
      </trkpt>
      <trkpt lat="41.587806000" lon="1.774240000">
        <ele>541.40</ele>
        <time>2014-06-29T09:50:38Z</time>
      </trkpt>
      <trkpt lat="41.587947000" lon="1.774144000">
        <ele>544.60</ele>
        <time>2014-06-29T09:50:46Z</time>
      </trkpt>
      <trkpt lat="41.588085000" lon="1.774003000">
        <ele>548.00</ele>
        <time>2014-06-29T09:50:55Z</time>
      </trkpt>
      <trkpt lat="41.588247000" lon="1.773852000">
        <ele>551.00</ele>
        <time>2014-06-29T09:51:05Z</time>
      </trkpt>
      <trkpt lat="41.588264000" lon="1.773842000">
        <ele>551.30</ele>
        <time>2014-06-29T09:51:06Z</time>
      </trkpt>
      <trkpt lat="41.588479000" lon="1.773561000">
        <ele>551.20</ele>
        <time>2014-06-29T09:51:20Z</time>
      </trkpt>
      <trkpt lat="41.588565000" lon="1.773476000">
        <ele>551.80</ele>
        <time>2014-06-29T09:51:24Z</time>
      </trkpt>
      <trkpt lat="41.588892000" lon="1.773439000">
        <ele>553.60</ele>
        <time>2014-06-29T09:51:36Z</time>
      </trkpt>
      <trkpt lat="41.589299000" lon="1.773298000">
        <ele>556.60</ele>
        <time>2014-06-29T09:51:53Z</time>
      </trkpt>
      <trkpt lat="41.589766000" lon="1.773105000">
        <ele>559.70</ele>
        <time>2014-06-29T09:52:13Z</time>
      </trkpt>
      <trkpt lat="41.590212000" lon="1.772758000">
        <ele>563.20</ele>
        <time>2014-06-29T09:52:35Z</time>
      </trkpt>
      <trkpt lat="41.590842000" lon="1.772187000">
        <ele>566.30</ele>
        <time>2014-06-29T09:53:05Z</time>
      </trkpt>
      <trkpt lat="41.591181000" lon="1.771859000">
        <ele>569.40</ele>
        <time>2014-06-29T09:53:22Z</time>
      </trkpt>
      <trkpt lat="41.591543000" lon="1.771432000">
        <ele>572.90</ele>
        <time>2014-06-29T09:53:42Z</time>
      </trkpt>
      <trkpt lat="41.591920000" lon="1.770998000">
        <ele>576.10</ele>
        <time>2014-06-29T09:54:03Z</time>
      </trkpt>
      <trkpt lat="41.592153000" lon="1.770710000">
        <ele>579.50</ele>
        <time>2014-06-29T09:54:16Z</time>
      </trkpt>
      <trkpt lat="41.592509000" lon="1.770303000">
        <ele>582.20</ele>
        <time>2014-06-29T09:54:36Z</time>
      </trkpt>
      <trkpt lat="41.592776000" lon="1.770043000">
        <ele>585.30</ele>
        <time>2014-06-29T09:54:50Z</time>
      </trkpt>
      <trkpt lat="41.593019000" lon="1.769828000">
        <ele>588.40</ele>
        <time>2014-06-29T09:55:02Z</time>
      </trkpt>
      <trkpt lat="41.593291000" lon="1.769586000">
        <ele>591.50</ele>
        <time>2014-06-29T09:55:16Z</time>
      </trkpt>
      <trkpt lat="41.593668000" lon="1.769302000">
        <ele>594.80</ele>
        <time>2014-06-29T09:55:34Z</time>
      </trkpt>
      <trkpt lat="41.593708000" lon="1.769264000">
        <ele>595.50</ele>
        <time>2014-06-29T09:55:36Z</time>
      </trkpt>
      <trkpt lat="41.594187000" lon="1.768865000">
        <ele>597.60</ele>
        <time>2014-06-29T09:55:58Z</time>
      </trkpt>
      <trkpt lat="41.594371000" lon="1.768724000">
        <ele>598.60</ele>
        <time>2014-06-29T09:56:06Z</time>
      </trkpt>
      <trkpt lat="41.594405000" lon="1.768567000">
        <ele>599.40</ele>
        <time>2014-06-29T09:56:15Z</time>
      </trkpt>
      <trkpt lat="41.594673000" lon="1.768577000">
        <ele>600.20</ele>
        <time>2014-06-29T09:56:30Z</time>
      </trkpt>
      <trkpt lat="41.595329000" lon="1.768476000">
        <ele>603.30</ele>
        <time>2014-06-29T09:56:56Z</time>
      </trkpt>
      <trkpt lat="41.595783000" lon="1.768078000">
        <ele>605.70</ele>
        <time>2014-06-29T09:57:16Z</time>
      </trkpt>
      <trkpt lat="41.596150000" lon="1.767524000">
        <ele>608.70</ele>
        <time>2014-06-29T09:57:36Z</time>
      </trkpt>
      <trkpt lat="41.596500000" lon="1.767078000">
        <ele>611.20</ele>
        <time>2014-06-29T09:57:54Z</time>
      </trkpt>
      <trkpt lat="41.597002000" lon="1.766856000">
        <ele>613.30</ele>
        <time>2014-06-29T09:58:12Z</time>
      </trkpt>
      <trkpt lat="41.597510000" lon="1.766701000">
        <ele>615.00</ele>
        <time>2014-06-29T09:58:29Z</time>
      </trkpt>
      <trkpt lat="41.598149000" lon="1.766484000">
        <ele>617.60</ele>
        <time>2014-06-29T09:58:51Z</time>
      </trkpt>
      <trkpt lat="41.598629000" lon="1.766336000">
        <ele>620.30</ele>
        <time>2014-06-29T09:59:08Z</time>
      </trkpt>
      <trkpt lat="41.599064000" lon="1.766134000">
        <ele>622.10</ele>
        <time>2014-06-29T09:59:23Z</time>
      </trkpt>
      <trkpt lat="41.599389000" lon="1.765787000">
        <ele>622.60</ele>
        <time>2014-06-29T09:59:36Z</time>
      </trkpt>
      <trkpt lat="41.599611000" lon="1.765129000">
        <ele>625.90</ele>
        <time>2014-06-29T09:59:54Z</time>
      </trkpt>
      <trkpt lat="41.599839000" lon="1.764366000">
        <ele>628.50</ele>
        <time>2014-06-29T10:00:15Z</time>
      </trkpt>
      <trkpt lat="41.600340000" lon="1.763682000">
        <ele>626.80</ele>
        <time>2014-06-29T10:00:34Z</time>
      </trkpt>
      <trkpt lat="41.600722000" lon="1.763003000">
        <ele>624.00</ele>
        <time>2014-06-29T10:00:46Z</time>
      </trkpt>
      <trkpt lat="41.600896000" lon="1.762420000">
        <ele>622.70</ele>
        <time>2014-06-29T10:00:54Z</time>
      </trkpt>
      <trkpt lat="41.601216000" lon="1.761305000">
        <ele>619.90</ele>
        <time>2014-06-29T10:01:09Z</time>
      </trkpt>
      <trkpt lat="41.601577000" lon="1.759656000">
        <ele>618.50</ele>
        <time>2014-06-29T10:01:29Z</time>
      </trkpt>
      <trkpt lat="41.601365000" lon="1.758889000">
        <ele>621.10</ele>
        <time>2014-06-29T10:01:41Z</time>
      </trkpt>
      <trkpt lat="41.601131000" lon="1.758359000">
        <ele>624.40</ele>
        <time>2014-06-29T10:01:55Z</time>
      </trkpt>
      <trkpt lat="41.600965000" lon="1.757859000">
        <ele>627.30</ele>
        <time>2014-06-29T10:02:10Z</time>
      </trkpt>
      <trkpt lat="41.600737000" lon="1.757254000">
        <ele>629.00</ele>
        <time>2014-06-29T10:02:23Z</time>
      </trkpt>
      <trkpt lat="41.600734000" lon="1.756736000">
        <ele>627.40</ele>
        <time>2014-06-29T10:02:32Z</time>
      </trkpt>
      <trkpt lat="41.600773000" lon="1.756548000">
        <ele>627.20</ele>
        <time>2014-06-29T10:02:35Z</time>
      </trkpt>
      <trkpt lat="41.601015000" lon="1.755084000">
        <ele>623.70</ele>
        <time>2014-06-29T10:02:55Z</time>
      </trkpt>
      <trkpt lat="41.601304000" lon="1.753491000">
        <ele>622.40</ele>
        <time>2014-06-29T10:03:17Z</time>
      </trkpt>
      <trkpt lat="41.601353000" lon="1.753356000">
        <ele>622.40</ele>
        <time>2014-06-29T10:03:19Z</time>
      </trkpt>
      <trkpt lat="41.601505000" lon="1.753085000">
        <ele>620.50</ele>
        <time>2014-06-29T10:03:23Z</time>
      </trkpt>
      <trkpt lat="41.601880000" lon="1.752611000">
        <ele>616.40</ele>
        <time>2014-06-29T10:03:30Z</time>
      </trkpt>
      <trkpt lat="41.601939000" lon="1.752538000">
        <ele>616.20</ele>
        <time>2014-06-29T10:03:31Z</time>
      </trkpt>
      <trkpt lat="41.602264000" lon="1.752128000">
        <ele>612.70</ele>
        <time>2014-06-29T10:03:36Z</time>
      </trkpt>
      <trkpt lat="41.602687000" lon="1.751582000">
        <ele>609.20</ele>
        <time>2014-06-29T10:03:42Z</time>
      </trkpt>
      <trkpt lat="41.602881000" lon="1.751272000">
        <ele>607.70</ele>
        <time>2014-06-29T10:03:45Z</time>
      </trkpt>
      <trkpt lat="41.603022000" lon="1.750933000">
        <ele>608.30</ele>
        <time>2014-06-29T10:03:48Z</time>
      </trkpt>
      <trkpt lat="41.603123000" lon="1.750470000">
        <ele>607.00</ele>
        <time>2014-06-29T10:03:52Z</time>
      </trkpt>
      <trkpt lat="41.603196000" lon="1.750116000">
        <ele>605.50</ele>
        <time>2014-06-29T10:03:55Z</time>
      </trkpt>
      <trkpt lat="41.603265000" lon="1.749739000">
        <ele>603.90</ele>
        <time>2014-06-29T10:03:58Z</time>
      </trkpt>
      <trkpt lat="41.603133000" lon="1.748957000">
        <ele>604.80</ele>
        <time>2014-06-29T10:04:05Z</time>
      </trkpt>
      <trkpt lat="41.602770000" lon="1.748669000">
        <ele>607.30</ele>
        <time>2014-06-29T10:04:11Z</time>
      </trkpt>
      <trkpt lat="41.602180000" lon="1.748391000">
        <ele>609.70</ele>
        <time>2014-06-29T10:04:23Z</time>
      </trkpt>
      <trkpt lat="41.602043000" lon="1.748256000">
        <ele>611.40</ele>
        <time>2014-06-29T10:04:27Z</time>
      </trkpt>
      <trkpt lat="41.601957000" lon="1.748137000">
        <ele>612.40</ele>
        <time>2014-06-29T10:04:30Z</time>
      </trkpt>
      <trkpt lat="41.601696000" lon="1.747253000">
        <ele>614.40</ele>
        <time>2014-06-29T10:04:47Z</time>
      </trkpt>
      <trkpt lat="41.601654000" lon="1.746611000">
        <ele>617.80</ele>
        <time>2014-06-29T10:04:59Z</time>
      </trkpt>
      <trkpt lat="41.601642000" lon="1.746450000">
        <ele>619.00</ele>
        <time>2014-06-29T10:05:02Z</time>
      </trkpt>
      <trkpt lat="41.601575000" lon="1.745643000">
        <ele>622.00</ele>
        <time>2014-06-29T10:05:18Z</time>
      </trkpt>
      <trkpt lat="41.601559000" lon="1.744839000">
        <ele>620.40</ele>
        <time>2014-06-29T10:05:32Z</time>
      </trkpt>
      <trkpt lat="41.601602000" lon="1.744636000">
        <ele>619.00</ele>
        <time>2014-06-29T10:05:35Z</time>
      </trkpt>
      <trkpt lat="41.601816000" lon="1.744132000">
        <ele>615.20</ele>
        <time>2014-06-29T10:05:42Z</time>
      </trkpt>
      <trkpt lat="41.602135000" lon="1.743485000">
        <ele>612.10</ele>
        <time>2014-06-29T10:05:50Z</time>
      </trkpt>
      <trkpt lat="41.602927000" lon="1.741918000">
        <ele>612.80</ele>
        <time>2014-06-29T10:06:11Z</time>
      </trkpt>
      <trkpt lat="41.603209000" lon="1.741328000">
        <ele>610.00</ele>
        <time>2014-06-29T10:06:19Z</time>
      </trkpt>
      <trkpt lat="41.603278000" lon="1.741149000">
        <ele>608.70</ele>
        <time>2014-06-29T10:06:21Z</time>
      </trkpt>
      <trkpt lat="41.603341000" lon="1.740841000">
        <ele>605.80</ele>
        <time>2014-06-29T10:06:24Z</time>
      </trkpt>
      <trkpt lat="41.603342000" lon="1.740390000">
        <ele>604.30</ele>
        <time>2014-06-29T10:06:28Z</time>
      </trkpt>
      <trkpt lat="41.603298000" lon="1.740174000">
        <ele>603.70</ele>
        <time>2014-06-29T10:06:30Z</time>
      </trkpt>
      <trkpt lat="41.602857000" lon="1.738677000">
        <ele>602.70</ele>
        <time>2014-06-29T10:06:47Z</time>
      </trkpt>
      <trkpt lat="41.602617000" lon="1.738199000">
        <ele>603.80</ele>
        <time>2014-06-29T10:06:55Z</time>
      </trkpt>
      <trkpt lat="41.602175000" lon="1.737749000">
        <ele>604.50</ele>
        <time>2014-06-29T10:07:11Z</time>
      </trkpt>
      <trkpt lat="41.602056000" lon="1.737648000">
        <ele>604.80</ele>
        <time>2014-06-29T10:07:21Z</time>
      </trkpt>
      <trkpt lat="41.601992000" lon="1.737664000">
        <ele>604.70</ele>
        <time>2014-06-29T10:07:36Z</time>
      </trkpt>
      <trkpt lat="41.601977000" lon="1.737642000">
        <ele>604.40</ele>
        <time>2014-06-29T10:07:44Z</time>
      </trkpt>
      <trkpt lat="41.601949000" lon="1.737593000">
        <ele>604.20</ele>
        <time>2014-06-29T10:07:50Z</time>
      </trkpt>
      <trkpt lat="41.601908000" lon="1.737581000">
        <ele>604.50</ele>
        <time>2014-06-29T10:07:59Z</time>
      </trkpt>
      <trkpt lat="41.601904000" lon="1.737564000">
        <ele>604.20</ele>
        <time>2014-06-29T10:08:15Z</time>
      </trkpt>
      <trkpt lat="41.601882000" lon="1.737522000">
        <ele>605.00</ele>
        <time>2014-06-29T11:14:59Z</time>
      </trkpt>
      <trkpt lat="41.601892000" lon="1.737533000">
        <ele>608.20</ele>
        <time>2014-06-29T11:15:25Z</time>
      </trkpt>
      <trkpt lat="41.601900000" lon="1.737540000">
        <ele>609.60</ele>
        <time>2014-06-29T11:15:41Z</time>
      </trkpt>
      <trkpt lat="41.601901000" lon="1.737536000">
        <ele>610.40</ele>
        <time>2014-06-29T11:15:49Z</time>
      </trkpt>
      <trkpt lat="41.601961000" lon="1.737471000">
        <ele>610.50</ele>
        <time>2014-06-29T11:15:58Z</time>
      </trkpt>
      <trkpt lat="41.601969000" lon="1.737443000">
        <ele>610.60</ele>
        <time>2014-06-29T11:16:00Z</time>
      </trkpt>
      <trkpt lat="41.601985000" lon="1.737423000">
        <ele>610.80</ele>
        <time>2014-06-29T11:16:11Z</time>
      </trkpt>
      <trkpt lat="41.601949000" lon="1.737212000">
        <ele>610.50</ele>
        <time>2014-06-29T11:16:20Z</time>
      </trkpt>
      <trkpt lat="41.601935000" lon="1.737177000">
        <ele>610.50</ele>
        <time>2014-06-29T11:16:21Z</time>
      </trkpt>
      <trkpt lat="41.601590000" lon="1.736716000">
        <ele>609.20</ele>
        <time>2014-06-29T11:16:35Z</time>
      </trkpt>
      <trkpt lat="41.600905000" lon="1.736425000">
        <ele>611.20</ele>
        <time>2014-06-29T11:16:55Z</time>
      </trkpt>
      <trkpt lat="41.600344000" lon="1.736245000">
        <ele>614.30</ele>
        <time>2014-06-29T11:17:12Z</time>
      </trkpt>
      <trkpt lat="41.599719000" lon="1.735850000">
        <ele>617.40</ele>
        <time>2014-06-29T11:17:33Z</time>
      </trkpt>
      <trkpt lat="41.599447000" lon="1.735226000">
        <ele>619.00</ele>
        <time>2014-06-29T11:17:50Z</time>
      </trkpt>
      <trkpt lat="41.599331000" lon="1.734709000">
        <ele>615.80</ele>
        <time>2014-06-29T11:18:00Z</time>
      </trkpt>
      <trkpt lat="41.599165000" lon="1.734135000">
        <ele>614.60</ele>
        <time>2014-06-29T11:18:08Z</time>
      </trkpt>
      <trkpt lat="41.599064000" lon="1.733913000">
        <ele>614.20</ele>
        <time>2014-06-29T11:18:11Z</time>
      </trkpt>
      <trkpt lat="41.598880000" lon="1.733662000">
        <ele>613.60</ele>
        <time>2014-06-29T11:18:15Z</time>
      </trkpt>
      <trkpt lat="41.598163000" lon="1.733282000">
        <ele>614.30</ele>
        <time>2014-06-29T11:18:29Z</time>
      </trkpt>
      <trkpt lat="41.598074000" lon="1.733214000">
        <ele>614.60</ele>
        <time>2014-06-29T11:18:31Z</time>
      </trkpt>
      <trkpt lat="41.597932000" lon="1.733040000">
        <ele>615.30</ele>
        <time>2014-06-29T11:18:35Z</time>
      </trkpt>
      <trkpt lat="41.597818000" lon="1.732690000">
        <ele>615.40</ele>
        <time>2014-06-29T11:18:41Z</time>
      </trkpt>
      <trkpt lat="41.597603000" lon="1.732476000">
        <ele>616.00</ele>
        <time>2014-06-29T11:18:48Z</time>
      </trkpt>
      <trkpt lat="41.597192000" lon="1.732634000">
        <ele>616.70</ele>
        <time>2014-06-29T11:19:01Z</time>
      </trkpt>
      <trkpt lat="41.597182000" lon="1.732804000">
        <ele>615.90</ele>
        <time>2014-06-29T11:19:08Z</time>
      </trkpt>
      <trkpt lat="41.597240000" lon="1.732852000">
        <ele>615.00</ele>
        <time>2014-06-29T11:19:10Z</time>
      </trkpt>
      <trkpt lat="41.597381000" lon="1.732848000">
        <ele>613.50</ele>
        <time>2014-06-29T11:19:13Z</time>
      </trkpt>
      <trkpt lat="41.597632000" lon="1.733024000">
        <ele>612.90</ele>
        <time>2014-06-29T11:19:19Z</time>
      </trkpt>
      <trkpt lat="41.597856000" lon="1.733363000">
        <ele>610.80</ele>
        <time>2014-06-29T11:19:29Z</time>
      </trkpt>
      <trkpt lat="41.597939000" lon="1.733542000">
        <ele>609.00</ele>
        <time>2014-06-29T11:19:32Z</time>
      </trkpt>
      <trkpt lat="41.598099000" lon="1.733757000">
        <ele>607.60</ele>
        <time>2014-06-29T11:19:36Z</time>
      </trkpt>
      <trkpt lat="41.598237000" lon="1.733927000">
        <ele>606.10</ele>
        <time>2014-06-29T11:19:39Z</time>
      </trkpt>
      <trkpt lat="41.598324000" lon="1.734063000">
        <ele>604.90</ele>
        <time>2014-06-29T11:19:41Z</time>
      </trkpt>
      <trkpt lat="41.598418000" lon="1.734425000">
        <ele>605.50</ele>
        <time>2014-06-29T11:19:48Z</time>
      </trkpt>
      <trkpt lat="41.598447000" lon="1.734452000">
        <ele>605.80</ele>
        <time>2014-06-29T11:19:50Z</time>
      </trkpt>
      <trkpt lat="41.598484000" lon="1.734558000">
        <ele>607.10</ele>
        <time>2014-06-29T11:20:03Z</time>
      </trkpt>
      <trkpt lat="41.598478000" lon="1.734628000">
        <ele>607.60</ele>
        <time>2014-06-29T11:20:21Z</time>
      </trkpt>
      <trkpt lat="41.598516000" lon="1.734803000">
        <ele>609.70</ele>
        <time>2014-06-29T11:20:32Z</time>
      </trkpt>
      <trkpt lat="41.598565000" lon="1.734864000">
        <ele>611.50</ele>
        <time>2014-06-29T11:20:36Z</time>
      </trkpt>
      <trkpt lat="41.598595000" lon="1.734916000">
        <ele>612.70</ele>
        <time>2014-06-29T11:20:39Z</time>
      </trkpt>
      <trkpt lat="41.598683000" lon="1.735024000">
        <ele>615.20</ele>
        <time>2014-06-29T11:20:44Z</time>
      </trkpt>
      <trkpt lat="41.598727000" lon="1.735067000">
        <ele>616.30</ele>
        <time>2014-06-29T11:20:46Z</time>
      </trkpt>
      <trkpt lat="41.598736000" lon="1.735074000">
        <ele>616.40</ele>
        <time>2014-06-29T11:20:47Z</time>
      </trkpt>
      <trkpt lat="41.598796000" lon="1.735181000">
        <ele>616.90</ele>
        <time>2014-06-29T11:20:52Z</time>
      </trkpt>
      <trkpt lat="41.598811000" lon="1.735320000">
        <ele>618.10</ele>
        <time>2014-06-29T11:20:57Z</time>
      </trkpt>
      <trkpt lat="41.598842000" lon="1.735452000">
        <ele>618.20</ele>
        <time>2014-06-29T11:21:03Z</time>
      </trkpt>
      <trkpt lat="41.598918000" lon="1.735501000">
        <ele>618.20</ele>
        <time>2014-06-29T11:21:06Z</time>
      </trkpt>
      <trkpt lat="41.599057000" lon="1.735517000">
        <ele>617.60</ele>
        <time>2014-06-29T11:21:11Z</time>
      </trkpt>
      <trkpt lat="41.599161000" lon="1.735606000">
        <ele>617.40</ele>
        <time>2014-06-29T11:21:16Z</time>
      </trkpt>
      <trkpt lat="41.599210000" lon="1.735829000">
        <ele>617.00</ele>
        <time>2014-06-29T11:21:26Z</time>
      </trkpt>
      <trkpt lat="41.599227000" lon="1.735836000">
        <ele>617.20</ele>
        <time>2014-06-29T11:21:28Z</time>
      </trkpt>
      <trkpt lat="41.599220000" lon="1.735796000">
        <ele>616.70</ele>
        <time>2014-06-29T11:21:38Z</time>
      </trkpt>
      <trkpt lat="41.599302000" lon="1.735848000">
        <ele>616.50</ele>
        <time>2014-06-29T11:21:44Z</time>
      </trkpt>
      <trkpt lat="41.599420000" lon="1.735974000">
        <ele>614.10</ele>
        <time>2014-06-29T11:21:52Z</time>
      </trkpt>
      <trkpt lat="41.599491000" lon="1.736069000">
        <ele>612.10</ele>
        <time>2014-06-29T11:21:55Z</time>
      </trkpt>
      <trkpt lat="41.599594000" lon="1.736255000">
        <ele>610.30</ele>
        <time>2014-06-29T11:21:59Z</time>
      </trkpt>
      <trkpt lat="41.599605000" lon="1.736303000">
        <ele>609.90</ele>
        <time>2014-06-29T11:22:00Z</time>
      </trkpt>
      <trkpt lat="41.599613000" lon="1.736418000">
        <ele>608.30</ele>
        <time>2014-06-29T11:22:02Z</time>
      </trkpt>
      <trkpt lat="41.599600000" lon="1.736597000">
        <ele>606.10</ele>
        <time>2014-06-29T11:22:05Z</time>
      </trkpt>
      <trkpt lat="41.599583000" lon="1.736716000">
        <ele>605.10</ele>
        <time>2014-06-29T11:22:07Z</time>
      </trkpt>
      <trkpt lat="41.599488000" lon="1.736906000">
        <ele>603.30</ele>
        <time>2014-06-29T11:22:11Z</time>
      </trkpt>
      <trkpt lat="41.599331000" lon="1.736988000">
        <ele>603.00</ele>
        <time>2014-06-29T11:22:15Z</time>
      </trkpt>
      <trkpt lat="41.599212000" lon="1.737046000">
        <ele>601.60</ele>
        <time>2014-06-29T11:22:18Z</time>
      </trkpt>
      <trkpt lat="41.599044000" lon="1.737126000">
        <ele>598.60</ele>
        <time>2014-06-29T11:22:21Z</time>
      </trkpt>
      <trkpt lat="41.598824000" lon="1.737207000">
        <ele>598.00</ele>
        <time>2014-06-29T11:22:25Z</time>
      </trkpt>
      <trkpt lat="41.598536000" lon="1.737481000">
        <ele>594.80</ele>
        <time>2014-06-29T11:22:31Z</time>
      </trkpt>
      <trkpt lat="41.598395000" lon="1.737661000">
        <ele>592.80</ele>
        <time>2014-06-29T11:22:35Z</time>
      </trkpt>
      <trkpt lat="41.598228000" lon="1.737803000">
        <ele>588.50</ele>
        <time>2014-06-29T11:22:39Z</time>
      </trkpt>
      <trkpt lat="41.598043000" lon="1.738014000">
        <ele>583.80</ele>
        <time>2014-06-29T11:22:44Z</time>
      </trkpt>
      <trkpt lat="41.597852000" lon="1.738253000">
        <ele>581.40</ele>
        <time>2014-06-29T11:22:49Z</time>
      </trkpt>
      <trkpt lat="41.597913000" lon="1.738307000">
        <ele>580.50</ele>
        <time>2014-06-29T11:22:53Z</time>
      </trkpt>
      <trkpt lat="41.597963000" lon="1.738297000">
        <ele>579.40</ele>
        <time>2014-06-29T11:22:55Z</time>
      </trkpt>
      <trkpt lat="41.598004000" lon="1.738286000">
        <ele>579.20</ele>
        <time>2014-06-29T11:22:57Z</time>
      </trkpt>
      <trkpt lat="41.598080000" lon="1.738355000">
        <ele>578.30</ele>
        <time>2014-06-29T11:23:01Z</time>
      </trkpt>
      <trkpt lat="41.598143000" lon="1.738507000">
        <ele>576.70</ele>
        <time>2014-06-29T11:23:04Z</time>
      </trkpt>
      <trkpt lat="41.598114000" lon="1.738687000">
        <ele>577.40</ele>
        <time>2014-06-29T11:23:08Z</time>
      </trkpt>
      <trkpt lat="41.598007000" lon="1.738800000">
        <ele>579.10</ele>
        <time>2014-06-29T11:23:13Z</time>
      </trkpt>
      <trkpt lat="41.597740000" lon="1.738881000">
        <ele>581.60</ele>
        <time>2014-06-29T11:23:26Z</time>
      </trkpt>
      <trkpt lat="41.597547000" lon="1.739190000">
        <ele>585.00</ele>
        <time>2014-06-29T11:23:43Z</time>
      </trkpt>
      <trkpt lat="41.597345000" lon="1.739637000">
        <ele>588.00</ele>
        <time>2014-06-29T11:24:03Z</time>
      </trkpt>
      <trkpt lat="41.597170000" lon="1.740259000">
        <ele>590.10</ele>
        <time>2014-06-29T11:24:25Z</time>
      </trkpt>
      <trkpt lat="41.597058000" lon="1.740832000">
        <ele>592.60</ele>
        <time>2014-06-29T11:24:44Z</time>
      </trkpt>
      <trkpt lat="41.597181000" lon="1.741050000">
        <ele>592.20</ele>
        <time>2014-06-29T11:24:51Z</time>
      </trkpt>
      <trkpt lat="41.597452000" lon="1.741239000">
        <ele>589.80</ele>
        <time>2014-06-29T11:24:57Z</time>
      </trkpt>
      <trkpt lat="41.597607000" lon="1.741281000">
        <ele>589.30</ele>
        <time>2014-06-29T11:25:00Z</time>
      </trkpt>
      <trkpt lat="41.597753000" lon="1.741343000">
        <ele>588.90</ele>
        <time>2014-06-29T11:25:03Z</time>
      </trkpt>
      <trkpt lat="41.597842000" lon="1.741382000">
        <ele>589.20</ele>
        <time>2014-06-29T11:25:05Z</time>
      </trkpt>
      <trkpt lat="41.598039000" lon="1.741550000">
        <ele>588.70</ele>
        <time>2014-06-29T11:25:12Z</time>
      </trkpt>
      <trkpt lat="41.598072000" lon="1.741614000">
        <ele>588.50</ele>
        <time>2014-06-29T11:25:16Z</time>
      </trkpt>
      <trkpt lat="41.598022000" lon="1.742066000">
        <ele>589.40</ele>
        <time>2014-06-29T11:25:30Z</time>
      </trkpt>
      <trkpt lat="41.597809000" lon="1.742418000">
        <ele>591.90</ele>
        <time>2014-06-29T11:25:43Z</time>
      </trkpt>
      <trkpt lat="41.597498000" lon="1.742883000">
        <ele>593.90</ele>
        <time>2014-06-29T11:26:01Z</time>
      </trkpt>
      <trkpt lat="41.597513000" lon="1.743534000">
        <ele>595.70</ele>
        <time>2014-06-29T11:26:20Z</time>
      </trkpt>
      <trkpt lat="41.597389000" lon="1.743900000">
        <ele>596.60</ele>
        <time>2014-06-29T11:26:31Z</time>
      </trkpt>
      <trkpt lat="41.597269000" lon="1.743907000">
        <ele>597.30</ele>
        <time>2014-06-29T11:26:38Z</time>
      </trkpt>
      <trkpt lat="41.597209000" lon="1.743889000">
        <ele>597.40</ele>
        <time>2014-06-29T11:26:42Z</time>
      </trkpt>
      <trkpt lat="41.597051000" lon="1.743856000">
        <ele>597.70</ele>
        <time>2014-06-29T11:26:50Z</time>
      </trkpt>
      <trkpt lat="41.596949000" lon="1.743941000">
        <ele>598.90</ele>
        <time>2014-06-29T11:26:57Z</time>
      </trkpt>
      <trkpt lat="41.596842000" lon="1.743904000">
        <ele>598.50</ele>
        <time>2014-06-29T11:27:15Z</time>
      </trkpt>
      <trkpt lat="41.596522000" lon="1.743865000">
        <ele>596.80</ele>
        <time>2014-06-29T11:27:31Z</time>
      </trkpt>
      <trkpt lat="41.596201000" lon="1.744136000">
        <ele>595.00</ele>
        <time>2014-06-29T11:27:44Z</time>
      </trkpt>
      <trkpt lat="41.596103000" lon="1.744313000">
        <ele>593.10</ele>
        <time>2014-06-29T11:27:49Z</time>
      </trkpt>
      <trkpt lat="41.595978000" lon="1.744612000">
        <ele>590.70</ele>
        <time>2014-06-29T11:27:55Z</time>
      </trkpt>
      <trkpt lat="41.595955000" lon="1.744919000">
        <ele>587.60</ele>
        <time>2014-06-29T11:28:01Z</time>
      </trkpt>
      <trkpt lat="41.595961000" lon="1.744977000">
        <ele>586.60</ele>
        <time>2014-06-29T11:28:02Z</time>
      </trkpt>
      <trkpt lat="41.595994000" lon="1.745235000">
        <ele>584.10</ele>
        <time>2014-06-29T11:28:06Z</time>
      </trkpt>
      <trkpt lat="41.596007000" lon="1.745524000">
        <ele>582.30</ele>
        <time>2014-06-29T11:28:10Z</time>
      </trkpt>
      <trkpt lat="41.595979000" lon="1.745745000">
        <ele>580.90</ele>
        <time>2014-06-29T11:28:13Z</time>
      </trkpt>
      <trkpt lat="41.596054000" lon="1.745999000">
        <ele>579.10</ele>
        <time>2014-06-29T11:28:17Z</time>
      </trkpt>
      <trkpt lat="41.596197000" lon="1.746252000">
        <ele>576.80</ele>
        <time>2014-06-29T11:28:21Z</time>
      </trkpt>
      <trkpt lat="41.596449000" lon="1.746560000">
        <ele>573.60</ele>
        <time>2014-06-29T11:28:27Z</time>
      </trkpt>
      <trkpt lat="41.596453000" lon="1.746859000">
        <ele>571.50</ele>
        <time>2014-06-29T11:28:33Z</time>
      </trkpt>
      <trkpt lat="41.596327000" lon="1.746992000">
        <ele>570.30</ele>
        <time>2014-06-29T11:28:38Z</time>
      </trkpt>
      <trkpt lat="41.595996000" lon="1.747139000">
        <ele>568.60</ele>
        <time>2014-06-29T11:28:50Z</time>
      </trkpt>
      <trkpt lat="41.595913000" lon="1.747162000">
        <ele>567.50</ele>
        <time>2014-06-29T11:28:52Z</time>
      </trkpt>
      <trkpt lat="41.595825000" lon="1.747163000">
        <ele>566.80</ele>
        <time>2014-06-29T11:28:54Z</time>
      </trkpt>
      <trkpt lat="41.595641000" lon="1.747149000">
        <ele>565.20</ele>
        <time>2014-06-29T11:28:58Z</time>
      </trkpt>
      <trkpt lat="41.595377000" lon="1.747330000">
        <ele>565.20</ele>
        <time>2014-06-29T11:29:05Z</time>
      </trkpt>
      <trkpt lat="41.595156000" lon="1.747994000">
        <ele>567.40</ele>
        <time>2014-06-29T11:29:22Z</time>
      </trkpt>
      <trkpt lat="41.595079000" lon="1.748186000">
        <ele>566.40</ele>
        <time>2014-06-29T11:29:27Z</time>
      </trkpt>
      <trkpt lat="41.594967000" lon="1.748386000">
        <ele>562.50</ele>
        <time>2014-06-29T11:29:31Z</time>
      </trkpt>
      <trkpt lat="41.594802000" lon="1.748662000">
        <ele>561.20</ele>
        <time>2014-06-29T11:29:35Z</time>
      </trkpt>
      <trkpt lat="41.594700000" lon="1.748935000">
        <ele>558.90</ele>
        <time>2014-06-29T11:29:39Z</time>
      </trkpt>
      <trkpt lat="41.594563000" lon="1.749184000">
        <ele>556.10</ele>
        <time>2014-06-29T11:29:43Z</time>
      </trkpt>
      <trkpt lat="41.594530000" lon="1.749255000">
        <ele>555.10</ele>
        <time>2014-06-29T11:29:44Z</time>
      </trkpt>
      <trkpt lat="41.594418000" lon="1.749430000">
        <ele>555.50</ele>
        <time>2014-06-29T11:29:52Z</time>
      </trkpt>
      <trkpt lat="41.594432000" lon="1.749432000">
        <ele>555.40</ele>
        <time>2014-06-29T11:29:54Z</time>
      </trkpt>
      <trkpt lat="41.594463000" lon="1.749435000">
        <ele>555.80</ele>
        <time>2014-06-29T11:29:57Z</time>
      </trkpt>
      <trkpt lat="41.594564000" lon="1.749754000">
        <ele>557.20</ele>
        <time>2014-06-29T11:30:10Z</time>
      </trkpt>
      <trkpt lat="41.594700000" lon="1.750171000">
        <ele>558.70</ele>
        <time>2014-06-29T11:30:23Z</time>
      </trkpt>
      <trkpt lat="41.594741000" lon="1.750579000">
        <ele>561.20</ele>
        <time>2014-06-29T11:30:36Z</time>
      </trkpt>
      <trkpt lat="41.594669000" lon="1.750945000">
        <ele>563.10</ele>
        <time>2014-06-29T11:30:48Z</time>
      </trkpt>
      <trkpt lat="41.594713000" lon="1.751074000">
        <ele>562.70</ele>
        <time>2014-06-29T11:30:54Z</time>
      </trkpt>
      <trkpt lat="41.594880000" lon="1.751051000">
        <ele>560.00</ele>
        <time>2014-06-29T11:30:59Z</time>
      </trkpt>
      <trkpt lat="41.594992000" lon="1.750933000">
        <ele>558.80</ele>
        <time>2014-06-29T11:31:02Z</time>
      </trkpt>
      <trkpt lat="41.595242000" lon="1.750723000">
        <ele>555.00</ele>
        <time>2014-06-29T11:31:08Z</time>
      </trkpt>
      <trkpt lat="41.595343000" lon="1.750653000">
        <ele>553.10</ele>
        <time>2014-06-29T11:31:10Z</time>
      </trkpt>
      <trkpt lat="41.595539000" lon="1.750721000">
        <ele>549.80</ele>
        <time>2014-06-29T11:31:16Z</time>
      </trkpt>
      <trkpt lat="41.595546000" lon="1.750753000">
        <ele>549.90</ele>
        <time>2014-06-29T11:31:17Z</time>
      </trkpt>
      <trkpt lat="41.595521000" lon="1.750857000">
        <ele>549.50</ele>
        <time>2014-06-29T11:31:22Z</time>
      </trkpt>
      <trkpt lat="41.595469000" lon="1.750933000">
        <ele>549.60</ele>
        <time>2014-06-29T11:31:29Z</time>
      </trkpt>
      <trkpt lat="41.595416000" lon="1.750975000">
        <ele>549.90</ele>
        <time>2014-06-29T11:31:34Z</time>
      </trkpt>
      <trkpt lat="41.595343000" lon="1.751044000">
        <ele>550.30</ele>
        <time>2014-06-29T11:31:40Z</time>
      </trkpt>
      <trkpt lat="41.595118000" lon="1.751266000">
        <ele>549.80</ele>
        <time>2014-06-29T11:31:54Z</time>
      </trkpt>
      <trkpt lat="41.594987000" lon="1.751468000">
        <ele>550.60</ele>
        <time>2014-06-29T11:32:02Z</time>
      </trkpt>
      <trkpt lat="41.594924000" lon="1.751648000">
        <ele>550.90</ele>
        <time>2014-06-29T11:32:08Z</time>
      </trkpt>
      <trkpt lat="41.594897000" lon="1.751686000">
        <ele>550.90</ele>
        <time>2014-06-29T11:32:10Z</time>
      </trkpt>
      <trkpt lat="41.594758000" lon="1.752020000">
        <ele>550.20</ele>
        <time>2014-06-29T11:32:23Z</time>
      </trkpt>
      <trkpt lat="41.594635000" lon="1.752301000">
        <ele>551.10</ele>
        <time>2014-06-29T11:32:32Z</time>
      </trkpt>
      <trkpt lat="41.594579000" lon="1.752517000">
        <ele>550.10</ele>
        <time>2014-06-29T11:32:42Z</time>
      </trkpt>
      <trkpt lat="41.594545000" lon="1.752638000">
        <ele>550.50</ele>
        <time>2014-06-29T11:32:58Z</time>
      </trkpt>
      <trkpt lat="41.594545000" lon="1.752638000">
        <ele>550.30</ele>
        <time>2014-06-29T11:33:02Z</time>
      </trkpt>
      <trkpt lat="41.594540000" lon="1.752648000">
        <ele>550.50</ele>
        <time>2014-06-29T11:33:04Z</time>
      </trkpt>
      <trkpt lat="41.594450000" lon="1.752965000">
        <ele>552.40</ele>
        <time>2014-06-29T11:33:18Z</time>
      </trkpt>
      <trkpt lat="41.594436000" lon="1.753020000">
        <ele>552.80</ele>
        <time>2014-06-29T11:33:20Z</time>
      </trkpt>
      <trkpt lat="41.594222000" lon="1.753139000">
        <ele>554.70</ele>
        <time>2014-06-29T11:33:34Z</time>
      </trkpt>
      <trkpt lat="41.593820000" lon="1.753130000">
        <ele>555.10</ele>
        <time>2014-06-29T11:33:52Z</time>
      </trkpt>
      <trkpt lat="41.593778000" lon="1.753168000">
        <ele>555.50</ele>
        <time>2014-06-29T11:33:54Z</time>
      </trkpt>
      <trkpt lat="41.593588000" lon="1.753361000">
        <ele>557.10</ele>
        <time>2014-06-29T11:34:06Z</time>
      </trkpt>
      <trkpt lat="41.593558000" lon="1.753468000">
        <ele>557.40</ele>
        <time>2014-06-29T11:34:10Z</time>
      </trkpt>
      <trkpt lat="41.593537000" lon="1.753611000">
        <ele>556.90</ele>
        <time>2014-06-29T11:34:15Z</time>
      </trkpt>
      <trkpt lat="41.593508000" lon="1.753708000">
        <ele>557.00</ele>
        <time>2014-06-29T11:34:19Z</time>
      </trkpt>
      <trkpt lat="41.593443000" lon="1.754156000">
        <ele>557.10</ele>
        <time>2014-06-29T11:34:32Z</time>
      </trkpt>
      <trkpt lat="41.593234000" lon="1.754403000">
        <ele>553.20</ele>
        <time>2014-06-29T11:34:43Z</time>
      </trkpt>
      <trkpt lat="41.593130000" lon="1.754457000">
        <ele>550.70</ele>
        <time>2014-06-29T11:34:46Z</time>
      </trkpt>
      <trkpt lat="41.593085000" lon="1.754526000">
        <ele>549.80</ele>
        <time>2014-06-29T11:34:48Z</time>
      </trkpt>
      <trkpt lat="41.593043000" lon="1.754655000">
        <ele>548.10</ele>
        <time>2014-06-29T11:34:52Z</time>
      </trkpt>
      <trkpt lat="41.593030000" lon="1.754715000">
        <ele>547.70</ele>
        <time>2014-06-29T11:35:09Z</time>
      </trkpt>
      <trkpt lat="41.593029000" lon="1.754713000">
        <ele>548.40</ele>
        <time>2014-06-29T11:36:43Z</time>
      </trkpt>
      <trkpt lat="41.592956000" lon="1.754839000">
        <ele>545.60</ele>
        <time>2014-06-29T11:36:48Z</time>
      </trkpt>
      <trkpt lat="41.592760000" lon="1.755045000">
        <ele>541.00</ele>
        <time>2014-06-29T11:36:53Z</time>
      </trkpt>
      <trkpt lat="41.592655000" lon="1.755063000">
        <ele>538.20</ele>
        <time>2014-06-29T11:36:55Z</time>
      </trkpt>
      <trkpt lat="41.592542000" lon="1.755079000">
        <ele>536.20</ele>
        <time>2014-06-29T11:36:57Z</time>
      </trkpt>
      <trkpt lat="41.592393000" lon="1.755134000">
        <ele>532.70</ele>
        <time>2014-06-29T11:37:00Z</time>
      </trkpt>
      <trkpt lat="41.592235000" lon="1.755176000">
        <ele>529.70</ele>
        <time>2014-06-29T11:37:08Z</time>
      </trkpt>
      <trkpt lat="41.592288000" lon="1.755319000">
        <ele>526.90</ele>
        <time>2014-06-29T11:37:11Z</time>
      </trkpt>
      <trkpt lat="41.592459000" lon="1.755603000">
        <ele>523.50</ele>
        <time>2014-06-29T11:37:16Z</time>
      </trkpt>
      <trkpt lat="41.592572000" lon="1.755621000">
        <ele>523.20</ele>
        <time>2014-06-29T11:37:18Z</time>
      </trkpt>
      <trkpt lat="41.592831000" lon="1.755634000">
        <ele>519.50</ele>
        <time>2014-06-29T11:37:22Z</time>
      </trkpt>
      <trkpt lat="41.593047000" lon="1.755708000">
        <ele>516.70</ele>
        <time>2014-06-29T11:37:25Z</time>
      </trkpt>
      <trkpt lat="41.593300000" lon="1.755888000">
        <ele>514.20</ele>
        <time>2014-06-29T11:37:29Z</time>
      </trkpt>
      <trkpt lat="41.593346000" lon="1.755934000">
        <ele>513.60</ele>
        <time>2014-06-29T11:37:30Z</time>
      </trkpt>
      <trkpt lat="41.593427000" lon="1.756165000">
        <ele>515.20</ele>
        <time>2014-06-29T11:37:36Z</time>
      </trkpt>
      <trkpt lat="41.593228000" lon="1.756262000">
        <ele>518.60</ele>
        <time>2014-06-29T11:37:47Z</time>
      </trkpt>
      <trkpt lat="41.593190000" lon="1.756253000">
        <ele>519.00</ele>
        <time>2014-06-29T11:37:49Z</time>
      </trkpt>
      <trkpt lat="41.592929000" lon="1.756232000">
        <ele>521.60</ele>
        <time>2014-06-29T11:38:01Z</time>
      </trkpt>
      <trkpt lat="41.592693000" lon="1.756358000">
        <ele>524.70</ele>
        <time>2014-06-29T11:38:14Z</time>
      </trkpt>
      <trkpt lat="41.592450000" lon="1.756531000">
        <ele>527.30</ele>
        <time>2014-06-29T11:38:29Z</time>
      </trkpt>
      <trkpt lat="41.592347000" lon="1.756519000">
        <ele>525.10</ele>
        <time>2014-06-29T11:38:33Z</time>
      </trkpt>
      <trkpt lat="41.591872000" lon="1.756161000">
        <ele>526.00</ele>
        <time>2014-06-29T11:38:47Z</time>
      </trkpt>
      <trkpt lat="41.591617000" lon="1.756033000">
        <ele>528.50</ele>
        <time>2014-06-29T11:38:57Z</time>
      </trkpt>
      <trkpt lat="41.591576000" lon="1.756108000">
        <ele>530.30</ele>
        <time>2014-06-29T11:39:02Z</time>
      </trkpt>
      <trkpt lat="41.591562000" lon="1.756277000">
        <ele>533.60</ele>
        <time>2014-06-29T11:39:11Z</time>
      </trkpt>
      <trkpt lat="41.591554000" lon="1.756376000">
        <ele>535.20</ele>
        <time>2014-06-29T11:39:16Z</time>
      </trkpt>
      <trkpt lat="41.591454000" lon="1.756695000">
        <ele>538.50</ele>
        <time>2014-06-29T11:39:34Z</time>
      </trkpt>
      <trkpt lat="41.591385000" lon="1.756827000">
        <ele>541.10</ele>
        <time>2014-06-29T11:39:42Z</time>
      </trkpt>
      <trkpt lat="41.591350000" lon="1.756868000">
        <ele>542.10</ele>
        <time>2014-06-29T11:39:46Z</time>
      </trkpt>
      <trkpt lat="41.591067000" lon="1.756876000">
        <ele>544.80</ele>
        <time>2014-06-29T11:40:02Z</time>
      </trkpt>
      <trkpt lat="41.590778000" lon="1.756701000">
        <ele>544.70</ele>
        <time>2014-06-29T11:40:16Z</time>
      </trkpt>
      <trkpt lat="41.590742000" lon="1.756678000">
        <ele>544.50</ele>
        <time>2014-06-29T11:40:17Z</time>
      </trkpt>
      <trkpt lat="41.590584000" lon="1.756671000">
        <ele>544.60</ele>
        <time>2014-06-29T11:40:21Z</time>
      </trkpt>
      <trkpt lat="41.590154000" lon="1.756799000">
        <ele>548.00</ele>
        <time>2014-06-29T11:40:34Z</time>
      </trkpt>
      <trkpt lat="41.589978000" lon="1.756764000">
        <ele>549.10</ele>
        <time>2014-06-29T11:40:46Z</time>
      </trkpt>
      <trkpt lat="41.590008000" lon="1.756812000">
        <ele>549.00</ele>
        <time>2014-06-29T11:40:52Z</time>
      </trkpt>
      <trkpt lat="41.590039000" lon="1.756736000">
        <ele>548.70</ele>
        <time>2014-06-29T11:41:01Z</time>
      </trkpt>
      <trkpt lat="41.589979000" lon="1.756768000">
        <ele>549.50</ele>
        <time>2014-06-29T11:41:07Z</time>
      </trkpt>
      <trkpt lat="41.590106000" lon="1.757198000">
        <ele>552.20</ele>
        <time>2014-06-29T11:41:22Z</time>
      </trkpt>
      <trkpt lat="41.590314000" lon="1.757197000">
        <ele>554.90</ele>
        <time>2014-06-29T11:41:33Z</time>
      </trkpt>
      <trkpt lat="41.590631000" lon="1.757375000">
        <ele>557.40</ele>
        <time>2014-06-29T11:41:49Z</time>
      </trkpt>
      <trkpt lat="41.590864000" lon="1.757630000">
        <ele>559.10</ele>
        <time>2014-06-29T11:42:03Z</time>
      </trkpt>
      <trkpt lat="41.591257000" lon="1.757721000">
        <ele>557.10</ele>
        <time>2014-06-29T11:42:15Z</time>
      </trkpt>
      <trkpt lat="41.591615000" lon="1.757818000">
        <ele>556.50</ele>
        <time>2014-06-29T11:42:26Z</time>
      </trkpt>
      <trkpt lat="41.591776000" lon="1.758198000">
        <ele>554.10</ele>
        <time>2014-06-29T11:42:37Z</time>
      </trkpt>
      <trkpt lat="41.591868000" lon="1.758529000">
        <ele>553.60</ele>
        <time>2014-06-29T11:42:48Z</time>
      </trkpt>
      <trkpt lat="41.591894000" lon="1.758807000">
        <ele>553.60</ele>
        <time>2014-06-29T11:42:59Z</time>
      </trkpt>
      <trkpt lat="41.591881000" lon="1.758845000">
        <ele>553.80</ele>
        <time>2014-06-29T11:43:15Z</time>
      </trkpt>
      <trkpt lat="41.591892000" lon="1.758808000">
        <ele>553.70</ele>
        <time>2014-06-29T11:43:32Z</time>
      </trkpt>
      <trkpt lat="41.591892000" lon="1.758811000">
        <ele>553.50</ele>
        <time>2014-06-29T11:44:50Z</time>
      </trkpt>
      <trkpt lat="41.591814000" lon="1.758417000">
        <ele>553.60</ele>
        <time>2014-06-29T11:45:02Z</time>
      </trkpt>
      <trkpt lat="41.591685000" lon="1.757979000">
        <ele>555.30</ele>
        <time>2014-06-29T11:45:15Z</time>
      </trkpt>
      <trkpt lat="41.591604000" lon="1.757853000">
        <ele>556.50</ele>
        <time>2014-06-29T11:45:21Z</time>
      </trkpt>
      <trkpt lat="41.591311000" lon="1.757715000">
        <ele>557.50</ele>
        <time>2014-06-29T11:45:35Z</time>
      </trkpt>
      <trkpt lat="41.590815000" lon="1.757567000">
        <ele>559.10</ele>
        <time>2014-06-29T11:45:55Z</time>
      </trkpt>
      <trkpt lat="41.590574000" lon="1.757335000">
        <ele>557.20</ele>
        <time>2014-06-29T11:46:08Z</time>
      </trkpt>
      <trkpt lat="41.590309000" lon="1.757185000">
        <ele>555.10</ele>
        <time>2014-06-29T11:46:19Z</time>
      </trkpt>
      <trkpt lat="41.590163000" lon="1.757231000">
        <ele>553.30</ele>
        <time>2014-06-29T11:46:25Z</time>
      </trkpt>
      <trkpt lat="41.590087000" lon="1.757164000">
        <ele>551.90</ele>
        <time>2014-06-29T11:46:28Z</time>
      </trkpt>
      <trkpt lat="41.590056000" lon="1.757067000">
        <ele>550.60</ele>
        <time>2014-06-29T11:46:30Z</time>
      </trkpt>
      <trkpt lat="41.590025000" lon="1.756895000">
        <ele>549.00</ele>
        <time>2014-06-29T11:46:33Z</time>
      </trkpt>
      <trkpt lat="41.589927000" lon="1.756625000">
        <ele>548.30</ele>
        <time>2014-06-29T11:46:40Z</time>
      </trkpt>
      <trkpt lat="41.589775000" lon="1.756690000">
        <ele>546.10</ele>
        <time>2014-06-29T11:46:45Z</time>
      </trkpt>
      <trkpt lat="41.589751000" lon="1.756890000">
        <ele>542.00</ele>
        <time>2014-06-29T11:46:48Z</time>
      </trkpt>
      <trkpt lat="41.589753000" lon="1.756986000">
        <ele>541.10</ele>
        <time>2014-06-29T11:46:49Z</time>
      </trkpt>
      <trkpt lat="41.589761000" lon="1.757289000">
        <ele>540.30</ele>
        <time>2014-06-29T11:46:52Z</time>
      </trkpt>
      <trkpt lat="41.589786000" lon="1.757496000">
        <ele>539.20</ele>
        <time>2014-06-29T11:46:54Z</time>
      </trkpt>
      <trkpt lat="41.589701000" lon="1.758086000">
        <ele>535.10</ele>
        <time>2014-06-29T11:47:00Z</time>
      </trkpt>
      <trkpt lat="41.589570000" lon="1.758259000">
        <ele>530.10</ele>
        <time>2014-06-29T11:47:03Z</time>
      </trkpt>
      <trkpt lat="41.589399000" lon="1.758437000">
        <ele>523.70</ele>
        <time>2014-06-29T11:47:06Z</time>
      </trkpt>
      <trkpt lat="41.589269000" lon="1.758564000">
        <ele>522.70</ele>
        <time>2014-06-29T11:47:08Z</time>
      </trkpt>
      <trkpt lat="41.589218000" lon="1.758614000">
        <ele>522.70</ele>
        <time>2014-06-29T11:47:09Z</time>
      </trkpt>
      <trkpt lat="41.589229000" lon="1.758831000">
        <ele>521.00</ele>
        <time>2014-06-29T11:47:17Z</time>
      </trkpt>
      <trkpt lat="41.589259000" lon="1.758827000">
        <ele>520.70</ele>
        <time>2014-06-29T11:47:18Z</time>
      </trkpt>
      <trkpt lat="41.589297000" lon="1.758818000">
        <ele>519.90</ele>
        <time>2014-06-29T11:47:19Z</time>
      </trkpt>
      <trkpt lat="41.589392000" lon="1.758790000">
        <ele>517.30</ele>
        <time>2014-06-29T11:47:21Z</time>
      </trkpt>
      <trkpt lat="41.589674000" lon="1.758775000">
        <ele>513.10</ele>
        <time>2014-06-29T11:47:25Z</time>
      </trkpt>
      <trkpt lat="41.589923000" lon="1.758868000">
        <ele>510.90</ele>
        <time>2014-06-29T11:47:28Z</time>
      </trkpt>
      <trkpt lat="41.589981000" lon="1.758917000">
        <ele>510.40</ele>
        <time>2014-06-29T11:47:29Z</time>
      </trkpt>
      <trkpt lat="41.590126000" lon="1.759087000">
        <ele>507.50</ele>
        <time>2014-06-29T11:47:32Z</time>
      </trkpt>
      <trkpt lat="41.590246000" lon="1.759336000">
        <ele>503.00</ele>
        <time>2014-06-29T11:47:35Z</time>
      </trkpt>
      <trkpt lat="41.590287000" lon="1.759536000">
        <ele>499.50</ele>
        <time>2014-06-29T11:47:37Z</time>
      </trkpt>
      <trkpt lat="41.590295000" lon="1.759649000">
        <ele>498.30</ele>
        <time>2014-06-29T11:47:38Z</time>
      </trkpt>
      <trkpt lat="41.590358000" lon="1.760321000">
        <ele>492.30</ele>
        <time>2014-06-29T11:47:45Z</time>
      </trkpt>
      <trkpt lat="41.590370000" lon="1.760392000">
        <ele>491.10</ele>
        <time>2014-06-29T11:47:46Z</time>
      </trkpt>
      <trkpt lat="41.590460000" lon="1.760639000">
        <ele>486.40</ele>
        <time>2014-06-29T11:47:50Z</time>
      </trkpt>
      <trkpt lat="41.590552000" lon="1.760862000">
        <ele>482.30</ele>
        <time>2014-06-29T11:47:53Z</time>
      </trkpt>
      <trkpt lat="41.590654000" lon="1.761103000">
        <ele>477.90</ele>
        <time>2014-06-29T11:47:56Z</time>
      </trkpt>
      <trkpt lat="41.590689000" lon="1.761185000">
        <ele>477.30</ele>
        <time>2014-06-29T11:47:57Z</time>
      </trkpt>
      <trkpt lat="41.590780000" lon="1.761489000">
        <ele>472.40</ele>
        <time>2014-06-29T11:48:01Z</time>
      </trkpt>
      <trkpt lat="41.590819000" lon="1.761661000">
        <ele>468.60</ele>
        <time>2014-06-29T11:48:03Z</time>
      </trkpt>
      <trkpt lat="41.590862000" lon="1.761852000">
        <ele>465.50</ele>
        <time>2014-06-29T11:48:05Z</time>
      </trkpt>
      <trkpt lat="41.590883000" lon="1.761943000">
        <ele>464.40</ele>
        <time>2014-06-29T11:48:06Z</time>
      </trkpt>
      <trkpt lat="41.590882000" lon="1.762169000">
        <ele>462.60</ele>
        <time>2014-06-29T11:48:09Z</time>
      </trkpt>
      <trkpt lat="41.590668000" lon="1.762182000">
        <ele>462.60</ele>
        <time>2014-06-29T11:48:15Z</time>
      </trkpt>
      <trkpt lat="41.590319000" lon="1.762012000">
        <ele>466.40</ele>
        <time>2014-06-29T11:48:27Z</time>
      </trkpt>
      <trkpt lat="41.589941000" lon="1.761931000">
        <ele>469.40</ele>
        <time>2014-06-29T11:48:43Z</time>
      </trkpt>
      <trkpt lat="41.589926000" lon="1.761893000">
        <ele>469.50</ele>
        <time>2014-06-29T11:49:05Z</time>
      </trkpt>
      <trkpt lat="41.589926000" lon="1.761893000">
        <ele>469.50</ele>
        <time>2014-06-29T11:49:07Z</time>
      </trkpt>
      <trkpt lat="41.589908000" lon="1.761878000">
        <ele>469.20</ele>
        <time>2014-06-29T11:49:09Z</time>
      </trkpt>
      <trkpt lat="41.589782000" lon="1.761808000">
        <ele>465.10</ele>
        <time>2014-06-29T11:49:14Z</time>
      </trkpt>
      <trkpt lat="41.589716000" lon="1.761784000">
        <ele>464.00</ele>
        <time>2014-06-29T11:49:17Z</time>
      </trkpt>
      <trkpt lat="41.589618000" lon="1.761702000">
        <ele>462.00</ele>
        <time>2014-06-29T11:49:21Z</time>
      </trkpt>
      <trkpt lat="41.589576000" lon="1.761660000">
        <ele>461.00</ele>
        <time>2014-06-29T11:49:23Z</time>
      </trkpt>
      <trkpt lat="41.589441000" lon="1.761602000">
        <ele>458.90</ele>
        <time>2014-06-29T11:49:29Z</time>
      </trkpt>
      <trkpt lat="41.589253000" lon="1.761457000">
        <ele>456.00</ele>
        <time>2014-06-29T11:49:39Z</time>
      </trkpt>
      <trkpt lat="41.589203000" lon="1.761433000">
        <ele>455.60</ele>
        <time>2014-06-29T11:49:41Z</time>
      </trkpt>
      <trkpt lat="41.589064000" lon="1.761319000">
        <ele>453.20</ele>
        <time>2014-06-29T11:49:48Z</time>
      </trkpt>
      <trkpt lat="41.588762000" lon="1.761254000">
        <ele>452.50</ele>
        <time>2014-06-29T11:50:01Z</time>
      </trkpt>
      <trkpt lat="41.588471000" lon="1.761256000">
        <ele>453.40</ele>
        <time>2014-06-29T11:50:13Z</time>
      </trkpt>
      <trkpt lat="41.588231000" lon="1.761240000">
        <ele>450.00</ele>
        <time>2014-06-29T11:50:20Z</time>
      </trkpt>
      <trkpt lat="41.588158000" lon="1.761249000">
        <ele>449.30</ele>
        <time>2014-06-29T11:50:22Z</time>
      </trkpt>
      <trkpt lat="41.587927000" lon="1.761433000">
        <ele>450.10</ele>
        <time>2014-06-29T11:50:33Z</time>
      </trkpt>
      <trkpt lat="41.587900000" lon="1.761466000">
        <ele>449.30</ele>
        <time>2014-06-29T11:50:34Z</time>
      </trkpt>
      <trkpt lat="41.587807000" lon="1.761569000">
        <ele>447.40</ele>
        <time>2014-06-29T11:50:37Z</time>
      </trkpt>
      <trkpt lat="41.587710000" lon="1.761745000">
        <ele>449.30</ele>
        <time>2014-06-29T11:50:43Z</time>
      </trkpt>
      <trkpt lat="41.587555000" lon="1.761880000">
        <ele>451.20</ele>
        <time>2014-06-29T11:51:12Z</time>
      </trkpt>
      <trkpt lat="41.587332000" lon="1.762208000">
        <ele>453.40</ele>
        <time>2014-06-29T11:51:24Z</time>
      </trkpt>
      <trkpt lat="41.587203000" lon="1.762360000">
        <ele>454.10</ele>
        <time>2014-06-29T11:51:31Z</time>
      </trkpt>
      <trkpt lat="41.587119000" lon="1.762480000">
        <ele>457.40</ele>
        <time>2014-06-29T11:51:40Z</time>
      </trkpt>
      <trkpt lat="41.587002000" lon="1.762538000">
        <ele>459.90</ele>
        <time>2014-06-29T11:51:56Z</time>
      </trkpt>
      <trkpt lat="41.586969000" lon="1.762536000">
        <ele>460.70</ele>
        <time>2014-06-29T11:52:21Z</time>
      </trkpt>
      <trkpt lat="41.586811000" lon="1.762602000">
        <ele>458.50</ele>
        <time>2014-06-29T11:52:29Z</time>
      </trkpt>
      <trkpt lat="41.586669000" lon="1.762813000">
        <ele>454.90</ele>
        <time>2014-06-29T11:52:35Z</time>
      </trkpt>
      <trkpt lat="41.586487000" lon="1.762783000">
        <ele>450.00</ele>
        <time>2014-06-29T11:52:40Z</time>
      </trkpt>
      <trkpt lat="41.586448000" lon="1.762756000">
        <ele>449.40</ele>
        <time>2014-06-29T11:52:41Z</time>
      </trkpt>
      <trkpt lat="41.586361000" lon="1.762539000">
        <ele>444.60</ele>
        <time>2014-06-29T11:52:46Z</time>
      </trkpt>
      <trkpt lat="41.586352000" lon="1.762460000">
        <ele>443.00</ele>
        <time>2014-06-29T11:52:48Z</time>
      </trkpt>
      <trkpt lat="41.586222000" lon="1.762368000">
        <ele>439.20</ele>
        <time>2014-06-29T11:52:53Z</time>
      </trkpt>
      <trkpt lat="41.586140000" lon="1.762338000">
        <ele>437.50</ele>
        <time>2014-06-29T11:52:55Z</time>
      </trkpt>
      <trkpt lat="41.586065000" lon="1.762289000">
        <ele>436.10</ele>
        <time>2014-06-29T11:52:57Z</time>
      </trkpt>
      <trkpt lat="41.586031000" lon="1.762277000">
        <ele>435.70</ele>
        <time>2014-06-29T11:52:58Z</time>
      </trkpt>
      <trkpt lat="41.585906000" lon="1.762375000">
        <ele>432.60</ele>
        <time>2014-06-29T11:53:03Z</time>
      </trkpt>
      <trkpt lat="41.585890000" lon="1.762379000">
        <ele>432.10</ele>
        <time>2014-06-29T11:53:04Z</time>
      </trkpt>
      <trkpt lat="41.585850000" lon="1.762378000">
        <ele>431.00</ele>
        <time>2014-06-29T11:53:06Z</time>
      </trkpt>
      <trkpt lat="41.585794000" lon="1.762358000">
        <ele>429.90</ele>
        <time>2014-06-29T11:53:10Z</time>
      </trkpt>
      <trkpt lat="41.585709000" lon="1.762327000">
        <ele>428.10</ele>
        <time>2014-06-29T11:53:14Z</time>
      </trkpt>
      <trkpt lat="41.585645000" lon="1.762288000">
        <ele>426.70</ele>
        <time>2014-06-29T11:53:17Z</time>
      </trkpt>
      <trkpt lat="41.585609000" lon="1.762155000">
        <ele>423.70</ele>
        <time>2014-06-29T11:53:24Z</time>
      </trkpt>
      <trkpt lat="41.585626000" lon="1.762095000">
        <ele>422.80</ele>
        <time>2014-06-29T11:53:39Z</time>
      </trkpt>
      <trkpt lat="41.585594000" lon="1.762013000">
        <ele>423.90</ele>
        <time>2014-06-29T11:53:52Z</time>
      </trkpt>
      <trkpt lat="41.585531000" lon="1.761999000">
        <ele>423.70</ele>
        <time>2014-06-29T11:53:56Z</time>
      </trkpt>
      <trkpt lat="41.585442000" lon="1.761943000">
        <ele>424.30</ele>
        <time>2014-06-29T11:54:02Z</time>
      </trkpt>
      <trkpt lat="41.585370000" lon="1.761895000">
        <ele>425.00</ele>
        <time>2014-06-29T11:54:06Z</time>
      </trkpt>
      <trkpt lat="41.585152000" lon="1.761551000">
        <ele>424.20</ele>
        <time>2014-06-29T11:54:19Z</time>
      </trkpt>
      <trkpt lat="41.584941000" lon="1.761109000">
        <ele>423.90</ele>
        <time>2014-06-29T11:54:32Z</time>
      </trkpt>
      <trkpt lat="41.584739000" lon="1.760626000">
        <ele>424.80</ele>
        <time>2014-06-29T11:54:45Z</time>
      </trkpt>
      <trkpt lat="41.584581000" lon="1.760267000">
        <ele>422.00</ele>
        <time>2014-06-29T11:54:56Z</time>
      </trkpt>
      <trkpt lat="41.584550000" lon="1.760194000">
        <ele>419.50</ele>
        <time>2014-06-29T11:55:09Z</time>
      </trkpt>
      <trkpt lat="41.584518000" lon="1.760103000">
        <ele>419.00</ele>
        <time>2014-06-29T11:55:17Z</time>
      </trkpt>
      <trkpt lat="41.584632000" lon="1.759826000">
        <ele>415.40</ele>
        <time>2014-06-29T11:55:29Z</time>
      </trkpt>
      <trkpt lat="41.584655000" lon="1.759800000">
        <ele>415.40</ele>
        <time>2014-06-29T11:55:31Z</time>
      </trkpt>
      <trkpt lat="41.584734000" lon="1.759641000">
        <ele>412.10</ele>
        <time>2014-06-29T11:55:37Z</time>
      </trkpt>
      <trkpt lat="41.584761000" lon="1.759568000">
        <ele>411.50</ele>
        <time>2014-06-29T11:55:40Z</time>
      </trkpt>
      <trkpt lat="41.584933000" lon="1.759344000">
        <ele>409.10</ele>
        <time>2014-06-29T11:55:53Z</time>
      </trkpt>
      <trkpt lat="41.584956000" lon="1.759172000">
        <ele>406.90</ele>
        <time>2014-06-29T11:56:03Z</time>
      </trkpt>
      <trkpt lat="41.584883000" lon="1.759106000">
        <ele>407.50</ele>
        <time>2014-06-29T11:56:14Z</time>
      </trkpt>
      <trkpt lat="41.584805000" lon="1.759085000">
        <ele>409.50</ele>
        <time>2014-06-29T11:56:23Z</time>
      </trkpt>
      <trkpt lat="41.584750000" lon="1.759153000">
        <ele>410.70</ele>
        <time>2014-06-29T11:56:27Z</time>
      </trkpt>
      <trkpt lat="41.584662000" lon="1.759123000">
        <ele>411.70</ele>
        <time>2014-06-29T11:56:34Z</time>
      </trkpt>
      <trkpt lat="41.584539000" lon="1.759165000">
        <ele>413.80</ele>
        <time>2014-06-29T11:56:46Z</time>
      </trkpt>
      <trkpt lat="41.584499000" lon="1.759201000">
        <ele>414.20</ele>
        <time>2014-06-29T11:56:49Z</time>
      </trkpt>
      <trkpt lat="41.584463000" lon="1.759238000">
        <ele>414.90</ele>
        <time>2014-06-29T11:56:53Z</time>
      </trkpt>
      <trkpt lat="41.584379000" lon="1.759356000">
        <ele>415.80</ele>
        <time>2014-06-29T11:57:04Z</time>
      </trkpt>
      <trkpt lat="41.584340000" lon="1.759381000">
        <ele>416.40</ele>
        <time>2014-06-29T11:57:06Z</time>
      </trkpt>
      <trkpt lat="41.584285000" lon="1.759386000">
        <ele>418.00</ele>
        <time>2014-06-29T11:57:09Z</time>
      </trkpt>
      <trkpt lat="41.584070000" lon="1.759495000">
        <ele>420.60</ele>
        <time>2014-06-29T11:57:22Z</time>
      </trkpt>
      <trkpt lat="41.583906000" lon="1.759639000">
        <ele>418.60</ele>
        <time>2014-06-29T11:57:29Z</time>
      </trkpt>
      <trkpt lat="41.583781000" lon="1.759616000">
        <ele>419.30</ele>
        <time>2014-06-29T11:57:35Z</time>
      </trkpt>
      <trkpt lat="41.583745000" lon="1.759533000">
        <ele>421.90</ele>
        <time>2014-06-29T11:57:48Z</time>
      </trkpt>
      <trkpt lat="41.583723000" lon="1.759522000">
        <ele>422.50</ele>
        <time>2014-06-29T11:57:51Z</time>
      </trkpt>
      <trkpt lat="41.583722000" lon="1.759496000">
        <ele>422.70</ele>
        <time>2014-06-29T11:57:53Z</time>
      </trkpt>
      <trkpt lat="41.583665000" lon="1.759219000">
        <ele>421.40</ele>
        <time>2014-06-29T11:58:08Z</time>
      </trkpt>
      <trkpt lat="41.583452000" lon="1.759002000">
        <ele>421.10</ele>
        <time>2014-06-29T11:58:17Z</time>
      </trkpt>
      <trkpt lat="41.583351000" lon="1.758939000">
        <ele>422.70</ele>
        <time>2014-06-29T11:58:24Z</time>
      </trkpt>
      <trkpt lat="41.583351000" lon="1.759051000">
        <ele>424.90</ele>
        <time>2014-06-29T11:58:33Z</time>
      </trkpt>
      <trkpt lat="41.583365000" lon="1.759101000">
        <ele>425.50</ele>
        <time>2014-06-29T11:58:36Z</time>
      </trkpt>
      <trkpt lat="41.583343000" lon="1.759347000">
        <ele>428.00</ele>
        <time>2014-06-29T11:58:46Z</time>
      </trkpt>
      <trkpt lat="41.583320000" lon="1.759393000">
        <ele>428.40</ele>
        <time>2014-06-29T11:59:09Z</time>
      </trkpt>
      <trkpt lat="41.583311000" lon="1.759387000">
        <ele>428.20</ele>
        <time>2014-06-29T12:00:57Z</time>
      </trkpt>
      <trkpt lat="41.583160000" lon="1.759312000">
        <ele>429.80</ele>
        <time>2014-06-29T12:01:07Z</time>
      </trkpt>
      <trkpt lat="41.583130000" lon="1.759314000">
        <ele>430.40</ele>
        <time>2014-06-29T12:01:09Z</time>
      </trkpt>
      <trkpt lat="41.582941000" lon="1.759167000">
        <ele>433.40</ele>
        <time>2014-06-29T12:01:22Z</time>
      </trkpt>
      <trkpt lat="41.582916000" lon="1.759143000">
        <ele>434.30</ele>
        <time>2014-06-29T12:01:24Z</time>
      </trkpt>
      <trkpt lat="41.582795000" lon="1.759009000">
        <ele>435.80</ele>
        <time>2014-06-29T12:01:32Z</time>
      </trkpt>
      <trkpt lat="41.582815000" lon="1.758922000">
        <ele>436.70</ele>
        <time>2014-06-29T12:01:40Z</time>
      </trkpt>
      <trkpt lat="41.582847000" lon="1.758966000">
        <ele>437.20</ele>
        <time>2014-06-29T12:01:43Z</time>
      </trkpt>
      <trkpt lat="41.582976000" lon="1.758882000">
        <ele>439.80</ele>
        <time>2014-06-29T12:01:53Z</time>
      </trkpt>
      <trkpt lat="41.582943000" lon="1.758574000">
        <ele>443.00</ele>
        <time>2014-06-29T12:02:08Z</time>
      </trkpt>
      <trkpt lat="41.582934000" lon="1.758554000">
        <ele>443.40</ele>
        <time>2014-06-29T12:02:09Z</time>
      </trkpt>
      <trkpt lat="41.582910000" lon="1.758321000">
        <ele>446.90</ele>
        <time>2014-06-29T12:02:21Z</time>
      </trkpt>
      <trkpt lat="41.582881000" lon="1.758044000">
        <ele>450.00</ele>
        <time>2014-06-29T12:02:36Z</time>
      </trkpt>
      <trkpt lat="41.582769000" lon="1.757688000">
        <ele>452.60</ele>
        <time>2014-06-29T12:02:55Z</time>
      </trkpt>
      <trkpt lat="41.582713000" lon="1.757643000">
        <ele>453.40</ele>
        <time>2014-06-29T12:02:59Z</time>
      </trkpt>
      <trkpt lat="41.582526000" lon="1.757625000">
        <ele>452.10</ele>
        <time>2014-06-29T12:03:06Z</time>
      </trkpt>
      <trkpt lat="41.582191000" lon="1.757851000">
        <ele>450.50</ele>
        <time>2014-06-29T12:03:17Z</time>
      </trkpt>
      <trkpt lat="41.581936000" lon="1.757969000">
        <ele>451.50</ele>
        <time>2014-06-29T12:03:25Z</time>
      </trkpt>
      <trkpt lat="41.581854000" lon="1.757889000">
        <ele>454.00</ele>
        <time>2014-06-29T12:03:30Z</time>
      </trkpt>
      <trkpt lat="41.581832000" lon="1.757847000">
        <ele>454.70</ele>
        <time>2014-06-29T12:03:33Z</time>
      </trkpt>
      <trkpt lat="41.581759000" lon="1.757849000">
        <ele>454.00</ele>
        <time>2014-06-29T12:03:38Z</time>
      </trkpt>
      <trkpt lat="41.581639000" lon="1.757816000">
        <ele>452.10</ele>
        <time>2014-06-29T12:03:45Z</time>
      </trkpt>
      <trkpt lat="41.581491000" lon="1.757696000">
        <ele>449.90</ele>
        <time>2014-06-29T12:03:49Z</time>
      </trkpt>
      <trkpt lat="41.581360000" lon="1.757680000">
        <ele>448.50</ele>
        <time>2014-06-29T12:03:52Z</time>
      </trkpt>
      <trkpt lat="41.581322000" lon="1.757799000">
        <ele>448.10</ele>
        <time>2014-06-29T12:03:55Z</time>
      </trkpt>
      <trkpt lat="41.581319000" lon="1.758127000">
        <ele>446.00</ele>
        <time>2014-06-29T12:04:01Z</time>
      </trkpt>
      <trkpt lat="41.581235000" lon="1.758557000">
        <ele>445.10</ele>
        <time>2014-06-29T12:04:08Z</time>
      </trkpt>
      <trkpt lat="41.581218000" lon="1.758730000">
        <ele>445.30</ele>
        <time>2014-06-29T12:04:11Z</time>
      </trkpt>
      <trkpt lat="41.580981000" lon="1.758979000">
        <ele>443.40</ele>
        <time>2014-06-29T12:04:18Z</time>
      </trkpt>
      <trkpt lat="41.580929000" lon="1.758945000">
        <ele>442.90</ele>
        <time>2014-06-29T12:04:19Z</time>
      </trkpt>
      <trkpt lat="41.580828000" lon="1.758883000">
        <ele>441.80</ele>
        <time>2014-06-29T12:04:21Z</time>
      </trkpt>
      <trkpt lat="41.580663000" lon="1.759054000">
        <ele>436.80</ele>
        <time>2014-06-29T12:04:25Z</time>
      </trkpt>
      <trkpt lat="41.580610000" lon="1.759255000">
        <ele>434.30</ele>
        <time>2014-06-29T12:04:27Z</time>
      </trkpt>
      <trkpt lat="41.580307000" lon="1.759722000">
        <ele>427.30</ele>
        <time>2014-06-29T12:04:32Z</time>
      </trkpt>
      <trkpt lat="41.579908000" lon="1.760095000">
        <ele>426.80</ele>
        <time>2014-06-29T12:04:37Z</time>
      </trkpt>
      <trkpt lat="41.579811000" lon="1.760161000">
        <ele>427.00</ele>
        <time>2014-06-29T12:04:39Z</time>
      </trkpt>
      <trkpt lat="41.579572000" lon="1.760267000">
        <ele>427.00</ele>
        <time>2014-06-29T12:04:45Z</time>
      </trkpt>
      <trkpt lat="41.579513000" lon="1.760461000">
        <ele>428.10</ele>
        <time>2014-06-29T12:04:50Z</time>
      </trkpt>
      <trkpt lat="41.579392000" lon="1.760806000">
        <ele>426.10</ele>
        <time>2014-06-29T12:05:02Z</time>
      </trkpt>
      <trkpt lat="41.579344000" lon="1.760902000">
        <ele>425.20</ele>
        <time>2014-06-29T12:05:04Z</time>
      </trkpt>
      <trkpt lat="41.579216000" lon="1.761242000">
        <ele>421.20</ele>
        <time>2014-06-29T12:05:09Z</time>
      </trkpt>
      <trkpt lat="41.579123000" lon="1.761501000">
        <ele>419.40</ele>
        <time>2014-06-29T12:05:12Z</time>
      </trkpt>
      <trkpt lat="41.579063000" lon="1.761907000">
        <ele>415.60</ele>
        <time>2014-06-29T12:05:16Z</time>
      </trkpt>
      <trkpt lat="41.579126000" lon="1.762695000">
        <ele>412.60</ele>
        <time>2014-06-29T12:05:23Z</time>
      </trkpt>
      <trkpt lat="41.578839000" lon="1.762964000">
        <ele>409.60</ele>
        <time>2014-06-29T12:05:29Z</time>
      </trkpt>
      <trkpt lat="41.578767000" lon="1.762969000">
        <ele>409.60</ele>
        <time>2014-06-29T12:05:30Z</time>
      </trkpt>
      <trkpt lat="41.578622000" lon="1.762976000">
        <ele>407.30</ele>
        <time>2014-06-29T12:05:32Z</time>
      </trkpt>
      <trkpt lat="41.578426000" lon="1.763262000">
        <ele>403.50</ele>
        <time>2014-06-29T12:05:37Z</time>
      </trkpt>
      <trkpt lat="41.578466000" lon="1.763564000">
        <ele>400.20</ele>
        <time>2014-06-29T12:05:40Z</time>
      </trkpt>
      <trkpt lat="41.578546000" lon="1.763767000">
        <ele>397.80</ele>
        <time>2014-06-29T12:05:42Z</time>
      </trkpt>
      <trkpt lat="41.578637000" lon="1.763957000">
        <ele>396.20</ele>
        <time>2014-06-29T12:05:44Z</time>
      </trkpt>
      <trkpt lat="41.578731000" lon="1.764065000">
        <ele>395.40</ele>
        <time>2014-06-29T12:05:46Z</time>
      </trkpt>
      <trkpt lat="41.579022000" lon="1.763965000">
        <ele>391.30</ele>
        <time>2014-06-29T12:05:51Z</time>
      </trkpt>
      <trkpt lat="41.579091000" lon="1.763935000">
        <ele>390.20</ele>
        <time>2014-06-29T12:05:52Z</time>
      </trkpt>
      <trkpt lat="41.579329000" lon="1.763810000">
        <ele>388.50</ele>
        <time>2014-06-29T12:05:55Z</time>
      </trkpt>
      <trkpt lat="41.579527000" lon="1.764007000">
        <ele>384.70</ele>
        <time>2014-06-29T12:06:01Z</time>
      </trkpt>
      <trkpt lat="41.579507000" lon="1.764170000">
        <ele>383.50</ele>
        <time>2014-06-29T12:06:03Z</time>
      </trkpt>
      <trkpt lat="41.579383000" lon="1.764330000">
        <ele>381.40</ele>
        <time>2014-06-29T12:06:06Z</time>
      </trkpt>
      <trkpt lat="41.579237000" lon="1.764317000">
        <ele>380.00</ele>
        <time>2014-06-29T12:06:08Z</time>
      </trkpt>
      <trkpt lat="41.578655000" lon="1.764420000">
        <ele>378.90</ele>
        <time>2014-06-29T12:06:17Z</time>
      </trkpt>
      <trkpt lat="41.578617000" lon="1.764427000">
        <ele>378.50</ele>
        <time>2014-06-29T12:06:18Z</time>
      </trkpt>
      <trkpt lat="41.578397000" lon="1.764682000">
        <ele>377.10</ele>
        <time>2014-06-29T12:06:24Z</time>
      </trkpt>
      <trkpt lat="41.578265000" lon="1.764895000">
        <ele>377.10</ele>
        <time>2014-06-29T12:06:28Z</time>
      </trkpt>
      <trkpt lat="41.577983000" lon="1.765098000">
        <ele>377.00</ele>
        <time>2014-06-29T12:06:34Z</time>
      </trkpt>
      <trkpt lat="41.577871000" lon="1.765124000">
        <ele>376.70</ele>
        <time>2014-06-29T12:06:36Z</time>
      </trkpt>
      <trkpt lat="41.577765000" lon="1.765158000">
        <ele>376.80</ele>
        <time>2014-06-29T12:06:38Z</time>
      </trkpt>
      <trkpt lat="41.577607000" lon="1.765331000">
        <ele>377.60</ele>
        <time>2014-06-29T12:06:43Z</time>
      </trkpt>
      <trkpt lat="41.577526000" lon="1.765547000">
        <ele>376.30</ele>
        <time>2014-06-29T12:06:47Z</time>
      </trkpt>
      <trkpt lat="41.577477000" lon="1.765670000">
        <ele>375.00</ele>
        <time>2014-06-29T12:06:49Z</time>
      </trkpt>
      <trkpt lat="41.577458000" lon="1.765735000">
        <ele>375.40</ele>
        <time>2014-06-29T12:06:50Z</time>
      </trkpt>
      <trkpt lat="41.577436000" lon="1.765966000">
        <ele>376.70</ele>
        <time>2014-06-29T12:06:54Z</time>
      </trkpt>
      <trkpt lat="41.577401000" lon="1.766335000">
        <ele>375.60</ele>
        <time>2014-06-29T12:07:00Z</time>
      </trkpt>
      <trkpt lat="41.577381000" lon="1.766460000">
        <ele>375.30</ele>
        <time>2014-06-29T12:07:02Z</time>
      </trkpt>
      <trkpt lat="41.577365000" lon="1.766689000">
        <ele>372.70</ele>
        <time>2014-06-29T12:07:05Z</time>
      </trkpt>
      <trkpt lat="41.577098000" lon="1.766945000">
        <ele>373.40</ele>
        <time>2014-06-29T12:07:12Z</time>
      </trkpt>
      <trkpt lat="41.577044000" lon="1.766934000">
        <ele>373.10</ele>
        <time>2014-06-29T12:07:13Z</time>
      </trkpt>
      <trkpt lat="41.576931000" lon="1.766905000">
        <ele>372.60</ele>
        <time>2014-06-29T12:07:15Z</time>
      </trkpt>
      <trkpt lat="41.576629000" lon="1.767006000">
        <ele>373.20</ele>
        <time>2014-06-29T12:07:21Z</time>
      </trkpt>
      <trkpt lat="41.576515000" lon="1.767118000">
        <ele>374.00</ele>
        <time>2014-06-29T12:07:24Z</time>
      </trkpt>
      <trkpt lat="41.576321000" lon="1.767244000">
        <ele>371.60</ele>
        <time>2014-06-29T12:07:28Z</time>
      </trkpt>
      <trkpt lat="41.575869000" lon="1.767574000">
        <ele>368.00</ele>
        <time>2014-06-29T12:07:35Z</time>
      </trkpt>
      <trkpt lat="41.575376000" lon="1.768047000">
        <ele>368.30</ele>
        <time>2014-06-29T12:07:45Z</time>
      </trkpt>
      <trkpt lat="41.574994000" lon="1.768583000">
        <ele>366.70</ele>
        <time>2014-06-29T12:07:54Z</time>
      </trkpt>
      <trkpt lat="41.574576000" lon="1.768934000">
        <ele>364.80</ele>
        <time>2014-06-29T12:08:02Z</time>
      </trkpt>
      <trkpt lat="41.574340000" lon="1.769195000">
        <ele>367.80</ele>
        <time>2014-06-29T12:08:07Z</time>
      </trkpt>
      <trkpt lat="41.573835000" lon="1.769502000">
        <ele>370.60</ele>
        <time>2014-06-29T12:08:19Z</time>
      </trkpt>
      <trkpt lat="41.573316000" lon="1.769643000">
        <ele>373.20</ele>
        <time>2014-06-29T12:08:35Z</time>
      </trkpt>
      <trkpt lat="41.573006000" lon="1.769561000">
        <ele>376.60</ele>
        <time>2014-06-29T12:08:48Z</time>
      </trkpt>
      <trkpt lat="41.572733000" lon="1.769513000">
        <ele>379.80</ele>
        <time>2014-06-29T12:09:01Z</time>
      </trkpt>
      <trkpt lat="41.572402000" lon="1.769724000">
        <ele>381.30</ele>
        <time>2014-06-29T12:09:17Z</time>
      </trkpt>
      <trkpt lat="41.571969000" lon="1.769953000">
        <ele>383.20</ele>
        <time>2014-06-29T12:09:34Z</time>
      </trkpt>
      <trkpt lat="41.571892000" lon="1.769837000">
        <ele>384.60</ele>
        <time>2014-06-29T12:09:39Z</time>
      </trkpt>
      <trkpt lat="41.571745000" lon="1.769720000">
        <ele>386.10</ele>
        <time>2014-06-29T12:09:46Z</time>
      </trkpt>
      <trkpt lat="41.571308000" lon="1.769786000">
        <ele>388.00</ele>
        <time>2014-06-29T12:10:05Z</time>
      </trkpt>
      <trkpt lat="41.571151000" lon="1.770221000">
        <ele>390.90</ele>
        <time>2014-06-29T12:10:20Z</time>
      </trkpt>
      <trkpt lat="41.571258000" lon="1.770550000">
        <ele>393.10</ele>
        <time>2014-06-29T12:10:32Z</time>
      </trkpt>
      <trkpt lat="41.571297000" lon="1.771022000">
        <ele>396.20</ele>
        <time>2014-06-29T12:10:48Z</time>
      </trkpt>
      <trkpt lat="41.571296000" lon="1.771079000">
        <ele>396.60</ele>
        <time>2014-06-29T12:10:50Z</time>
      </trkpt>
      <trkpt lat="41.571298000" lon="1.771171000">
        <ele>397.30</ele>
        <time>2014-06-29T12:10:53Z</time>
      </trkpt>
      <trkpt lat="41.571143000" lon="1.771182000">
        <ele>399.40</ele>
        <time>2014-06-29T12:11:02Z</time>
      </trkpt>
      <trkpt lat="41.571091000" lon="1.771087000">
        <ele>399.50</ele>
        <time>2014-06-29T12:11:06Z</time>
      </trkpt>
      <trkpt lat="41.570802000" lon="1.770903000">
        <ele>401.20</ele>
        <time>2014-06-29T12:11:20Z</time>
      </trkpt>
      <trkpt lat="41.570580000" lon="1.770662000">
        <ele>403.30</ele>
        <time>2014-06-29T12:11:32Z</time>
      </trkpt>
      <trkpt lat="41.570344000" lon="1.770801000">
        <ele>405.20</ele>
        <time>2014-06-29T12:11:44Z</time>
      </trkpt>
      <trkpt lat="41.570095000" lon="1.770915000">
        <ele>406.40</ele>
        <time>2014-06-29T12:11:55Z</time>
      </trkpt>
      <trkpt lat="41.569902000" lon="1.770818000">
        <ele>408.80</ele>
        <time>2014-06-29T12:12:03Z</time>
      </trkpt>
      <trkpt lat="41.569744000" lon="1.771068000">
        <ele>410.50</ele>
        <time>2014-06-29T12:12:15Z</time>
      </trkpt>
      <trkpt lat="41.570122000" lon="1.771499000">
        <ele>413.20</ele>
        <time>2014-06-29T12:12:33Z</time>
      </trkpt>
      <trkpt lat="41.570234000" lon="1.771870000">
        <ele>415.60</ele>
        <time>2014-06-29T12:12:46Z</time>
      </trkpt>
      <trkpt lat="41.570174000" lon="1.771926000">
        <ele>416.00</ele>
        <time>2014-06-29T12:12:49Z</time>
      </trkpt>
      <trkpt lat="41.570099000" lon="1.771910000">
        <ele>417.20</ele>
        <time>2014-06-29T12:12:53Z</time>
      </trkpt>
      <trkpt lat="41.570070000" lon="1.771880000">
        <ele>417.80</ele>
        <time>2014-06-29T12:12:55Z</time>
      </trkpt>
      <trkpt lat="41.569947000" lon="1.771891000">
        <ele>420.10</ele>
        <time>2014-06-29T12:13:03Z</time>
      </trkpt>
      <trkpt lat="41.570082000" lon="1.772143000">
        <ele>423.20</ele>
        <time>2014-06-29T12:13:17Z</time>
      </trkpt>
      <trkpt lat="41.570160000" lon="1.772373000">
        <ele>426.50</ele>
        <time>2014-06-29T12:13:28Z</time>
      </trkpt>
      <trkpt lat="41.570108000" lon="1.772728000">
        <ele>429.40</ele>
        <time>2014-06-29T12:13:43Z</time>
      </trkpt>
      <trkpt lat="41.569970000" lon="1.772875000">
        <ele>431.20</ele>
        <time>2014-06-29T12:13:52Z</time>
      </trkpt>
      <trkpt lat="41.569932000" lon="1.773085000">
        <ele>431.90</ele>
        <time>2014-06-29T12:14:01Z</time>
      </trkpt>
      <trkpt lat="41.569918000" lon="1.773122000">
        <ele>432.10</ele>
        <time>2014-06-29T12:14:03Z</time>
      </trkpt>
      <trkpt lat="41.569819000" lon="1.773544000">
        <ele>434.10</ele>
        <time>2014-06-29T12:14:17Z</time>
      </trkpt>
      <trkpt lat="41.570030000" lon="1.773874000">
        <ele>433.80</ele>
        <time>2014-06-29T12:14:28Z</time>
      </trkpt>
      <trkpt lat="41.570064000" lon="1.773884000">
        <ele>434.10</ele>
        <time>2014-06-29T12:14:29Z</time>
      </trkpt>
      <trkpt lat="41.570452000" lon="1.773905000">
        <ele>437.30</ele>
        <time>2014-06-29T12:14:44Z</time>
      </trkpt>
      <trkpt lat="41.570710000" lon="1.774199000">
        <ele>440.20</ele>
        <time>2014-06-29T12:14:59Z</time>
      </trkpt>
      <trkpt lat="41.571103000" lon="1.774217000">
        <ele>441.30</ele>
        <time>2014-06-29T12:15:15Z</time>
      </trkpt>
      <trkpt lat="41.571600000" lon="1.774400000">
        <ele>443.40</ele>
        <time>2014-06-29T12:15:34Z</time>
      </trkpt>
      <trkpt lat="41.571792000" lon="1.774579000">
        <ele>443.30</ele>
        <time>2014-06-29T12:15:43Z</time>
      </trkpt>
      <trkpt lat="41.571808000" lon="1.774665000">
        <ele>443.00</ele>
        <time>2014-06-29T12:15:45Z</time>
      </trkpt>
      <trkpt lat="41.571939000" lon="1.774779000">
        <ele>441.80</ele>
        <time>2014-06-29T12:15:49Z</time>
      </trkpt>
      <trkpt lat="41.572121000" lon="1.775014000">
        <ele>439.60</ele>
        <time>2014-06-29T12:15:54Z</time>
      </trkpt>
      <trkpt lat="41.572431000" lon="1.775045000">
        <ele>439.40</ele>
        <time>2014-06-29T12:16:01Z</time>
      </trkpt>
      <trkpt lat="41.572505000" lon="1.774815000">
        <ele>440.10</ele>
        <time>2014-06-29T12:16:05Z</time>
      </trkpt>
      <trkpt lat="41.572653000" lon="1.774238000">
        <ele>443.50</ele>
        <time>2014-06-29T12:16:18Z</time>
      </trkpt>
      <trkpt lat="41.572858000" lon="1.773943000">
        <ele>445.50</ele>
        <time>2014-06-29T12:16:30Z</time>
      </trkpt>
      <trkpt lat="41.573147000" lon="1.773645000">
        <ele>448.00</ele>
        <time>2014-06-29T12:16:43Z</time>
      </trkpt>
      <trkpt lat="41.573241000" lon="1.773590000">
        <ele>448.80</ele>
        <time>2014-06-29T12:16:46Z</time>
      </trkpt>
      <trkpt lat="41.573552000" lon="1.773302000">
        <ele>451.20</ele>
        <time>2014-06-29T12:17:02Z</time>
      </trkpt>
      <trkpt lat="41.573870000" lon="1.773040000">
        <ele>448.70</ele>
        <time>2014-06-29T12:17:15Z</time>
      </trkpt>
      <trkpt lat="41.573941000" lon="1.773284000">
        <ele>448.40</ele>
        <time>2014-06-29T12:17:21Z</time>
      </trkpt>
      <trkpt lat="41.573915000" lon="1.773335000">
        <ele>448.90</ele>
        <time>2014-06-29T12:17:22Z</time>
      </trkpt>
      <trkpt lat="41.573742000" lon="1.773945000">
        <ele>449.80</ele>
        <time>2014-06-29T12:17:35Z</time>
      </trkpt>
      <trkpt lat="41.573628000" lon="1.774348000">
        <ele>452.00</ele>
        <time>2014-06-29T12:17:46Z</time>
      </trkpt>
      <trkpt lat="41.573508000" lon="1.774537000">
        <ele>453.40</ele>
        <time>2014-06-29T12:17:53Z</time>
      </trkpt>
      <trkpt lat="41.573598000" lon="1.774875000">
        <ele>454.00</ele>
        <time>2014-06-29T12:18:02Z</time>
      </trkpt>
      <trkpt lat="41.573783000" lon="1.775010000">
        <ele>455.00</ele>
        <time>2014-06-29T12:18:09Z</time>
      </trkpt>
      <trkpt lat="41.573814000" lon="1.775283000">
        <ele>455.20</ele>
        <time>2014-06-29T12:18:17Z</time>
      </trkpt>
      <trkpt lat="41.573776000" lon="1.775354000">
        <ele>455.40</ele>
        <time>2014-06-29T12:18:19Z</time>
      </trkpt>
      <trkpt lat="41.573949000" lon="1.775724000">
        <ele>454.60</ele>
        <time>2014-06-29T12:18:29Z</time>
      </trkpt>
      <trkpt lat="41.573991000" lon="1.775740000">
        <ele>454.50</ele>
        <time>2014-06-29T12:18:30Z</time>
      </trkpt>
      <trkpt lat="41.574066000" lon="1.775774000">
        <ele>454.40</ele>
        <time>2014-06-29T12:18:32Z</time>
      </trkpt>
      <trkpt lat="41.574439000" lon="1.775869000">
        <ele>456.60</ele>
        <time>2014-06-29T12:18:44Z</time>
      </trkpt>
      <trkpt lat="41.574472000" lon="1.775867000">
        <ele>456.60</ele>
        <time>2014-06-29T12:18:45Z</time>
      </trkpt>
      <trkpt lat="41.574567000" lon="1.776005000">
        <ele>457.50</ele>
        <time>2014-06-29T12:18:50Z</time>
      </trkpt>
      <trkpt lat="41.574757000" lon="1.776425000">
        <ele>459.20</ele>
        <time>2014-06-29T12:19:03Z</time>
      </trkpt>
      <trkpt lat="41.574854000" lon="1.776389000">
        <ele>459.50</ele>
        <time>2014-06-29T12:19:06Z</time>
      </trkpt>
      <trkpt lat="41.575159000" lon="1.775905000">
        <ele>461.80</ele>
        <time>2014-06-29T12:19:21Z</time>
      </trkpt>
      <trkpt lat="41.575219000" lon="1.775831000">
        <ele>462.40</ele>
        <time>2014-06-29T12:19:24Z</time>
      </trkpt>
      <trkpt lat="41.575482000" lon="1.775986000">
        <ele>465.10</ele>
        <time>2014-06-29T12:19:37Z</time>
      </trkpt>
      <trkpt lat="41.575595000" lon="1.776293000">
        <ele>465.30</ele>
        <time>2014-06-29T12:19:47Z</time>
      </trkpt>
      <trkpt lat="41.575497000" lon="1.776417000">
        <ele>465.60</ele>
        <time>2014-06-29T12:19:51Z</time>
      </trkpt>
      <trkpt lat="41.575579000" lon="1.776629000">
        <ele>465.90</ele>
        <time>2014-06-29T12:19:58Z</time>
      </trkpt>
      <trkpt lat="41.575615000" lon="1.776642000">
        <ele>465.80</ele>
        <time>2014-06-29T12:19:59Z</time>
      </trkpt>
      <trkpt lat="41.575938000" lon="1.776916000">
        <ele>467.40</ele>
        <time>2014-06-29T12:20:12Z</time>
      </trkpt>
      <trkpt lat="41.575755000" lon="1.777426000">
        <ele>469.30</ele>
        <time>2014-06-29T12:20:26Z</time>
      </trkpt>
      <trkpt lat="41.575605000" lon="1.777840000">
        <ele>470.10</ele>
        <time>2014-06-29T12:20:38Z</time>
      </trkpt>
      <trkpt lat="41.575636000" lon="1.778077000">
        <ele>472.40</ele>
        <time>2014-06-29T12:20:50Z</time>
      </trkpt>
      <trkpt lat="41.575641000" lon="1.778077000">
        <ele>472.40</ele>
        <time>2014-06-29T12:23:14Z</time>
      </trkpt>
      <trkpt lat="41.575633000" lon="1.778102000">
        <ele>472.50</ele>
        <time>2014-06-29T12:23:16Z</time>
      </trkpt>
      <trkpt lat="41.575345000" lon="1.778254000">
        <ele>472.10</ele>
        <time>2014-06-29T12:23:27Z</time>
      </trkpt>
      <trkpt lat="41.574548000" lon="1.778681000">
        <ele>471.10</ele>
        <time>2014-06-29T12:23:46Z</time>
      </trkpt>
      <trkpt lat="41.574282000" lon="1.778827000">
        <ele>470.60</ele>
        <time>2014-06-29T12:23:52Z</time>
      </trkpt>
      <trkpt lat="41.574200000" lon="1.779070000">
        <ele>470.60</ele>
        <time>2014-06-29T12:23:57Z</time>
      </trkpt>
      <trkpt lat="41.574239000" lon="1.779262000">
        <ele>469.90</ele>
        <time>2014-06-29T12:24:00Z</time>
      </trkpt>
      <trkpt lat="41.574220000" lon="1.779401000">
        <ele>469.40</ele>
        <time>2014-06-29T12:24:02Z</time>
      </trkpt>
      <trkpt lat="41.574278000" lon="1.779703000">
        <ele>467.20</ele>
        <time>2014-06-29T12:24:07Z</time>
      </trkpt>
      <trkpt lat="41.574331000" lon="1.780243000">
        <ele>463.30</ele>
        <time>2014-06-29T12:24:14Z</time>
      </trkpt>
      <trkpt lat="41.574329000" lon="1.780502000">
        <ele>462.90</ele>
        <time>2014-06-29T12:24:17Z</time>
      </trkpt>
      <trkpt lat="41.574366000" lon="1.780716000">
        <ele>461.50</ele>
        <time>2014-06-29T12:24:20Z</time>
      </trkpt>
      <trkpt lat="41.574382000" lon="1.780769000">
        <ele>460.60</ele>
        <time>2014-06-29T12:24:21Z</time>
      </trkpt>
      <trkpt lat="41.574466000" lon="1.780776000">
        <ele>459.30</ele>
        <time>2014-06-29T12:24:26Z</time>
      </trkpt>
      <trkpt lat="41.574529000" lon="1.780709000">
        <ele>459.20</ele>
        <time>2014-06-29T12:24:30Z</time>
      </trkpt>
      <trkpt lat="41.574583000" lon="1.780798000">
        <ele>459.40</ele>
        <time>2014-06-29T12:24:35Z</time>
      </trkpt>
      <trkpt lat="41.574556000" lon="1.780864000">
        <ele>458.70</ele>
        <time>2014-06-29T12:24:40Z</time>
      </trkpt>
      <trkpt lat="41.574528000" lon="1.780926000">
        <ele>457.30</ele>
        <time>2014-06-29T12:24:57Z</time>
      </trkpt>
      <trkpt lat="41.574529000" lon="1.781019000">
        <ele>455.80</ele>
        <time>2014-06-29T12:25:03Z</time>
      </trkpt>
      <trkpt lat="41.574506000" lon="1.781087000">
        <ele>454.70</ele>
        <time>2014-06-29T12:25:18Z</time>
      </trkpt>
      <trkpt lat="41.574504000" lon="1.781086000">
        <ele>454.60</ele>
        <time>2014-06-29T12:25:24Z</time>
      </trkpt>
      <trkpt lat="41.574252000" lon="1.781240000">
        <ele>454.50</ele>
        <time>2014-06-29T12:25:35Z</time>
      </trkpt>
      <trkpt lat="41.573883000" lon="1.781693000">
        <ele>455.00</ele>
        <time>2014-06-29T12:25:48Z</time>
      </trkpt>
      <trkpt lat="41.573793000" lon="1.782094000">
        <ele>454.30</ele>
        <time>2014-06-29T12:25:57Z</time>
      </trkpt>
      <trkpt lat="41.573691000" lon="1.782384000">
        <ele>452.80</ele>
        <time>2014-06-29T12:26:02Z</time>
      </trkpt>
      <trkpt lat="41.573615000" lon="1.782608000">
        <ele>451.50</ele>
        <time>2014-06-29T12:26:05Z</time>
      </trkpt>
      <trkpt lat="41.573417000" lon="1.783050000">
        <ele>448.20</ele>
        <time>2014-06-29T12:26:10Z</time>
      </trkpt>
      <trkpt lat="41.573185000" lon="1.783571000">
        <ele>445.10</ele>
        <time>2014-06-29T12:26:15Z</time>
      </trkpt>
      <trkpt lat="41.573134000" lon="1.783679000">
        <ele>444.80</ele>
        <time>2014-06-29T12:26:16Z</time>
      </trkpt>
      <trkpt lat="41.572881000" lon="1.784173000">
        <ele>445.10</ele>
        <time>2014-06-29T12:26:21Z</time>
      </trkpt>
      <trkpt lat="41.572162000" lon="1.785188000">
        <ele>443.50</ele>
        <time>2014-06-29T12:26:35Z</time>
      </trkpt>
      <trkpt lat="41.571644000" lon="1.785945000">
        <ele>440.50</ele>
        <time>2014-06-29T12:26:45Z</time>
      </trkpt>
      <trkpt lat="41.571420000" lon="1.786340000">
        <ele>438.70</ele>
        <time>2014-06-29T12:26:50Z</time>
      </trkpt>
      <trkpt lat="41.571129000" lon="1.786572000">
        <ele>437.30</ele>
        <time>2014-06-29T12:26:55Z</time>
      </trkpt>
      <trkpt lat="41.571027000" lon="1.786971000">
        <ele>436.50</ele>
        <time>2014-06-29T12:27:00Z</time>
      </trkpt>
      <trkpt lat="41.571097000" lon="1.787236000">
        <ele>435.90</ele>
        <time>2014-06-29T12:27:03Z</time>
      </trkpt>
      <trkpt lat="41.570959000" lon="1.788230000">
        <ele>432.50</ele>
        <time>2014-06-29T12:27:13Z</time>
      </trkpt>
      <trkpt lat="41.570806000" lon="1.789213000">
        <ele>429.40</ele>
        <time>2014-06-29T12:27:22Z</time>
      </trkpt>
      <trkpt lat="41.570693000" lon="1.789896000">
        <ele>427.80</ele>
        <time>2014-06-29T12:27:28Z</time>
      </trkpt>
      <trkpt lat="41.570624000" lon="1.790322000">
        <ele>427.20</ele>
        <time>2014-06-29T12:27:32Z</time>
      </trkpt>
      <trkpt lat="41.570426000" lon="1.790566000">
        <ele>426.00</ele>
        <time>2014-06-29T12:27:37Z</time>
      </trkpt>
      <trkpt lat="41.570319000" lon="1.790589000">
        <ele>425.90</ele>
        <time>2014-06-29T12:27:39Z</time>
      </trkpt>
      <trkpt lat="41.570155000" lon="1.790818000">
        <ele>425.80</ele>
        <time>2014-06-29T12:27:44Z</time>
      </trkpt>
      <trkpt lat="41.570111000" lon="1.790982000">
        <ele>425.80</ele>
        <time>2014-06-29T12:27:48Z</time>
      </trkpt>
      <trkpt lat="41.570126000" lon="1.791082000">
        <ele>425.50</ele>
        <time>2014-06-29T12:27:54Z</time>
      </trkpt>
      <trkpt lat="41.570037000" lon="1.791164000">
        <ele>423.50</ele>
        <time>2014-06-29T12:27:57Z</time>
      </trkpt>
      <trkpt lat="41.569827000" lon="1.791212000">
        <ele>422.70</ele>
        <time>2014-06-29T12:28:01Z</time>
      </trkpt>
      <trkpt lat="41.569607000" lon="1.791359000">
        <ele>423.30</ele>
        <time>2014-06-29T12:28:06Z</time>
      </trkpt>
      <trkpt lat="41.569369000" lon="1.791634000">
        <ele>424.80</ele>
        <time>2014-06-29T12:28:15Z</time>
      </trkpt>
      <trkpt lat="41.569199000" lon="1.792073000">
        <ele>423.90</ele>
        <time>2014-06-29T12:28:24Z</time>
      </trkpt>
      <trkpt lat="41.569094000" lon="1.792297000">
        <ele>423.10</ele>
        <time>2014-06-29T12:28:28Z</time>
      </trkpt>
      <trkpt lat="41.568946000" lon="1.792767000">
        <ele>421.80</ele>
        <time>2014-06-29T12:28:35Z</time>
      </trkpt>
      <trkpt lat="41.568799000" lon="1.793388000">
        <ele>420.10</ele>
        <time>2014-06-29T12:28:45Z</time>
      </trkpt>
      <trkpt lat="41.568753000" lon="1.793606000">
        <ele>420.00</ele>
        <time>2014-06-29T12:28:48Z</time>
      </trkpt>
      <trkpt lat="41.568568000" lon="1.793966000">
        <ele>419.60</ele>
        <time>2014-06-29T12:28:54Z</time>
      </trkpt>
      <trkpt lat="41.568606000" lon="1.794181000">
        <ele>418.70</ele>
        <time>2014-06-29T12:28:58Z</time>
      </trkpt>
      <trkpt lat="41.568498000" lon="1.794700000">
        <ele>415.90</ele>
        <time>2014-06-29T12:29:07Z</time>
      </trkpt>
      <trkpt lat="41.568429000" lon="1.794898000">
        <ele>414.50</ele>
        <time>2014-06-29T12:29:10Z</time>
      </trkpt>
      <trkpt lat="41.568268000" lon="1.795225000">
        <ele>412.60</ele>
        <time>2014-06-29T12:29:15Z</time>
      </trkpt>
      <trkpt lat="41.568265000" lon="1.795302000">
        <ele>411.50</ele>
        <time>2014-06-29T12:29:16Z</time>
      </trkpt>
      <trkpt lat="41.568199000" lon="1.795458000">
        <ele>410.10</ele>
        <time>2014-06-29T12:29:18Z</time>
      </trkpt>
      <trkpt lat="41.568120000" lon="1.795608000">
        <ele>409.10</ele>
        <time>2014-06-29T12:29:21Z</time>
      </trkpt>
      <trkpt lat="41.568110000" lon="1.795963000">
        <ele>406.80</ele>
        <time>2014-06-29T12:29:27Z</time>
      </trkpt>
      <trkpt lat="41.568201000" lon="1.795935000">
        <ele>405.80</ele>
        <time>2014-06-29T12:29:31Z</time>
      </trkpt>
      <trkpt lat="41.568355000" lon="1.795872000">
        <ele>404.00</ele>
        <time>2014-06-29T12:29:35Z</time>
      </trkpt>
      <trkpt lat="41.568475000" lon="1.796028000">
        <ele>401.00</ele>
        <time>2014-06-29T12:29:39Z</time>
      </trkpt>
      <trkpt lat="41.568519000" lon="1.796156000">
        <ele>399.80</ele>
        <time>2014-06-29T12:29:41Z</time>
      </trkpt>
      <trkpt lat="41.568523000" lon="1.796295000">
        <ele>399.10</ele>
        <time>2014-06-29T12:29:43Z</time>
      </trkpt>
      <trkpt lat="41.568497000" lon="1.796536000">
        <ele>397.00</ele>
        <time>2014-06-29T12:29:51Z</time>
      </trkpt>
      <trkpt lat="41.568487000" lon="1.796569000">
        <ele>395.90</ele>
        <time>2014-06-29T12:29:52Z</time>
      </trkpt>
      <trkpt lat="41.568416000" lon="1.796714000">
        <ele>393.50</ele>
        <time>2014-06-29T12:29:56Z</time>
      </trkpt>
      <trkpt lat="41.568372000" lon="1.796772000">
        <ele>392.30</ele>
        <time>2014-06-29T12:29:58Z</time>
      </trkpt>
      <trkpt lat="41.568343000" lon="1.796789000">
        <ele>391.90</ele>
        <time>2014-06-29T12:29:59Z</time>
      </trkpt>
      <trkpt lat="41.568265000" lon="1.796725000">
        <ele>390.80</ele>
        <time>2014-06-29T12:30:03Z</time>
      </trkpt>
      <trkpt lat="41.568159000" lon="1.796609000">
        <ele>389.60</ele>
        <time>2014-06-29T12:30:07Z</time>
      </trkpt>
      <trkpt lat="41.567942000" lon="1.796653000">
        <ele>388.20</ele>
        <time>2014-06-29T12:30:11Z</time>
      </trkpt>
      <trkpt lat="41.567487000" lon="1.796886000">
        <ele>384.90</ele>
        <time>2014-06-29T12:30:22Z</time>
      </trkpt>
      <trkpt lat="41.567407000" lon="1.796926000">
        <ele>383.80</ele>
        <time>2014-06-29T12:30:30Z</time>
      </trkpt>
      <trkpt lat="41.567392000" lon="1.796929000">
        <ele>383.40</ele>
        <time>2014-06-29T12:30:33Z</time>
      </trkpt>
      <trkpt lat="41.567285000" lon="1.797018000">
        <ele>381.10</ele>
        <time>2014-06-29T12:30:39Z</time>
      </trkpt>
      <trkpt lat="41.566904000" lon="1.797093000">
        <ele>380.50</ele>
        <time>2014-06-29T12:30:54Z</time>
      </trkpt>
      <trkpt lat="41.566786000" lon="1.797116000">
        <ele>379.70</ele>
        <time>2014-06-29T12:31:04Z</time>
      </trkpt>
      <trkpt lat="41.566738000" lon="1.797124000">
        <ele>379.70</ele>
        <time>2014-06-29T12:31:18Z</time>
      </trkpt>
      <trkpt lat="41.566616000" lon="1.797034000">
        <ele>379.60</ele>
        <time>2014-06-29T12:31:57Z</time>
      </trkpt>
      <trkpt lat="41.566528000" lon="1.797064000">
        <ele>379.20</ele>
        <time>2014-06-29T12:32:37Z</time>
      </trkpt>
      <trkpt lat="41.566455000" lon="1.797106000">
        <ele>378.90</ele>
        <time>2014-06-29T12:32:40Z</time>
      </trkpt>
      <trkpt lat="41.566338000" lon="1.797143000">
        <ele>378.80</ele>
        <time>2014-06-29T12:32:45Z</time>
      </trkpt>
      <trkpt lat="41.566139000" lon="1.797083000">
        <ele>377.50</ele>
        <time>2014-06-29T12:32:54Z</time>
      </trkpt>
      <trkpt lat="41.566020000" lon="1.797072000">
        <ele>377.40</ele>
        <time>2014-06-29T12:32:58Z</time>
      </trkpt>
      <trkpt lat="41.565923000" lon="1.797083000">
        <ele>377.20</ele>
        <time>2014-06-29T12:33:01Z</time>
      </trkpt>
      <trkpt lat="41.565852000" lon="1.797082000">
        <ele>377.30</ele>
        <time>2014-06-29T12:33:05Z</time>
      </trkpt>
      <trkpt lat="41.565791000" lon="1.797090000">
        <ele>377.30</ele>
        <time>2014-06-29T12:33:21Z</time>
      </trkpt>
      <trkpt lat="41.565762000" lon="1.797153000">
        <ele>378.20</ele>
        <time>2014-06-29T12:34:02Z</time>
      </trkpt>
      <trkpt lat="41.565717000" lon="1.797185000">
        <ele>379.00</ele>
        <time>2014-06-29T12:34:04Z</time>
      </trkpt>
      <trkpt lat="41.565644000" lon="1.797258000">
        <ele>380.10</ele>
        <time>2014-06-29T12:34:15Z</time>
      </trkpt>
      <trkpt lat="41.565611000" lon="1.797302000">
        <ele>380.60</ele>
        <time>2014-06-29T12:34:18Z</time>
      </trkpt>
      <trkpt lat="41.565585000" lon="1.797319000">
        <ele>380.90</ele>
        <time>2014-06-29T12:34:20Z</time>
      </trkpt>
      <trkpt lat="41.565530000" lon="1.797390000">
        <ele>381.60</ele>
        <time>2014-06-29T12:34:24Z</time>
      </trkpt>
      <trkpt lat="41.565322000" lon="1.797697000">
        <ele>384.50</ele>
        <time>2014-06-29T12:34:37Z</time>
      </trkpt>
      <trkpt lat="41.565271000" lon="1.797931000">
        <ele>385.60</ele>
        <time>2014-06-29T12:34:45Z</time>
      </trkpt>
      <trkpt lat="41.565342000" lon="1.797879000">
        <ele>386.10</ele>
        <time>2014-06-29T12:34:52Z</time>
      </trkpt>
      <trkpt lat="41.565358000" lon="1.797845000">
        <ele>385.90</ele>
        <time>2014-06-29T12:34:53Z</time>
      </trkpt>
      <trkpt lat="41.565430000" lon="1.797693000">
        <ele>387.20</ele>
        <time>2014-06-29T12:34:59Z</time>
      </trkpt>
      <trkpt lat="41.565613000" lon="1.797557000">
        <ele>386.90</ele>
        <time>2014-06-29T12:35:09Z</time>
      </trkpt>
      <trkpt lat="41.565837000" lon="1.797469000">
        <ele>388.00</ele>
        <time>2014-06-29T12:35:19Z</time>
      </trkpt>
      <trkpt lat="41.565934000" lon="1.797462000">
        <ele>388.10</ele>
        <time>2014-06-29T12:35:23Z</time>
      </trkpt>
      <trkpt lat="41.566074000" lon="1.797479000">
        <ele>388.50</ele>
        <time>2014-06-29T12:35:28Z</time>
      </trkpt>
      <trkpt lat="41.566331000" lon="1.797537000">
        <ele>391.50</ele>
        <time>2014-06-29T12:35:40Z</time>
      </trkpt>
      <trkpt lat="41.566469000" lon="1.797476000">
        <ele>392.30</ele>
        <time>2014-06-29T12:35:46Z</time>
      </trkpt>
      <trkpt lat="41.566642000" lon="1.797472000">
        <ele>392.80</ele>
        <time>2014-06-29T12:35:53Z</time>
      </trkpt>
      <trkpt lat="41.566783000" lon="1.797414000">
        <ele>392.90</ele>
        <time>2014-06-29T12:36:01Z</time>
      </trkpt>
      <trkpt lat="41.567139000" lon="1.797336000">
        <ele>394.10</ele>
        <time>2014-06-29T12:36:12Z</time>
      </trkpt>
      <trkpt lat="41.567530000" lon="1.797434000">
        <ele>395.90</ele>
        <time>2014-06-29T12:36:24Z</time>
      </trkpt>
      <trkpt lat="41.567893000" lon="1.797666000">
        <ele>397.50</ele>
        <time>2014-06-29T12:36:38Z</time>
      </trkpt>
      <trkpt lat="41.568140000" lon="1.797820000">
        <ele>399.50</ele>
        <time>2014-06-29T12:36:49Z</time>
      </trkpt>
      <trkpt lat="41.568336000" lon="1.797885000">
        <ele>400.20</ele>
        <time>2014-06-29T12:36:56Z</time>
      </trkpt>
      <trkpt lat="41.568532000" lon="1.798119000">
        <ele>401.50</ele>
        <time>2014-06-29T12:37:06Z</time>
      </trkpt>
      <trkpt lat="41.568483000" lon="1.798208000">
        <ele>401.20</ele>
        <time>2014-06-29T12:37:17Z</time>
      </trkpt>
      <trkpt lat="41.568325000" lon="1.798398000">
        <ele>400.80</ele>
        <time>2014-06-29T12:37:26Z</time>
      </trkpt>
      <trkpt lat="41.568294000" lon="1.798548000">
        <ele>400.50</ele>
        <time>2014-06-29T12:37:30Z</time>
      </trkpt>
      <trkpt lat="41.568317000" lon="1.798905000">
        <ele>400.70</ele>
        <time>2014-06-29T12:37:40Z</time>
      </trkpt>
      <trkpt lat="41.568257000" lon="1.799384000">
        <ele>400.40</ele>
        <time>2014-06-29T12:37:51Z</time>
      </trkpt>
      <trkpt lat="41.568160000" lon="1.800054000">
        <ele>398.60</ele>
        <time>2014-06-29T12:38:04Z</time>
      </trkpt>
      <trkpt lat="41.568116000" lon="1.800250000">
        <ele>398.20</ele>
        <time>2014-06-29T12:38:07Z</time>
      </trkpt>
      <trkpt lat="41.568035000" lon="1.800755000">
        <ele>399.20</ele>
        <time>2014-06-29T12:38:15Z</time>
      </trkpt>
      <trkpt lat="41.567762000" lon="1.800998000">
        <ele>398.20</ele>
        <time>2014-06-29T12:38:26Z</time>
      </trkpt>
      <trkpt lat="41.567462000" lon="1.801469000">
        <ele>397.70</ele>
        <time>2014-06-29T12:38:40Z</time>
      </trkpt>
      <trkpt lat="41.567513000" lon="1.801756000">
        <ele>397.70</ele>
        <time>2014-06-29T12:38:46Z</time>
      </trkpt>
      <trkpt lat="41.568106000" lon="1.802473000">
        <ele>397.30</ele>
        <time>2014-06-29T12:39:06Z</time>
      </trkpt>
      <trkpt lat="41.568366000" lon="1.802830000">
        <ele>397.40</ele>
        <time>2014-06-29T12:39:15Z</time>
      </trkpt>
      <trkpt lat="41.568374000" lon="1.803002000">
        <ele>397.30</ele>
        <time>2014-06-29T12:39:18Z</time>
      </trkpt>
      <trkpt lat="41.568181000" lon="1.803990000">
        <ele>394.90</ele>
        <time>2014-06-29T12:39:32Z</time>
      </trkpt>
      <trkpt lat="41.567919000" lon="1.805093000">
        <ele>391.60</ele>
        <time>2014-06-29T12:39:44Z</time>
      </trkpt>
      <trkpt lat="41.567870000" lon="1.805304000">
        <ele>390.80</ele>
        <time>2014-06-29T12:39:46Z</time>
      </trkpt>
      <trkpt lat="41.567666000" lon="1.806127000">
        <ele>387.20</ele>
        <time>2014-06-29T12:39:53Z</time>
      </trkpt>
      <trkpt lat="41.567433000" lon="1.807044000">
        <ele>383.50</ele>
        <time>2014-06-29T12:40:00Z</time>
      </trkpt>
      <trkpt lat="41.567278000" lon="1.807607000">
        <ele>380.40</ele>
        <time>2014-06-29T12:40:04Z</time>
      </trkpt>
      <trkpt lat="41.567127000" lon="1.808022000">
        <ele>379.20</ele>
        <time>2014-06-29T12:40:07Z</time>
      </trkpt>
      <trkpt lat="41.566275000" lon="1.809597000">
        <ele>375.40</ele>
        <time>2014-06-29T12:40:20Z</time>
      </trkpt>
      <trkpt lat="41.566028000" lon="1.809924000">
        <ele>373.00</ele>
        <time>2014-06-29T12:40:23Z</time>
      </trkpt>
      <trkpt lat="41.565519000" lon="1.810577000">
        <ele>369.60</ele>
        <time>2014-06-29T12:40:29Z</time>
      </trkpt>
      <trkpt lat="41.565251000" lon="1.810896000">
        <ele>367.40</ele>
        <time>2014-06-29T12:40:32Z</time>
      </trkpt>
      <trkpt lat="41.565075000" lon="1.811087000">
        <ele>366.30</ele>
        <time>2014-06-29T12:40:34Z</time>
      </trkpt>
      <trkpt lat="41.564512000" lon="1.811770000">
        <ele>363.70</ele>
        <time>2014-06-29T12:40:43Z</time>
      </trkpt>
      <trkpt lat="41.564391000" lon="1.811925000">
        <ele>362.70</ele>
        <time>2014-06-29T12:40:45Z</time>
      </trkpt>
      <trkpt lat="41.564001000" lon="1.812411000">
        <ele>360.40</ele>
        <time>2014-06-29T12:40:51Z</time>
      </trkpt>
      <trkpt lat="41.563561000" lon="1.812917000">
        <ele>357.30</ele>
        <time>2014-06-29T12:40:57Z</time>
      </trkpt>
      <trkpt lat="41.563251000" lon="1.813283000">
        <ele>354.30</ele>
        <time>2014-06-29T12:41:01Z</time>
      </trkpt>
      <trkpt lat="41.563172000" lon="1.813375000">
        <ele>354.00</ele>
        <time>2014-06-29T12:41:02Z</time>
      </trkpt>
      <trkpt lat="41.562827000" lon="1.813727000">
        <ele>351.00</ele>
        <time>2014-06-29T12:41:06Z</time>
      </trkpt>
      <trkpt lat="41.562419000" lon="1.814182000">
        <ele>347.50</ele>
        <time>2014-06-29T12:41:11Z</time>
      </trkpt>
      <trkpt lat="41.562344000" lon="1.814280000">
        <ele>347.40</ele>
        <time>2014-06-29T12:41:12Z</time>
      </trkpt>
      <trkpt lat="41.561961000" lon="1.814759000">
        <ele>347.00</ele>
        <time>2014-06-29T12:41:18Z</time>
      </trkpt>
      <trkpt lat="41.561764000" lon="1.815071000">
        <ele>344.90</ele>
        <time>2014-06-29T12:41:22Z</time>
      </trkpt>
      <trkpt lat="41.561588000" lon="1.815414000">
        <ele>343.90</ele>
        <time>2014-06-29T12:41:26Z</time>
      </trkpt>
      <trkpt lat="41.561323000" lon="1.815608000">
        <ele>341.10</ele>
        <time>2014-06-29T12:41:34Z</time>
      </trkpt>
      <trkpt lat="41.561268000" lon="1.815598000">
        <ele>340.40</ele>
        <time>2014-06-29T12:41:35Z</time>
      </trkpt>
      <trkpt lat="41.560799000" lon="1.815646000">
        <ele>338.00</ele>
        <time>2014-06-29T12:41:45Z</time>
      </trkpt>
      <trkpt lat="41.560763000" lon="1.815745000">
        <ele>337.70</ele>
        <time>2014-06-29T12:41:47Z</time>
      </trkpt>
      <trkpt lat="41.560673000" lon="1.816092000">
        <ele>336.50</ele>
        <time>2014-06-29T12:41:53Z</time>
      </trkpt>
      <trkpt lat="41.560582000" lon="1.816899000">
        <ele>333.30</ele>
        <time>2014-06-29T12:42:06Z</time>
      </trkpt>
      <trkpt lat="41.560579000" lon="1.816959000">
        <ele>332.70</ele>
        <time>2014-06-29T12:42:07Z</time>
      </trkpt>
      <trkpt lat="41.560562000" lon="1.817385000">
        <ele>330.60</ele>
        <time>2014-06-29T12:42:14Z</time>
      </trkpt>
      <trkpt lat="41.560389000" lon="1.817432000">
        <ele>327.20</ele>
        <time>2014-06-29T12:42:18Z</time>
      </trkpt>
      <trkpt lat="41.560134000" lon="1.817614000">
        <ele>327.70</ele>
        <time>2014-06-29T12:42:24Z</time>
      </trkpt>
      <trkpt lat="41.560126000" lon="1.818122000">
        <ele>327.00</ele>
        <time>2014-06-29T12:42:30Z</time>
      </trkpt>
      <trkpt lat="41.560017000" lon="1.818490000">
        <ele>328.10</ele>
        <time>2014-06-29T12:42:35Z</time>
      </trkpt>
      <trkpt lat="41.559794000" lon="1.819137000">
        <ele>328.60</ele>
        <time>2014-06-29T12:42:45Z</time>
      </trkpt>
      <trkpt lat="41.559481000" lon="1.820098000">
        <ele>327.90</ele>
        <time>2014-06-29T12:42:59Z</time>
      </trkpt>
      <trkpt lat="41.559429000" lon="1.820304000">
        <ele>327.90</ele>
        <time>2014-06-29T12:43:02Z</time>
      </trkpt>
      <trkpt lat="41.558878000" lon="1.821659000">
        <ele>326.70</ele>
        <time>2014-06-29T12:43:22Z</time>
      </trkpt>
      <trkpt lat="41.558747000" lon="1.821885000">
        <ele>326.40</ele>
        <time>2014-06-29T12:43:26Z</time>
      </trkpt>
      <trkpt lat="41.558544000" lon="1.822137000">
        <ele>326.70</ele>
        <time>2014-06-29T12:43:31Z</time>
      </trkpt>
      <trkpt lat="41.558134000" lon="1.822430000">
        <ele>326.30</ele>
        <time>2014-06-29T12:43:41Z</time>
      </trkpt>
      <trkpt lat="41.558059000" lon="1.822764000">
        <ele>323.70</ele>
        <time>2014-06-29T12:43:47Z</time>
      </trkpt>
      <trkpt lat="41.558171000" lon="1.823402000">
        <ele>319.90</ele>
        <time>2014-06-29T12:43:54Z</time>
      </trkpt>
      <trkpt lat="41.558205000" lon="1.823597000">
        <ele>319.20</ele>
        <time>2014-06-29T12:43:56Z</time>
      </trkpt>
      <trkpt lat="41.558371000" lon="1.824534000">
        <ele>316.10</ele>
        <time>2014-06-29T12:44:06Z</time>
      </trkpt>
      <trkpt lat="41.558479000" lon="1.825063000">
        <ele>315.00</ele>
        <time>2014-06-29T12:44:12Z</time>
      </trkpt>
      <trkpt lat="41.558452000" lon="1.825410000">
        <ele>314.20</ele>
        <time>2014-06-29T12:44:16Z</time>
      </trkpt>
      <trkpt lat="41.558031000" lon="1.826514000">
        <ele>311.20</ele>
        <time>2014-06-29T12:44:29Z</time>
      </trkpt>
      <trkpt lat="41.557868000" lon="1.826964000">
        <ele>308.40</ele>
        <time>2014-06-29T12:44:34Z</time>
      </trkpt>
      <trkpt lat="41.557773000" lon="1.827243000">
        <ele>307.10</ele>
        <time>2014-06-29T12:44:37Z</time>
      </trkpt>
      <trkpt lat="41.557579000" lon="1.827779000">
        <ele>306.20</ele>
        <time>2014-06-29T12:44:43Z</time>
      </trkpt>
      <trkpt lat="41.557510000" lon="1.827973000">
        <ele>306.90</ele>
        <time>2014-06-29T12:44:46Z</time>
      </trkpt>
      <trkpt lat="41.557294000" lon="1.827891000">
        <ele>306.10</ele>
        <time>2014-06-29T12:44:52Z</time>
      </trkpt>
      <trkpt lat="41.556620000" lon="1.827075000">
        <ele>305.00</ele>
        <time>2014-06-29T12:45:14Z</time>
      </trkpt>
      <trkpt lat="41.556580000" lon="1.826982000">
        <ele>305.90</ele>
        <time>2014-06-29T12:45:16Z</time>
      </trkpt>
      <trkpt lat="41.555949000" lon="1.826044000">
        <ele>309.20</ele>
        <time>2014-06-29T12:45:39Z</time>
      </trkpt>
      <trkpt lat="41.555764000" lon="1.825818000">
        <ele>312.20</ele>
        <time>2014-06-29T12:45:47Z</time>
      </trkpt>
      <trkpt lat="41.555454000" lon="1.825835000">
        <ele>313.80</ele>
        <time>2014-06-29T12:45:58Z</time>
      </trkpt>
      <trkpt lat="41.554776000" lon="1.826399000">
        <ele>314.10</ele>
        <time>2014-06-29T12:46:19Z</time>
      </trkpt>
      <trkpt lat="41.554505000" lon="1.826765000">
        <ele>314.40</ele>
        <time>2014-06-29T12:46:31Z</time>
      </trkpt>
      <trkpt lat="41.554437000" lon="1.826927000">
        <ele>312.70</ele>
        <time>2014-06-29T12:46:35Z</time>
      </trkpt>
      <trkpt lat="41.554380000" lon="1.827013000">
        <ele>311.50</ele>
        <time>2014-06-29T12:46:37Z</time>
      </trkpt>
      <trkpt lat="41.554300000" lon="1.827111000">
        <ele>310.20</ele>
        <time>2014-06-29T12:46:39Z</time>
      </trkpt>
      <trkpt lat="41.554196000" lon="1.827327000">
        <ele>308.30</ele>
        <time>2014-06-29T12:46:42Z</time>
      </trkpt>
      <trkpt lat="41.554161000" lon="1.827502000">
        <ele>307.90</ele>
        <time>2014-06-29T12:46:44Z</time>
      </trkpt>
      <trkpt lat="41.554156000" lon="1.827768000">
        <ele>306.00</ele>
        <time>2014-06-29T12:46:47Z</time>
      </trkpt>
      <trkpt lat="41.554162000" lon="1.828108000">
        <ele>306.80</ele>
        <time>2014-06-29T12:46:53Z</time>
      </trkpt>
      <trkpt lat="41.554113000" lon="1.828344000">
        <ele>305.80</ele>
        <time>2014-06-29T12:46:57Z</time>
      </trkpt>
      <trkpt lat="41.553952000" lon="1.828713000">
        <ele>304.80</ele>
        <time>2014-06-29T12:47:03Z</time>
      </trkpt>
      <trkpt lat="41.553851000" lon="1.829005000">
        <ele>303.70</ele>
        <time>2014-06-29T12:47:07Z</time>
      </trkpt>
      <trkpt lat="41.553917000" lon="1.829243000">
        <ele>302.80</ele>
        <time>2014-06-29T12:47:11Z</time>
      </trkpt>
      <trkpt lat="41.554258000" lon="1.829510000">
        <ele>305.80</ele>
        <time>2014-06-29T12:47:21Z</time>
      </trkpt>
      <trkpt lat="41.554327000" lon="1.829551000">
        <ele>306.90</ele>
        <time>2014-06-29T12:47:23Z</time>
      </trkpt>
      <trkpt lat="41.554357000" lon="1.829833000">
        <ele>308.10</ele>
        <time>2014-06-29T12:47:30Z</time>
      </trkpt>
      <trkpt lat="41.554117000" lon="1.830390000">
        <ele>310.80</ele>
        <time>2014-06-29T12:47:45Z</time>
      </trkpt>
      <trkpt lat="41.554055000" lon="1.830512000">
        <ele>311.90</ele>
        <time>2014-06-29T12:47:49Z</time>
      </trkpt>
      <trkpt lat="41.553905000" lon="1.830789000">
        <ele>315.60</ele>
        <time>2014-06-29T12:48:00Z</time>
      </trkpt>
      <trkpt lat="41.553655000" lon="1.831343000">
        <ele>318.00</ele>
        <time>2014-06-29T12:48:19Z</time>
      </trkpt>
      <trkpt lat="41.553589000" lon="1.831447000">
        <ele>316.70</ele>
        <time>2014-06-29T12:48:22Z</time>
      </trkpt>
      <trkpt lat="41.553423000" lon="1.831706000">
        <ele>315.40</ele>
        <time>2014-06-29T12:48:28Z</time>
      </trkpt>
      <trkpt lat="41.553264000" lon="1.831988000">
        <ele>313.30</ele>
        <time>2014-06-29T12:48:33Z</time>
      </trkpt>
      <trkpt lat="41.553041000" lon="1.832172000">
        <ele>312.00</ele>
        <time>2014-06-29T12:48:37Z</time>
      </trkpt>
      <trkpt lat="41.552921000" lon="1.832382000">
        <ele>309.80</ele>
        <time>2014-06-29T12:48:42Z</time>
      </trkpt>
      <trkpt lat="41.552835000" lon="1.832559000">
        <ele>308.10</ele>
        <time>2014-06-29T12:48:45Z</time>
      </trkpt>
      <trkpt lat="41.552774000" lon="1.832602000">
        <ele>307.70</ele>
        <time>2014-06-29T12:48:46Z</time>
      </trkpt>
      <trkpt lat="41.552671000" lon="1.832706000">
        <ele>307.00</ele>
        <time>2014-06-29T12:48:48Z</time>
      </trkpt>
      <trkpt lat="41.552618000" lon="1.832934000">
        <ele>304.60</ele>
        <time>2014-06-29T12:48:51Z</time>
      </trkpt>
      <trkpt lat="41.552857000" lon="1.833390000">
        <ele>304.70</ele>
        <time>2014-06-29T12:48:59Z</time>
      </trkpt>
      <trkpt lat="41.553195000" lon="1.833780000">
        <ele>308.00</ele>
        <time>2014-06-29T12:49:11Z</time>
      </trkpt>
      <trkpt lat="41.553203000" lon="1.834248000">
        <ele>310.60</ele>
        <time>2014-06-29T12:49:22Z</time>
      </trkpt>
      <trkpt lat="41.553177000" lon="1.834327000">
        <ele>311.40</ele>
        <time>2014-06-29T12:49:24Z</time>
      </trkpt>
      <trkpt lat="41.553157000" lon="1.834406000">
        <ele>312.60</ele>
        <time>2014-06-29T12:49:26Z</time>
      </trkpt>
      <trkpt lat="41.553037000" lon="1.834668000">
        <ele>316.00</ele>
        <time>2014-06-29T12:49:33Z</time>
      </trkpt>
      <trkpt lat="41.553013000" lon="1.834696000">
        <ele>316.30</ele>
        <time>2014-06-29T12:49:34Z</time>
      </trkpt>
      <trkpt lat="41.552790000" lon="1.834906000">
        <ele>313.90</ele>
        <time>2014-06-29T12:49:41Z</time>
      </trkpt>
      <trkpt lat="41.552665000" lon="1.835282000">
        <ele>310.40</ele>
        <time>2014-06-29T12:49:48Z</time>
      </trkpt>
      <trkpt lat="41.552685000" lon="1.835367000">
        <ele>307.80</ele>
        <time>2014-06-29T12:49:49Z</time>
      </trkpt>
      <trkpt lat="41.552764000" lon="1.835692000">
        <ele>302.80</ele>
        <time>2014-06-29T12:49:52Z</time>
      </trkpt>
      <trkpt lat="41.552792000" lon="1.835800000">
        <ele>302.70</ele>
        <time>2014-06-29T12:49:53Z</time>
      </trkpt>
      <trkpt lat="41.552758000" lon="1.836319000">
        <ele>302.80</ele>
        <time>2014-06-29T12:49:58Z</time>
      </trkpt>
      <trkpt lat="41.552452000" lon="1.837018000">
        <ele>305.80</ele>
        <time>2014-06-29T12:50:09Z</time>
      </trkpt>
      <trkpt lat="41.552187000" lon="1.837411000">
        <ele>307.20</ele>
        <time>2014-06-29T12:50:18Z</time>
      </trkpt>
      <trkpt lat="41.552050000" lon="1.837557000">
        <ele>307.30</ele>
        <time>2014-06-29T12:50:22Z</time>
      </trkpt>
      <trkpt lat="41.551732000" lon="1.838038000">
        <ele>309.80</ele>
        <time>2014-06-29T12:50:34Z</time>
      </trkpt>
      <trkpt lat="41.551469000" lon="1.838485000">
        <ele>308.10</ele>
        <time>2014-06-29T12:50:43Z</time>
      </trkpt>
      <trkpt lat="41.551367000" lon="1.838992000">
        <ele>304.20</ele>
        <time>2014-06-29T12:50:49Z</time>
      </trkpt>
      <trkpt lat="41.551113000" lon="1.839923000">
        <ele>301.40</ele>
        <time>2014-06-29T12:50:59Z</time>
      </trkpt>
      <trkpt lat="41.550904000" lon="1.840393000">
        <ele>297.90</ele>
        <time>2014-06-29T12:51:04Z</time>
      </trkpt>
      <trkpt lat="41.550859000" lon="1.840495000">
        <ele>297.80</ele>
        <time>2014-06-29T12:51:05Z</time>
      </trkpt>
      <trkpt lat="41.550756000" lon="1.840723000">
        <ele>294.80</ele>
        <time>2014-06-29T12:51:07Z</time>
      </trkpt>
      <trkpt lat="41.550613000" lon="1.841086000">
        <ele>291.70</ele>
        <time>2014-06-29T12:51:10Z</time>
      </trkpt>
      <trkpt lat="41.550468000" lon="1.841454000">
        <ele>289.60</ele>
        <time>2014-06-29T12:51:13Z</time>
      </trkpt>
      <trkpt lat="41.550078000" lon="1.842374000">
        <ele>291.50</ele>
        <time>2014-06-29T12:51:22Z</time>
      </trkpt>
      <trkpt lat="41.549816000" lon="1.842851000">
        <ele>291.80</ele>
        <time>2014-06-29T12:51:30Z</time>
      </trkpt>
      <trkpt lat="41.549481000" lon="1.843396000">
        <ele>289.40</ele>
        <time>2014-06-29T12:51:37Z</time>
      </trkpt>
      <trkpt lat="41.549264000" lon="1.844079000">
        <ele>286.30</ele>
        <time>2014-06-29T12:51:45Z</time>
      </trkpt>
      <trkpt lat="41.549178000" lon="1.844406000">
        <ele>284.40</ele>
        <time>2014-06-29T12:51:48Z</time>
      </trkpt>
      <trkpt lat="41.548701000" lon="1.845861000">
        <ele>283.50</ele>
        <time>2014-06-29T12:52:03Z</time>
      </trkpt>
      <trkpt lat="41.548566000" lon="1.846237000">
        <ele>283.80</ele>
        <time>2014-06-29T12:52:08Z</time>
      </trkpt>
      <trkpt lat="41.548409000" lon="1.846610000">
        <ele>283.40</ele>
        <time>2014-06-29T12:52:14Z</time>
      </trkpt>
      <trkpt lat="41.548404000" lon="1.846825000">
        <ele>279.90</ele>
        <time>2014-06-29T12:52:17Z</time>
      </trkpt>
      <trkpt lat="41.548495000" lon="1.847019000">
        <ele>276.60</ele>
        <time>2014-06-29T12:52:20Z</time>
      </trkpt>
      <trkpt lat="41.548547000" lon="1.847065000">
        <ele>276.80</ele>
        <time>2014-06-29T12:52:21Z</time>
      </trkpt>
      <trkpt lat="41.548645000" lon="1.847137000">
        <ele>274.80</ele>
        <time>2014-06-29T12:52:23Z</time>
      </trkpt>
      <trkpt lat="41.548748000" lon="1.847186000">
        <ele>273.30</ele>
        <time>2014-06-29T12:52:25Z</time>
      </trkpt>
      <trkpt lat="41.548812000" lon="1.847318000">
        <ele>272.40</ele>
        <time>2014-06-29T12:52:29Z</time>
      </trkpt>
      <trkpt lat="41.548791000" lon="1.847627000">
        <ele>271.80</ele>
        <time>2014-06-29T12:52:36Z</time>
      </trkpt>
      <trkpt lat="41.548627000" lon="1.847736000">
        <ele>272.80</ele>
        <time>2014-06-29T12:52:44Z</time>
      </trkpt>
      <trkpt lat="41.548629000" lon="1.847734000">
        <ele>271.60</ele>
        <time>2014-06-29T12:52:56Z</time>
      </trkpt>
      <trkpt lat="41.548600000" lon="1.847865000">
        <ele>269.70</ele>
        <time>2014-06-29T12:53:00Z</time>
      </trkpt>
      <trkpt lat="41.548528000" lon="1.848091000">
        <ele>265.70</ele>
        <time>2014-06-29T12:53:04Z</time>
      </trkpt>
      <trkpt lat="41.548458000" lon="1.848317000">
        <ele>262.20</ele>
        <time>2014-06-29T12:53:07Z</time>
      </trkpt>
      <trkpt lat="41.548392000" lon="1.848474000">
        <ele>260.30</ele>
        <time>2014-06-29T12:53:09Z</time>
      </trkpt>
      <trkpt lat="41.548180000" lon="1.848827000">
        <ele>255.30</ele>
        <time>2014-06-29T12:53:14Z</time>
      </trkpt>
      <trkpt lat="41.548080000" lon="1.848960000">
        <ele>254.20</ele>
        <time>2014-06-29T12:53:16Z</time>
      </trkpt>
      <trkpt lat="41.547940000" lon="1.849147000">
        <ele>252.00</ele>
        <time>2014-06-29T12:53:19Z</time>
      </trkpt>
      <trkpt lat="41.547847000" lon="1.849283000">
        <ele>249.00</ele>
        <time>2014-06-29T12:53:21Z</time>
      </trkpt>
      <trkpt lat="41.547754000" lon="1.849424000">
        <ele>247.70</ele>
        <time>2014-06-29T12:53:23Z</time>
      </trkpt>
      <trkpt lat="41.547574000" lon="1.849737000">
        <ele>243.10</ele>
        <time>2014-06-29T12:53:27Z</time>
      </trkpt>
      <trkpt lat="41.547480000" lon="1.849904000">
        <ele>240.00</ele>
        <time>2014-06-29T12:53:29Z</time>
      </trkpt>
      <trkpt lat="41.547328000" lon="1.850186000">
        <ele>237.00</ele>
        <time>2014-06-29T12:53:32Z</time>
      </trkpt>
      <trkpt lat="41.547154000" lon="1.850462000">
        <ele>234.10</ele>
        <time>2014-06-29T12:53:35Z</time>
      </trkpt>
      <trkpt lat="41.546932000" lon="1.850866000">
        <ele>230.00</ele>
        <time>2014-06-29T12:53:39Z</time>
      </trkpt>
      <trkpt lat="41.546873000" lon="1.850967000">
        <ele>230.70</ele>
        <time>2014-06-29T12:53:40Z</time>
      </trkpt>
      <trkpt lat="41.546678000" lon="1.851385000">
        <ele>229.20</ele>
        <time>2014-06-29T12:53:44Z</time>
      </trkpt>
      <trkpt lat="41.546568000" lon="1.851732000">
        <ele>228.40</ele>
        <time>2014-06-29T12:53:47Z</time>
      </trkpt>
      <trkpt lat="41.546206000" lon="1.852255000">
        <ele>226.20</ele>
        <time>2014-06-29T12:53:53Z</time>
      </trkpt>
      <trkpt lat="41.545698000" lon="1.852801000">
        <ele>224.70</ele>
        <time>2014-06-29T12:54:01Z</time>
      </trkpt>
      <trkpt lat="41.545549000" lon="1.853042000">
        <ele>224.70</ele>
        <time>2014-06-29T12:54:04Z</time>
      </trkpt>
      <trkpt lat="41.545046000" lon="1.853551000">
        <ele>223.10</ele>
        <time>2014-06-29T12:54:12Z</time>
      </trkpt>
      <trkpt lat="41.544867000" lon="1.853731000">
        <ele>222.00</ele>
        <time>2014-06-29T12:54:15Z</time>
      </trkpt>
      <trkpt lat="41.544509000" lon="1.854072000">
        <ele>221.20</ele>
        <time>2014-06-29T12:54:21Z</time>
      </trkpt>
      <trkpt lat="41.544280000" lon="1.854154000">
        <ele>219.30</ele>
        <time>2014-06-29T12:54:25Z</time>
      </trkpt>
      <trkpt lat="41.544147000" lon="1.854270000">
        <ele>223.10</ele>
        <time>2014-06-29T12:54:32Z</time>
      </trkpt>
      <trkpt lat="41.544370000" lon="1.854676000">
        <ele>223.90</ele>
        <time>2014-06-29T12:54:40Z</time>
      </trkpt>
      <trkpt lat="41.544451000" lon="1.854896000">
        <ele>223.60</ele>
        <time>2014-06-29T12:54:44Z</time>
      </trkpt>
      <trkpt lat="41.544454000" lon="1.855178000">
        <ele>221.80</ele>
        <time>2014-06-29T12:54:48Z</time>
      </trkpt>
      <trkpt lat="41.544416000" lon="1.855465000">
        <ele>217.70</ele>
        <time>2014-06-29T12:54:51Z</time>
      </trkpt>
      <trkpt lat="41.544415000" lon="1.855696000">
        <ele>216.50</ele>
        <time>2014-06-29T12:54:53Z</time>
      </trkpt>
      <trkpt lat="41.544472000" lon="1.856569000">
        <ele>215.30</ele>
        <time>2014-06-29T12:55:01Z</time>
      </trkpt>
      <trkpt lat="41.544396000" lon="1.856941000">
        <ele>214.60</ele>
        <time>2014-06-29T12:55:05Z</time>
      </trkpt>
      <trkpt lat="41.544021000" lon="1.857547000">
        <ele>213.10</ele>
        <time>2014-06-29T12:55:13Z</time>
      </trkpt>
      <trkpt lat="41.543903000" lon="1.857798000">
        <ele>212.20</ele>
        <time>2014-06-29T12:55:16Z</time>
      </trkpt>
      <trkpt lat="41.543635000" lon="1.858005000">
        <ele>211.00</ele>
        <time>2014-06-29T12:55:21Z</time>
      </trkpt>
      <trkpt lat="41.543464000" lon="1.858279000">
        <ele>209.90</ele>
        <time>2014-06-29T12:55:25Z</time>
      </trkpt>
      <trkpt lat="41.543072000" lon="1.859277000">
        <ele>206.80</ele>
        <time>2014-06-29T12:55:37Z</time>
      </trkpt>
      <trkpt lat="41.542758000" lon="1.859858000">
        <ele>205.10</ele>
        <time>2014-06-29T12:55:44Z</time>
      </trkpt>
      <trkpt lat="41.542769000" lon="1.860555000">
        <ele>203.40</ele>
        <time>2014-06-29T12:55:51Z</time>
      </trkpt>
      <trkpt lat="41.542820000" lon="1.860625000">
        <ele>203.50</ele>
        <time>2014-06-29T12:55:52Z</time>
      </trkpt>
      <trkpt lat="41.542904000" lon="1.860762000">
        <ele>203.60</ele>
        <time>2014-06-29T12:55:54Z</time>
      </trkpt>
      <trkpt lat="41.542784000" lon="1.861106000">
        <ele>203.30</ele>
        <time>2014-06-29T12:56:00Z</time>
      </trkpt>
      <trkpt lat="41.542040000" lon="1.861690000">
        <ele>200.70</ele>
        <time>2014-06-29T12:56:15Z</time>
      </trkpt>
      <trkpt lat="41.541833000" lon="1.861877000">
        <ele>199.60</ele>
        <time>2014-06-29T12:56:21Z</time>
      </trkpt>
      <trkpt lat="41.541211000" lon="1.862317000">
        <ele>196.70</ele>
        <time>2014-06-29T12:56:36Z</time>
      </trkpt>
      <trkpt lat="41.541068000" lon="1.862430000">
        <ele>196.50</ele>
        <time>2014-06-29T12:56:39Z</time>
      </trkpt>
      <trkpt lat="41.540503000" lon="1.862826000">
        <ele>193.80</ele>
        <time>2014-06-29T12:56:50Z</time>
      </trkpt>
      <trkpt lat="41.540468000" lon="1.863073000">
        <ele>193.70</ele>
        <time>2014-06-29T12:56:56Z</time>
      </trkpt>
      <trkpt lat="41.540560000" lon="1.863195000">
        <ele>194.60</ele>
        <time>2014-06-29T12:56:59Z</time>
      </trkpt>
      <trkpt lat="41.540459000" lon="1.863434000">
        <ele>193.60</ele>
        <time>2014-06-29T12:57:05Z</time>
      </trkpt>
      <trkpt lat="41.539913000" lon="1.863739000">
        <ele>190.20</ele>
        <time>2014-06-29T12:57:15Z</time>
      </trkpt>
      <trkpt lat="41.539445000" lon="1.864010000">
        <ele>188.40</ele>
        <time>2014-06-29T12:57:22Z</time>
      </trkpt>
      <trkpt lat="41.539241000" lon="1.864115000">
        <ele>187.40</ele>
        <time>2014-06-29T12:57:25Z</time>
      </trkpt>
      <trkpt lat="41.539063000" lon="1.864366000">
        <ele>187.00</ele>
        <time>2014-06-29T12:57:31Z</time>
      </trkpt>
      <trkpt lat="41.539131000" lon="1.864435000">
        <ele>187.50</ele>
        <time>2014-06-29T12:57:33Z</time>
      </trkpt>
      <trkpt lat="41.539441000" lon="1.865111000">
        <ele>189.00</ele>
        <time>2014-06-29T12:57:48Z</time>
      </trkpt>
      <trkpt lat="41.539781000" lon="1.865877000">
        <ele>191.30</ele>
        <time>2014-06-29T12:58:06Z</time>
      </trkpt>
      <trkpt lat="41.539802000" lon="1.865917000">
        <ele>191.50</ele>
        <time>2014-06-29T12:58:07Z</time>
      </trkpt>
      <trkpt lat="41.539925000" lon="1.866195000">
        <ele>190.60</ele>
        <time>2014-06-29T12:58:14Z</time>
      </trkpt>
      <trkpt lat="41.540046000" lon="1.866417000">
        <ele>189.60</ele>
        <time>2014-06-29T12:58:18Z</time>
      </trkpt>
      <trkpt lat="41.540113000" lon="1.866588000">
        <ele>189.80</ele>
        <time>2014-06-29T12:58:21Z</time>
      </trkpt>
      <trkpt lat="41.540236000" lon="1.867007000">
        <ele>190.30</ele>
        <time>2014-06-29T12:58:30Z</time>
      </trkpt>
      <trkpt lat="41.540295000" lon="1.867114000">
        <ele>189.90</ele>
        <time>2014-06-29T12:58:32Z</time>
      </trkpt>
      <trkpt lat="41.540481000" lon="1.867521000">
        <ele>191.20</ele>
        <time>2014-06-29T12:58:41Z</time>
      </trkpt>
      <trkpt lat="41.540470000" lon="1.867580000">
        <ele>191.10</ele>
        <time>2014-06-29T12:58:45Z</time>
      </trkpt>
      <trkpt lat="41.540739000" lon="1.868009000">
        <ele>192.50</ele>
        <time>2014-06-29T12:58:55Z</time>
      </trkpt>
      <trkpt lat="41.540829000" lon="1.868272000">
        <ele>193.50</ele>
        <time>2014-06-29T12:59:02Z</time>
      </trkpt>
      <trkpt lat="41.541024000" lon="1.868230000">
        <ele>193.90</ele>
        <time>2014-06-29T12:59:09Z</time>
      </trkpt>
      <trkpt lat="41.541039000" lon="1.868211000">
        <ele>193.70</ele>
        <time>2014-06-29T12:59:11Z</time>
      </trkpt>
      <trkpt lat="41.541224000" lon="1.868546000">
        <ele>193.50</ele>
        <time>2014-06-29T12:59:20Z</time>
      </trkpt>
      <trkpt lat="41.541349000" lon="1.868753000">
        <ele>192.70</ele>
        <time>2014-06-29T12:59:24Z</time>
      </trkpt>
      <trkpt lat="41.541415000" lon="1.868872000">
        <ele>192.20</ele>
        <time>2014-06-29T12:59:26Z</time>
      </trkpt>
      <trkpt lat="41.541502000" lon="1.869109000">
        <ele>190.30</ele>
        <time>2014-06-29T12:59:30Z</time>
      </trkpt>
      <trkpt lat="41.541701000" lon="1.869272000">
        <ele>188.20</ele>
        <time>2014-06-29T12:59:33Z</time>
      </trkpt>
      <trkpt lat="41.541848000" lon="1.869300000">
        <ele>187.50</ele>
        <time>2014-06-29T12:59:35Z</time>
      </trkpt>
      <trkpt lat="41.542367000" lon="1.869298000">
        <ele>182.20</ele>
        <time>2014-06-29T12:59:41Z</time>
      </trkpt>
      <trkpt lat="41.542554000" lon="1.869312000">
        <ele>181.20</ele>
        <time>2014-06-29T12:59:43Z</time>
      </trkpt>
      <trkpt lat="41.543361000" lon="1.869668000">
        <ele>177.70</ele>
        <time>2014-06-29T12:59:52Z</time>
      </trkpt>
      <trkpt lat="41.543526000" lon="1.869757000">
        <ele>176.50</ele>
        <time>2014-06-29T12:59:54Z</time>
      </trkpt>
      <trkpt lat="41.543752000" lon="1.869587000">
        <ele>174.90</ele>
        <time>2014-06-29T12:59:58Z</time>
      </trkpt>
      <trkpt lat="41.543803000" lon="1.869384000">
        <ele>173.00</ele>
        <time>2014-06-29T13:00:00Z</time>
      </trkpt>
      <trkpt lat="41.544155000" lon="1.868951000">
        <ele>171.30</ele>
        <time>2014-06-29T13:00:06Z</time>
      </trkpt>
      <trkpt lat="41.544432000" lon="1.868723000">
        <ele>168.50</ele>
        <time>2014-06-29T13:00:10Z</time>
      </trkpt>
      <trkpt lat="41.544462000" lon="1.868384000">
        <ele>166.90</ele>
        <time>2014-06-29T13:00:13Z</time>
      </trkpt>
      <trkpt lat="41.544432000" lon="1.868023000">
        <ele>165.50</ele>
        <time>2014-06-29T13:00:16Z</time>
      </trkpt>
      <trkpt lat="41.544291000" lon="1.867596000">
        <ele>165.00</ele>
        <time>2014-06-29T13:00:20Z</time>
      </trkpt>
      <trkpt lat="41.544428000" lon="1.867246000">
        <ele>162.80</ele>
        <time>2014-06-29T13:00:24Z</time>
      </trkpt>
      <trkpt lat="41.544606000" lon="1.867014000">
        <ele>162.10</ele>
        <time>2014-06-29T13:00:27Z</time>
      </trkpt>
      <trkpt lat="41.544920000" lon="1.866946000">
        <ele>161.20</ele>
        <time>2014-06-29T13:00:32Z</time>
      </trkpt>
      <trkpt lat="41.544962000" lon="1.867255000">
        <ele>159.60</ele>
        <time>2014-06-29T13:00:37Z</time>
      </trkpt>
      <trkpt lat="41.545131000" lon="1.867722000">
        <ele>158.30</ele>
        <time>2014-06-29T13:00:43Z</time>
      </trkpt>
      <trkpt lat="41.545342000" lon="1.868058000">
        <ele>156.10</ele>
        <time>2014-06-29T13:00:48Z</time>
      </trkpt>
      <trkpt lat="41.545445000" lon="1.868424000">
        <ele>154.60</ele>
        <time>2014-06-29T13:00:52Z</time>
      </trkpt>
      <trkpt lat="41.545705000" lon="1.868736000">
        <ele>152.90</ele>
        <time>2014-06-29T13:00:57Z</time>
      </trkpt>
      <trkpt lat="41.545983000" lon="1.868863000">
        <ele>150.70</ele>
        <time>2014-06-29T13:01:01Z</time>
      </trkpt>
      <trkpt lat="41.546300000" lon="1.869138000">
        <ele>148.60</ele>
        <time>2014-06-29T13:01:07Z</time>
      </trkpt>
      <trkpt lat="41.546443000" lon="1.869506000">
        <ele>144.30</ele>
        <time>2014-06-29T13:01:15Z</time>
      </trkpt>
      <trkpt lat="41.546573000" lon="1.869690000">
        <ele>140.10</ele>
        <time>2014-06-29T13:01:19Z</time>
      </trkpt>
      <trkpt lat="41.546611000" lon="1.869714000">
        <ele>139.00</ele>
        <time>2014-06-29T13:01:20Z</time>
      </trkpt>
      <trkpt lat="41.546796000" lon="1.869684000">
        <ele>135.20</ele>
        <time>2014-06-29T13:01:24Z</time>
      </trkpt>
      <trkpt lat="41.546904000" lon="1.869522000">
        <ele>132.30</ele>
        <time>2014-06-29T13:01:28Z</time>
      </trkpt>
      <trkpt lat="41.546923000" lon="1.869431000">
        <ele>131.20</ele>
        <time>2014-06-29T13:01:30Z</time>
      </trkpt>
      <trkpt lat="41.546900000" lon="1.869243000">
        <ele>130.30</ele>
        <time>2014-06-29T13:01:35Z</time>
      </trkpt>
      <trkpt lat="41.546919000" lon="1.869029000">
        <ele>128.20</ele>
        <time>2014-06-29T13:01:43Z</time>
      </trkpt>
      <trkpt lat="41.547011000" lon="1.869128000">
        <ele>125.00</ele>
        <time>2014-06-29T13:01:46Z</time>
      </trkpt>
      <trkpt lat="41.547106000" lon="1.869187000">
        <ele>123.50</ele>
        <time>2014-06-29T13:01:48Z</time>
      </trkpt>
      <trkpt lat="41.547236000" lon="1.869241000">
        <ele>121.90</ele>
        <time>2014-06-29T13:01:51Z</time>
      </trkpt>
      <trkpt lat="41.547403000" lon="1.869447000">
        <ele>118.30</ele>
        <time>2014-06-29T13:01:56Z</time>
      </trkpt>
      <trkpt lat="41.547478000" lon="1.869606000">
        <ele>116.60</ele>
        <time>2014-06-29T13:01:59Z</time>
      </trkpt>
      <trkpt lat="41.547518000" lon="1.869709000">
        <ele>114.90</ele>
        <time>2014-06-29T13:02:01Z</time>
      </trkpt>
      <trkpt lat="41.547550000" lon="1.869982000">
        <ele>111.00</ele>
        <time>2014-06-29T13:02:06Z</time>
      </trkpt>
      <trkpt lat="41.547545000" lon="1.870048000">
        <ele>109.80</ele>
        <time>2014-06-29T13:02:07Z</time>
      </trkpt>
      <trkpt lat="41.547526000" lon="1.870184000">
        <ele>108.80</ele>
        <time>2014-06-29T13:02:09Z</time>
      </trkpt>
      <trkpt lat="41.547512000" lon="1.870382000">
        <ele>106.40</ele>
        <time>2014-06-29T13:02:12Z</time>
      </trkpt>
      <trkpt lat="41.547485000" lon="1.870566000">
        <ele>104.90</ele>
        <time>2014-06-29T13:02:15Z</time>
      </trkpt>
      <trkpt lat="41.547451000" lon="1.870886000">
        <ele>101.90</ele>
        <time>2014-06-29T13:02:20Z</time>
      </trkpt>
      <trkpt lat="41.547451000" lon="1.871003000">
        <ele>101.20</ele>
        <time>2014-06-29T13:02:22Z</time>
      </trkpt>
      <trkpt lat="41.547422000" lon="1.871266000">
        <ele>98.30</ele>
        <time>2014-06-29T13:02:32Z</time>
      </trkpt>
      <trkpt lat="41.547410000" lon="1.871280000">
        <ele>97.70</ele>
        <time>2014-06-29T13:02:50Z</time>
      </trkpt>
      <trkpt lat="41.547391000" lon="1.871514000">
        <ele>95.20</ele>
        <time>2014-06-29T13:02:56Z</time>
      </trkpt>
      <trkpt lat="41.547383000" lon="1.871565000">
        <ele>94.90</ele>
        <time>2014-06-29T13:02:57Z</time>
      </trkpt>
      <trkpt lat="41.547368000" lon="1.871741000">
        <ele>93.40</ele>
        <time>2014-06-29T13:03:00Z</time>
      </trkpt>
      <trkpt lat="41.547146000" lon="1.871955000">
        <ele>92.90</ele>
        <time>2014-06-29T13:03:07Z</time>
      </trkpt>
      <trkpt lat="41.546686000" lon="1.871876000">
        <ele>92.70</ele>
        <time>2014-06-29T13:03:21Z</time>
      </trkpt>
      <trkpt lat="41.546313000" lon="1.871792000">
        <ele>93.20</ele>
        <time>2014-06-29T13:03:31Z</time>
      </trkpt>
      <trkpt lat="41.545907000" lon="1.871845000">
        <ele>92.80</ele>
        <time>2014-06-29T13:03:41Z</time>
      </trkpt>
      <trkpt lat="41.545277000" lon="1.872196000">
        <ele>92.30</ele>
        <time>2014-06-29T13:03:56Z</time>
      </trkpt>
      <trkpt lat="41.545010000" lon="1.872180000">
        <ele>90.70</ele>
        <time>2014-06-29T13:04:02Z</time>
      </trkpt>
      <trkpt lat="41.544762000" lon="1.872052000">
        <ele>91.60</ele>
        <time>2014-06-29T13:04:08Z</time>
      </trkpt>
      <trkpt lat="41.544497000" lon="1.872041000">
        <ele>91.80</ele>
        <time>2014-06-29T13:04:14Z</time>
      </trkpt>
      <trkpt lat="41.543722000" lon="1.872299000">
        <ele>94.10</ele>
        <time>2014-06-29T13:04:32Z</time>
      </trkpt>
      <trkpt lat="41.543125000" lon="1.872974000">
        <ele>96.80</ele>
        <time>2014-06-29T13:04:52Z</time>
      </trkpt>
      <trkpt lat="41.543066000" lon="1.873044000">
        <ele>97.00</ele>
        <time>2014-06-29T13:04:54Z</time>
      </trkpt>
      <trkpt lat="41.542728000" lon="1.873896000">
        <ele>97.20</ele>
        <time>2014-06-29T13:05:11Z</time>
      </trkpt>
      <trkpt lat="41.542442000" lon="1.875281000">
        <ele>96.20</ele>
        <time>2014-06-29T13:05:33Z</time>
      </trkpt>
      <trkpt lat="41.542279000" lon="1.876497000">
        <ele>93.10</ele>
        <time>2014-06-29T13:05:48Z</time>
      </trkpt>
      <trkpt lat="41.542129000" lon="1.877528000">
        <ele>90.40</ele>
        <time>2014-06-29T13:06:00Z</time>
      </trkpt>
      <trkpt lat="41.542067000" lon="1.877809000">
        <ele>89.00</ele>
        <time>2014-06-29T13:06:03Z</time>
      </trkpt>
      <trkpt lat="41.541823000" lon="1.878234000">
        <ele>89.00</ele>
        <time>2014-06-29T13:06:09Z</time>
      </trkpt>
      <trkpt lat="41.541288000" lon="1.879284000">
        <ele>88.80</ele>
        <time>2014-06-29T13:06:25Z</time>
      </trkpt>
      <trkpt lat="41.541058000" lon="1.880361000">
        <ele>89.40</ele>
        <time>2014-06-29T13:06:41Z</time>
      </trkpt>
      <trkpt lat="41.541052000" lon="1.880411000">
        <ele>89.80</ele>
        <time>2014-06-29T13:06:43Z</time>
      </trkpt>
      <trkpt lat="41.541149000" lon="1.880529000">
        <ele>88.80</ele>
        <time>2014-06-29T13:06:47Z</time>
      </trkpt>
      <trkpt lat="41.542312000" lon="1.881222000">
        <ele>89.10</ele>
        <time>2014-06-29T13:07:12Z</time>
      </trkpt>
      <trkpt lat="41.543209000" lon="1.881794000">
        <ele>92.10</ele>
        <time>2014-06-29T13:07:34Z</time>
      </trkpt>
      <trkpt lat="41.543339000" lon="1.881879000">
        <ele>93.70</ele>
        <time>2014-06-29T13:07:38Z</time>
      </trkpt>
      <trkpt lat="41.543765000" lon="1.882168000">
        <ele>96.80</ele>
        <time>2014-06-29T13:07:51Z</time>
      </trkpt>
      <trkpt lat="41.543791000" lon="1.882473000">
        <ele>97.90</ele>
        <time>2014-06-29T13:07:57Z</time>
      </trkpt>
      <trkpt lat="41.543838000" lon="1.882865000">
        <ele>98.90</ele>
        <time>2014-06-29T13:08:04Z</time>
      </trkpt>
      <trkpt lat="41.543936000" lon="1.883031000">
        <ele>99.80</ele>
        <time>2014-06-29T13:08:08Z</time>
      </trkpt>
      <trkpt lat="41.544065000" lon="1.883160000">
        <ele>99.70</ele>
        <time>2014-06-29T13:08:12Z</time>
      </trkpt>
      <trkpt lat="41.544313000" lon="1.883201000">
        <ele>99.40</ele>
        <time>2014-06-29T13:08:18Z</time>
      </trkpt>
      <trkpt lat="41.544576000" lon="1.883231000">
        <ele>100.60</ele>
        <time>2014-06-29T13:08:25Z</time>
      </trkpt>
      <trkpt lat="41.544748000" lon="1.883476000">
        <ele>99.90</ele>
        <time>2014-06-29T13:08:30Z</time>
      </trkpt>
      <trkpt lat="41.545025000" lon="1.883691000">
        <ele>97.50</ele>
        <time>2014-06-29T13:08:35Z</time>
      </trkpt>
      <trkpt lat="41.545365000" lon="1.883869000">
        <ele>98.40</ele>
        <time>2014-06-29T13:08:41Z</time>
      </trkpt>
      <trkpt lat="41.545564000" lon="1.884312000">
        <ele>100.60</ele>
        <time>2014-06-29T13:08:49Z</time>
      </trkpt>
      <trkpt lat="41.545477000" lon="1.884521000">
        <ele>100.90</ele>
        <time>2014-06-29T13:08:53Z</time>
      </trkpt>
      <trkpt lat="41.544851000" lon="1.885274000">
        <ele>104.40</ele>
        <time>2014-06-29T13:09:10Z</time>
      </trkpt>
      <trkpt lat="41.544422000" lon="1.885705000">
        <ele>105.80</ele>
        <time>2014-06-29T13:09:20Z</time>
      </trkpt>
      <trkpt lat="41.544301000" lon="1.885814000">
        <ele>106.00</ele>
        <time>2014-06-29T13:09:24Z</time>
      </trkpt>
      <trkpt lat="41.544178000" lon="1.885754000">
        <ele>106.00</ele>
        <time>2014-06-29T13:09:30Z</time>
      </trkpt>
      <trkpt lat="41.544194000" lon="1.885843000">
        <ele>105.40</ele>
        <time>2014-06-29T13:09:36Z</time>
      </trkpt>
      <trkpt lat="41.544202000" lon="1.885851000">
        <ele>104.70</ele>
        <time>2014-06-29T13:11:17Z</time>
      </trkpt>
      <trkpt lat="41.544202000" lon="1.885851000">
        <ele>105.00</ele>
        <time>2014-06-29T13:11:32Z</time>
      </trkpt>
      <trkpt lat="41.544230000" lon="1.885965000">
        <ele>104.90</ele>
        <time>2014-06-29T13:11:38Z</time>
      </trkpt>
      <trkpt lat="41.544359000" lon="1.885998000">
        <ele>105.60</ele>
        <time>2014-06-29T13:11:44Z</time>
      </trkpt>
      <trkpt lat="41.544525000" lon="1.886060000">
        <ele>106.60</ele>
        <time>2014-06-29T13:11:51Z</time>
      </trkpt>
      <trkpt lat="41.544568000" lon="1.886115000">
        <ele>106.60</ele>
        <time>2014-06-29T13:11:54Z</time>
      </trkpt>
      <trkpt lat="41.544684000" lon="1.886176000">
        <ele>105.90</ele>
        <time>2014-06-29T13:12:07Z</time>
      </trkpt>
      <trkpt lat="41.544659000" lon="1.886228000">
        <ele>106.10</ele>
        <time>2014-06-29T13:12:22Z</time>
      </trkpt>
    </trkseg>
  </trk>
</gpx>
